[[{"header":{"parameterUnit":"m.s-1","parameterCategory":1,"la1":31.0,"la2":29.5877,"lo1":-88.7671,"lo2":-86.6584,"dy":0.0162,"dx":0.0185,"nx":115,"ny":88,"refTime":"2023-05-03T12:00:00:Z","depth":0,"parameterNumber":2,"parameterNumberName":"U-component_of_WINDS"},"data":[0.0,0.0,0.0,0.0,0.0,0.0,0.0,0.0,0.0,0.0,0.0,0.0,0.0,0.0,0.0,0.0,0.0,0.0,0.0,0.0,0.0,0.0,0.0,0.0,0.0,0.0,0.0,0.0,0.0,0.0,0.0,0.0,0.0,0.0,0.0,0.0,0.0,0.0,0.0,0.0,0.0,0.0,0.0,0.0,0.0,0.0,0.0,0.0,0.0,0.0,0.0,0.0,0.0,0.0,0.0,0.0,0.0,0.0,0.0,0.0,0.0,0.0,0.0,0.0,0.0,0.0,0.0,0.0,0.0,0.0,0.0,0.0,0.0,0.0,0.0,0.0,0.0,0.0,0.0,0.0,0.0,0.0,0.0,0.0,0.0,0.0,0.0,0.0,0.0,0.0,0.0,0.0,0.0,0.0,0.0,0.0,0.0,0.0,0.0,0.0,0.0,0.0,0.0,0.0,0.0,0.0,0.0,0.0,0.0,0.0,0.0,0.0,0.0,0.0,0.0,0.0,0.0,0.0,0.0,0.0,0.0,0.0,0.0,0.0,0.0,0.0,0.0,0.0,0.0,0.0,0.0,0.0,0.0,0.0,0.0,0.0,0.0,0.0,0.0,0.0,0.0,0.0,0.0,0.0,0.0,0.0,0.0,0.0,0.0,0.0,0.0,0.0,0.0,0.0,0.0,0.0,0.0,0.0,0.0,0.0,0.0,0.0,0.0,0.0,0.0,0.0,0.0,0.0,0.0,0.0,0.0,0.0,0.0,0.0,0.0,0.0,0.0,0.0,0.0,0.0,0.0,0.0,0.0,0.0,0.0,0.0,0.0,0.0,0.0,0.0,0.0,0.0,0.0,0.0,0.0,0.0,0.0,0.0,0.0,0.0,0.0,0.0,0.0,0.0,0.0,0.0,0.0,0.0,0.0,0.0,0.0,0.0,0.0,0.0,0.0,0.0,0.0,0.0,0.0,0.0,0.0,0.0,0.0,0.0,0.0,0.0,0.0,0.0,0.0,0.0,0.0,0.0,0.0,0.0,0.0,0.0,0.0,0.0,0.0,0.0,0.0,0.0,0.0,0.0,0.0,0.0,0.0,0.0,0.0,0.0,0.0,0.0,0.0,0.0,0.0,0.0,0.0,0.0,0.0,0.0,0.0,0.0,0.0,0.0,0.0,0.0,0.0,0.0,0.0,0.0,0.0,0.0,0.0,0.0,0.0,0.0,0.0,0.0,0.0,0.0,0.0,0.0,0.0,0.0,0.0,0.0,0.0,0.0,0.0,0.0,0.0,0.0,0.0,0.0,0.0,0.0,0.0,0.0,0.0,0.0,0.0,0.0,0.0,0.0,0.0,0.0,0.0,0.0,0.0,0.0,0.0,0.0,0.0,0.0,0.0,0.0,0.0,0.0,0.0,0.0,0.0,0.0,0.0,0.0,0.0,0.0,0.0,0.0,0.0,0.0,0.0,0.0,0.0,0.0,0.0,0.0,0.0,0.0,0.0,0.0,0.0,0.0,0.0,0.0,0.0,0.0,0.0,0.0,0.0,0.0,0.0,0.0,0.0,0.0,0.0,0.0,0.0,0.0,0.0,0.0,0.0,0.0,0.0,0.0,0.0,0.0,0.0,0.0,0.0,0.0,0.0,0.0,0.0,0.0,0.0,0.0,0.0,0.0,0.0,0.0,0.0,0.0,0.0,0.0,0.0,0.0,0.0,0.0,0.0,0.0,0.0,0.0,0.0,0.0,0.0,0.0,0.0,0.0,0.0,0.0,0.0,0.0,0.0,0.0,0.0,0.0,0.0,0.0,0.0,0.0,0.0,0.0,0.0,0.0,0.0,0.0,0.0,0.0,0.0,0.0,0.0,0.0,0.0,0.0,0.0,0.0,0.0,0.0,0.0,0.0,0.0,0.0,0.0,0.0,0.0,0.0,0.0,0.0,0.0,0.0,0.0,0.0,0.0,0.0,0.0,0.0,0.0,0.0,0.0,0.0,0.0,0.0,0.0,0.0,0.0,0.0,0.0,0.0,0.0,0.0,0.0,0.0,0.0,0.0,0.0,0.0,0.0,0.0,0.0,0.0,0.0,0.0,0.0,0.0,0.0,0.0,0.0,0.0,0.0,0.0,0.0,0.0,0.0,0.0,0.0,0.0,0.0,0.0,0.0,0.0,0.0,0.0,0.0,0.0,0.0,0.0,0.0,0.0,0.0,0.0,0.0,0.0,0.0,0.0,0.0,0.0,0.0,0.0,0.0,0.0,0.0,0.0,0.0,0.0,0.0,0.0,0.0,0.0,0.0,0.0,0.0,0.0,0.0,0.0,0.0,0.0,0.0,0.0,0.0,0.0,0.0,0.0,0.0,0.0,0.0,0.0,0.0,0.0,0.0,0.0,0.0,0.0,0.0,0.0,0.0,0.0,0.0,0.0,0.0,0.0,0.0,0.0,0.0,0.0,0.0,0.0,0.0,0.0,0.0,0.0,0.0,0.0,0.0,0.0,0.0,0.0,0.0,0.0,0.0,0.0,0.0,0.0,0.0,0.0,0.0,0.0,0.0,0.0,0.0,0.0,0.0,0.0,0.0,0.0,0.0,0.0,0.0,0.0,0.0,0.0,0.0,0.0,0.0,0.0,0.0,0.0,0.0,0.0,0.0,0.0,0.0,0.0,0.0,0.0,0.0,0.0,0.0,0.0,0.0,0.0,0.0,0.0,0.0,0.0,0.0,0.0,0.0,0.0,0.0,0.0,0.0,0.0,0.0,0.0,0.0,0.0,0.0,0.0,0.0,0.0,0.0,0.0,0.0,0.0,0.0,0.0,0.0,0.0,0.0,0.0,0.0,0.0,0.0,0.0,0.0,0.0,0.0,0.0,0.0,0.0,0.0,0.0,0.0,0.0,0.0,0.0,0.0,0.0,0.0,0.0,0.0,0.0,0.0,0.0,0.0,0.0,0.0,0.0,0.0,0.0,0.0,0.0,0.0,0.0,0.0,0.0,0.0,0.0,0.0,0.0,0.0,0.0,0.0,0.0,0.0,0.0,0.0,0.0,0.0,0.0,0.0,0.0,0.0,0.0,0.0,0.0,0.0,0.0,0.0,0.0,0.0,0.0,0.0,0.0,0.0,0.0,0.0,0.0,0.0,0.0,0.0,0.0,0.0,0.0,0.0,0.0,0.0,0.0,0.0,0.0,0.0,0.0,0.0,0.0,0.0,0.0,0.0,0.0,0.0,0.0,0.0,0.0,0.0,0.0,0.0,0.0,0.0,0.0,0.0,0.0,0.0,0.0,0.0,0.0,0.0,0.0,0.0,0.0,0.0,0.0,0.0,0.0,0.0,0.0,0.0,0.0,0.0,0.0,0.0,0.0,0.0,0.0,0.0,0.0,0.0,0.0,0.0,0.0,0.0,0.0,0.0,0.0,0.0,0.0,0.0,0.0,0.0,0.0,0.0,0.0,0.0,0.0,0.0,0.0,0.0,0.0,0.0,0.0,0.0,0.0,0.0,0.0,0.0,0.0,0.0,0.0,0.0,0.0,0.0,0.0,0.0,0.0,0.0,0.0,0.0,0.0,0.0,0.0,0.0,0.0,0.0,0.0,0.0,0.0,0.0,0.0,0.0,0.0,0.0,0.0,0.0,0.0,0.0,0.0,0.0,0.0,0.0,0.0,0.0,0.0,0.0,0.0,0.0,0.0,0.0,0.0,0.0,0.0,0.0,0.0,0.0,0.0,0.0,0.0,0.0,0.0,0.0,0.0,0.0,0.0,0.0,0.0,0.0,0.0,0.0,0.0,0.0,0.0,0.0,0.0,0.0,0.0,0.0,0.0,0.0,0.0,0.0,0.0,0.0,0.0,0.0,0.0,0.0,0.0,0.0,0.0,0.0,0.0,0.0,0.0,0.0,0.0,0.0,0.0,0.0,0.0,0.0,0.0,0.0,0.0,0.0,0.0,0.0,0.0,0.0,0.0,0.0,0.0,0.0,0.0,0.0,0.0,0.0,0.0,0.0,0.0,0.0,0.0,0.0,0.0,0.0,0.0,0.0,0.0,0.0,0.0,0.0,0.0,0.0,0.0,0.0,0.0,0.0,0.0,0.0,0.0,0.0,0.0,0.0,0.0,0.0,0.0,0.0,0.0,0.0,0.0,0.0,0.0,0.0,0.0,0.0,0.0,0.0,0.0,0.0,0.0,0.0,0.0,0.0,0.0,0.0,0.0,0.0,0.0,0.0,0.0,0.0,0.0,0.0,0.0,0.0,0.0,0.0,0.0,0.0,0.0,-1.7073,0.0,0.0,0.0,0.0,0.0,0.0,0.0,0.0,0.0,0.0,0.0,0.0,0.0,0.0,0.0,0.0,0.0,0.0,0.0,0.0,0.0,0.0,0.0,0.0,0.0,0.0,0.0,0.0,0.0,0.0,0.0,0.0,0.0,0.0,0.0,0.0,0.0,0.0,0.0,0.0,0.0,0.0,0.0,0.0,0.0,0.0,0.0,0.0,0.0,0.0,0.0,0.0,0.0,0.0,0.0,0.0,0.0,0.0,0.0,0.0,0.0,0.0,0.0,0.0,0.0,0.0,0.0,0.0,0.0,0.0,0.0,0.0,0.0,0.0,0.0,0.0,0.0,0.0,0.0,0.0,0.0,0.0,0.0,0.0,0.0,0.0,0.0,0.0,0.0,0.0,0.0,0.0,0.0,0.0,0.0,0.0,0.0,0.0,0.0,0.0,0.0,0.0,0.0,0.0,0.0,0.0,0.0,0.0,0.0,0.0,-2.2799,-2.1561,-2.3085,-2.2608,-1.979,0.0,0.0,0.0,0.0,0.0,0.0,0.0,0.0,0.0,0.0,0.0,0.0,0.0,0.0,0.0,0.0,0.0,0.0,0.0,0.0,0.0,0.0,0.0,0.0,0.0,0.0,0.0,0.0,0.0,0.0,0.0,0.0,0.0,0.0,0.0,0.0,0.0,0.0,0.0,0.0,0.0,0.0,0.0,0.0,0.0,0.0,0.0,0.0,0.0,0.0,0.0,0.0,0.0,0.0,0.0,0.0,0.0,0.0,0.0,0.0,0.0,0.0,0.0,0.0,0.0,0.0,0.0,0.0,0.0,0.0,0.0,0.0,0.0,0.0,0.0,0.0,0.0,0.0,0.0,0.0,0.0,0.0,0.0,0.0,0.0,0.0,0.0,0.0,0.0,0.0,0.0,0.0,0.0,0.0,0.0,0.0,0.0,0.0,0.0,0.0,0.0,0.0,0.0,0.0,0.0,0.0,0.0,0.0,0.0,0.0,0.0,0.0,-2.7272,-2.6533,-2.242,0.0,0.0,0.0,0.0,0.0,0.0,0.0,0.0,0.0,0.0,0.0,0.0,0.0,0.0,0.0,0.0,0.0,0.0,0.0,0.0,0.0,0.0,0.0,0.0,0.0,0.0,0.0,0.0,0.0,0.0,0.0,0.0,0.0,0.0,0.0,0.0,0.0,0.0,0.0,0.0,0.0,0.0,0.0,0.0,0.0,0.0,0.0,0.0,0.0,0.0,0.0,0.0,0.0,0.0,0.0,0.0,0.0,0.0,0.0,0.0,0.0,0.0,0.0,0.0,0.0,0.0,0.0,0.0,0.0,0.0,0.0,0.0,0.0,0.0,0.0,0.0,0.0,0.0,0.0,0.0,0.0,0.0,0.0,0.0,0.0,0.0,0.0,0.0,0.0,0.0,0.0,0.0,0.0,0.0,0.0,0.0,0.0,0.0,0.0,0.0,0.0,0.0,0.0,0.0,0.0,0.0,0.0,0.0,0.0,0.0,-2.7569,-2.9619,-2.9858,0.0,-2.4138,0.0,0.0,0.0,0.0,0.0,0.0,0.0,0.0,0.0,0.0,0.0,0.0,0.0,0.0,0.0,0.0,0.0,0.0,0.0,0.0,0.0,0.0,0.0,0.0,0.0,0.0,0.0,0.0,0.0,0.0,0.0,0.0,0.0,0.0,0.0,0.0,0.0,0.0,0.0,0.0,0.0,0.0,0.0,0.0,0.0,0.0,0.0,0.0,0.0,0.0,0.0,0.0,0.0,0.0,0.0,0.0,0.0,0.0,0.0,0.0,0.0,0.0,0.0,0.0,0.0,0.0,0.0,0.0,0.0,0.0,0.0,0.0,0.0,0.0,0.0,0.0,0.0,0.0,0.0,0.0,0.0,0.0,0.0,0.0,0.0,0.0,0.0,0.0,0.0,0.0,0.0,0.0,0.0,0.0,0.0,0.0,0.0,0.0,0.0,0.0,0.0,0.0,0.0,0.0,0.0,0.0,0.0,0.0,0.0,0.0,-2.8415,-3.037,-2.9417,-2.7475,0.0,0.0,0.0,0.0,0.0,0.0,0.0,0.0,0.0,0.0,0.0,0.0,0.0,0.0,0.0,0.0,0.0,0.0,0.0,0.0,0.0,0.0,0.0,0.0,0.0,0.0,0.0,0.0,0.0,0.0,0.0,0.0,0.0,0.0,0.0,0.0,0.0,0.0,0.0,0.0,0.0,0.0,0.0,0.0,0.0,0.0,0.0,0.0,0.0,0.0,0.0,0.0,0.0,0.0,0.0,0.0,0.0,0.0,0.0,0.0,0.0,0.0,0.0,0.0,0.0,0.0,0.0,0.0,0.0,0.0,0.0,0.0,0.0,0.0,0.0,0.0,0.0,0.0,0.0,0.0,0.0,0.0,0.0,0.0,0.0,0.0,0.0,0.0,0.0,0.0,0.0,0.0,0.0,0.0,0.0,0.0,0.0,0.0,0.0,0.0,0.0,0.0,0.0,0.0,0.0,0.0,0.0,0.0,0.0,0.0,-2.8905,-2.9961,-3.1637,-3.0191,-2.7875,-2.4836,0.0,0.0,0.0,0.0,0.0,0.0,0.0,0.0,0.0,0.0,0.0,0.0,0.0,0.0,0.0,0.0,0.0,0.0,0.0,0.0,0.0,0.0,0.0,0.0,0.0,0.0,0.0,0.0,0.0,0.0,0.0,0.0,0.0,0.0,0.0,0.0,0.0,0.0,0.0,0.0,0.0,0.0,0.0,0.0,0.0,0.0,0.0,0.0,0.0,0.0,0.0,0.0,0.0,0.0,0.0,0.0,0.0,0.0,0.0,0.0,0.0,0.0,0.0,0.0,0.0,0.0,0.0,0.0,0.0,0.0,0.0,0.0,0.0,0.0,0.0,0.0,0.0,0.0,0.0,0.0,0.0,0.0,0.0,0.0,0.0,0.0,0.0,0.0,0.0,0.0,0.0,0.0,0.0,0.0,0.0,0.0,0.0,0.0,0.0,0.0,0.0,0.0,0.0,0.0,0.0,0.0,0.0,0.0,-3.2616,-3.2124,-3.2802,-3.4912,-3.3467,-3.0366,0.0,0.0,0.0,0.0,0.0,0.0,0.0,0.0,0.0,0.0,0.0,0.0,0.0,0.0,0.0,0.0,0.0,0.0,0.0,0.0,0.0,0.0,0.0,0.0,0.0,0.0,0.0,0.0,0.0,0.0,0.0,0.0,0.0,0.0,0.0,0.0,0.0,0.0,0.0,0.0,0.0,0.0,0.0,0.0,0.0,0.0,0.0,0.0,0.0,0.0,0.0,0.0,0.0,0.0,0.0,0.0,0.0,0.0,0.0,0.0,0.0,0.0,0.0,0.0,0.0,0.0,0.0,0.0,0.0,0.0,0.0,0.0,0.0,0.0,0.0,0.0,0.0,0.0,0.0,0.0,0.0,0.0,0.0,0.0,0.0,0.0,0.0,0.0,0.0,0.0,0.0,0.0,0.0,0.0,0.0,0.0,0.0,0.0,0.0,0.0,0.0,0.0,0.0,0.0,0.0,0.0,0.0,0.0,0.0,-3.2116,-3.3512,-3.4878,-3.6151,-3.3124,-3.0146,0.0,0.0,0.0,0.0,0.0,0.0,0.0,0.0,0.0,0.0,0.0,0.0,0.0,0.0,0.0,0.0,0.0,0.0,0.0,0.0,0.0,0.0,0.0,0.0,0.0,0.0,0.0,0.0,0.0,0.0,0.0,0.0,0.0,0.0,0.0,0.0,0.0,0.0,0.0,0.0,0.0,0.0,0.0,0.0,0.0,0.0,0.0,0.0,0.0,0.0,0.0,0.0,0.0,0.0,0.0,0.0,0.0,0.0,0.0,0.0,0.0,0.0,0.0,0.0,0.0,0.0,0.0,0.0,0.0,0.0,0.0,0.0,0.0,0.0,0.0,0.0,0.0,0.0,0.0,0.0,0.0,0.0,0.0,0.0,0.0,0.0,0.0,0.0,0.0,0.0,0.0,0.0,0.0,0.0,0.0,0.0,0.0,0.0,0.0,0.0,0.0,0.0,0.0,0.0,0.0,0.0,0.0,0.0,0.0,-3.3742,0.0,-3.7495,-3.7108,-3.4201,-3.0962,0.0,0.0,0.0,0.0,0.0,0.0,0.0,0.0,0.0,0.0,0.0,0.0,0.0,0.0,0.0,0.0,0.0,0.0,0.0,0.0,0.0,0.0,0.0,0.0,0.0,0.0,0.0,0.0,0.0,0.0,0.0,0.0,0.0,0.0,0.0,0.0,0.0,0.0,0.0,0.0,0.0,0.0,0.0,0.0,0.0,0.0,0.0,0.0,0.0,0.0,0.0,0.0,0.0,0.0,0.0,0.0,0.0,0.0,0.0,0.0,0.0,0.0,0.0,0.0,0.0,0.0,0.0,0.0,0.0,0.0,0.0,0.0,0.0,0.0,0.0,0.0,0.0,0.0,0.0,0.0,0.0,0.0,0.0,0.0,0.0,0.0,0.0,0.0,0.0,0.0,0.0,0.0,0.0,0.0,0.0,0.0,0.0,0.0,0.0,0.0,0.0,0.0,0.0,0.0,0.0,0.0,0.0,0.0,-3.3637,-3.7929,-4.0447,-4.0445,-3.8057,-3.6889,-3.3019,0.0,0.0,0.0,0.0,0.0,0.0,0.0,0.0,0.0,0.0,0.0,0.0,0.0,0.0,0.0,0.0,0.0,0.0,0.0,0.0,0.0,0.0,0.0,0.0,0.0,0.0,0.0,0.0,0.0,0.0,0.0,0.0,0.0,0.0,0.0,0.0,0.0,0.0,0.0,0.0,0.0,0.0,0.0,0.0,0.0,0.0,0.0,0.0,0.0,0.0,0.0,0.0,0.0,0.0,0.0,0.0,0.0,0.0,0.0,0.0,0.0,0.0,0.0,0.0,0.0,0.0,0.0,0.0,0.0,0.0,0.0,0.0,0.0,0.0,0.0,0.0,0.0,0.0,0.0,0.0,0.0,0.0,0.0,0.0,0.0,0.0,0.0,0.0,0.0,0.0,0.0,0.0,0.0,0.0,0.0,0.0,0.0,0.0,0.0,0.0,0.0,0.0,0.0,0.0,0.0,0.0,0.0,0.0,0.0,-3.6443,-3.8757,-4.0181,-4.0359,-3.6669,-3.3324,0.0,0.0,0.0,0.0,0.0,0.0,0.0,0.0,0.0,0.0,0.0,0.0,0.0,0.0,0.0,0.0,0.0,0.0,0.0,0.0,0.0,0.0,0.0,0.0,0.0,0.0,0.0,0.0,0.0,0.0,0.0,0.0,0.0,0.0,0.0,0.0,0.0,0.0,0.0,0.0,0.0,0.0,0.0,0.0,0.0,0.0,0.0,0.0,0.0,0.0,0.0,0.0,0.0,0.0,0.0,0.0,0.0,0.0,0.0,0.0,0.0,0.0,0.0,0.0,0.0,0.0,0.0,0.0,0.0,0.0,0.0,0.0,0.0,0.0,0.0,0.0,0.0,0.0,0.0,0.0,0.0,0.0,0.0,0.0,0.0,0.0,0.0,0.0,0.0,0.0,0.0,0.0,0.0,0.0,0.0,0.0,0.0,0.0,0.0,0.0,0.0,0.0,0.0,0.0,0.0,0.0,0.0,0.0,0.0,-3.7193,-3.9965,-4.169,-4.2021,-3.7849,-3.4495,-3.2101,0.0,0.0,0.0,0.0,0.0,0.0,0.0,0.0,0.0,0.0,0.0,0.0,0.0,0.0,0.0,0.0,0.0,0.0,0.0,0.0,0.0,0.0,0.0,0.0,0.0,0.0,0.0,0.0,0.0,0.0,0.0,0.0,0.0,0.0,0.0,0.0,0.0,0.0,0.0,0.0,0.0,0.0,0.0,0.0,0.0,0.0,0.0,0.0,0.0,0.0,0.0,0.0,0.0,0.0,0.0,0.0,0.0,0.0,0.0,0.0,0.0,0.0,0.0,0.0,0.0,0.0,0.0,0.0,0.0,0.0,0.0,0.0,0.0,0.0,0.0,0.0,0.0,0.0,0.0,0.0,0.0,0.0,0.0,0.0,0.0,0.0,0.0,0.0,0.0,0.0,0.0,0.0,0.0,0.0,0.0,0.0,0.0,0.0,0.0,0.0,0.0,0.0,0.0,0.0,0.0,0.0,0.0,0.0,-3.9521,-4.349,-4.4626,-4.2776,-4.019,-3.6487,0.0,0.0,0.0,0.0,0.0,0.0,0.0,0.0,0.0,0.0,0.0,0.0,0.0,0.0,0.0,0.0,0.0,0.0,0.0,0.0,0.0,0.0,0.0,0.0,0.0,0.0,0.0,0.0,0.0,0.0,0.0,0.0,0.0,0.0,0.0,0.0,0.0,0.0,0.0,0.0,0.0,0.0,0.0,0.0,0.0,0.0,0.0,0.0,0.0,0.0,0.0,0.0,0.0,0.0,0.0,0.0,0.0,0.0,0.0,0.0,0.0,0.0,0.0,0.0,0.0,0.0,0.0,0.0,0.0,0.0,0.0,0.0,0.0,0.0,0.0,0.0,0.0,0.0,0.0,0.0,0.0,0.0,0.0,0.0,0.0,0.0,0.0,0.0,0.0,0.0,0.0,0.0,0.0,0.0,0.0,0.0,0.0,0.0,0.0,0.0,0.0,0.0,0.0,0.0,0.0,0.0,0.0,0.0,0.0,-4.1392,-4.3998,-4.5057,-4.4329,-4.1333,-3.8478,0.0,0.0,0.0,0.0,0.0,0.0,0.0,0.0,0.0,0.0,0.0,0.0,0.0,0.0,0.0,0.0,0.0,0.0,0.0,0.0,0.0,0.0,0.0,0.0,0.0,0.0,0.0,0.0,0.0,0.0,0.0,0.0,0.0,0.0,0.0,0.0,0.0,0.0,0.0,0.0,0.0,0.0,0.0,0.0,0.0,0.0,0.0,0.0,0.0,0.0,0.0,0.0,0.0,0.0,0.0,0.0,0.0,0.0,0.0,0.0,0.0,0.0,0.0,0.0,0.0,0.0,0.0,0.0,0.0,0.0,0.0,0.0,0.0,0.0,0.0,0.0,0.0,0.0,0.0,0.0,0.0,0.0,0.0,0.0,0.0,0.0,0.0,0.0,0.0,0.0,0.0,0.0,0.0,0.0,0.0,0.0,0.0,0.0,0.0,0.0,0.0,0.0,0.0,0.0,0.0,0.0,0.0,0.0,-3.97,-4.2579,-4.4053,-4.5022,-4.5475,-4.2674,-3.9976,0.0,0.0,0.0,0.0,0.0,0.0,0.0,0.0,0.0,0.0,0.0,0.0,0.0,0.0,0.0,0.0,0.0,0.0,0.0,0.0,0.0,0.0,0.0,0.0,0.0,0.0,0.0,0.0,0.0,0.0,0.0,0.0,0.0,0.0,0.0,0.0,0.0,0.0,0.0,0.0,0.0,0.0,0.0,0.0,0.0,0.0,0.0,0.0,0.0,0.0,0.0,0.0,0.0,0.0,0.0,0.0,0.0,0.0,0.0,0.0,0.0,0.0,0.0,0.0,0.0,0.0,0.0,0.0,0.0,0.0,0.0,0.0,0.0,0.0,0.0,0.0,0.0,0.0,0.0,0.0,0.0,0.0,0.0,0.0,0.0,0.0,0.0,0.0,0.0,0.0,0.0,0.0,0.0,0.0,0.0,0.0,0.0,0.0,0.0,0.0,0.0,0.0,0.0,0.0,0.0,0.0,0.0,0.0,-3.9856,-4.3208,-4.3905,-4.4833,-4.5951,-4.3793,-4.0963,0.0,0.0,0.0,0.0,0.0,0.0,0.0,0.0,0.0,0.0,0.0,0.0,0.0,0.0,0.0,0.0,0.0,0.0,0.0,0.0,0.0,0.0,0.0,0.0,0.0,0.0,0.0,0.0,0.0,0.0,0.0,0.0,0.0,0.0,0.0,0.0,0.0,0.0,0.0,0.0,0.0,0.0,0.0,0.0,0.0,0.0,0.0,0.0,0.0,0.0,0.0,0.0,0.0,0.0,0.0,0.0,0.0,0.0,0.0,0.0,0.0,0.0,0.0,0.0,0.0,0.0,0.0,0.0,0.0,0.0,0.0,0.0,0.0,0.0,0.0,0.0,0.0,0.0,0.0,0.0,0.0,0.0,0.0,0.0,0.0,0.0,0.0,0.0,0.0,0.0,0.0,0.0,0.0,0.0,0.0,0.0,0.0,0.0,0.0,0.0,0.0,0.0,0.0,0.0,0.0,0.0,0.0,0.0,-3.9642,-4.2468,-4.4176,-4.5138,-4.5316,-4.2921,-4.0751,0.0,0.0,0.0,0.0,0.0,0.0,0.0,0.0,0.0,0.0,0.0,0.0,0.0,0.0,0.0,0.0,0.0,0.0,0.0,0.0,0.0,0.0,0.0,0.0,0.0,0.0,0.0,0.0,0.0,0.0,0.0,0.0,0.0,0.0,0.0,0.0,0.0,0.0,0.0,0.0,0.0,0.0,0.0,0.0,0.0,0.0,0.0,0.0,-3.9907,0.0,0.0,0.0,0.0,0.0,0.0,0.0,0.0,0.0,0.0,0.0,0.0,0.0,0.0,0.0,0.0,0.0,0.0,0.0,0.0,0.0,0.0,0.0,0.0,0.0,0.0,0.0,0.0,0.0,0.0,0.0,0.0,0.0,0.0,0.0,0.0,0.0,0.0,0.0,0.0,0.0,0.0,0.0,0.0,0.0,0.0,0.0,0.0,0.0,0.0,0.0,0.0,0.0,0.0,0.0,0.0,0.0,0.0,0.0,-4.0252,-4.2849,-4.3773,-4.4716,-4.5579,-4.2961,-4.0779,0.0,0.0,0.0,0.0,0.0,0.0,0.0,0.0,0.0,0.0,0.0,0.0,0.0,0.0,0.0,0.0,0.0,0.0,0.0,0.0,0.0,0.0,0.0,0.0,0.0,0.0,0.0,0.0,0.0,0.0,0.0,0.0,0.0,0.0,0.0,0.0,0.0,0.0,0.0,0.0,0.0,0.0,0.0,0.0,0.0,0.0,0.0,0.0,0.0,0.0,0.0,0.0,0.0,0.0,0.0,0.0,0.0,0.0,0.0,0.0,0.0,0.0,0.0,0.0,0.0,0.0,0.0,0.0,0.0,0.0,0.0,0.0,0.0,0.0,0.0,0.0,0.0,0.0,0.0,0.0,0.0,0.0,0.0,0.0,0.0,0.0,0.0,0.0,0.0,0.0,0.0,0.0,0.0,0.0,0.0,0.0,0.0,0.0,0.0,0.0,0.0,0.0,0.0,0.0,0.0,0.0,0.0,-3.8989,-4.0586,-4.3068,-4.3061,-4.3952,-4.5851,-4.3309,-4.1045,-3.9309,0.0,0.0,0.0,0.0,0.0,0.0,0.0,0.0,0.0,0.0,0.0,0.0,0.0,0.0,0.0,0.0,0.0,0.0,0.0,0.0,0.0,0.0,0.0,0.0,0.0,0.0,0.0,0.0,0.0,0.0,0.0,0.0,0.0,0.0,0.0,0.0,0.0,0.0,-3.8084,-4.1597,0.0,0.0,0.0,0.0,0.0,0.0,0.0,0.0,-4.179,0.0,0.0,0.0,0.0,0.0,0.0,0.0,0.0,0.0,0.0,0.0,0.0,0.0,0.0,0.0,0.0,0.0,0.0,0.0,0.0,0.0,0.0,0.0,0.0,0.0,0.0,0.0,0.0,0.0,0.0,0.0,0.0,0.0,0.0,0.0,0.0,0.0,0.0,0.0,0.0,0.0,0.0,0.0,0.0,0.0,0.0,0.0,0.0,0.0,0.0,0.0,0.0,0.0,0.0,0.0,0.0,-3.9157,-3.8107,-3.8808,-4.1435,-4.2495,-4.3195,-4.355,-4.321,-4.167,-3.8814,0.0,0.0,0.0,0.0,0.0,0.0,0.0,0.0,0.0,0.0,0.0,0.0,0.0,0.0,0.0,0.0,0.0,0.0,0.0,0.0,0.0,0.0,0.0,0.0,0.0,0.0,0.0,0.0,0.0,0.0,0.0,0.0,0.0,0.0,0.0,0.0,0.0,0.0,0.0,-4.6206,-4.7649,0.0,0.0,0.0,0.0,0.0,0.0,0.0,0.0,-4.1943,0.0,0.0,0.0,0.0,0.0,0.0,0.0,0.0,0.0,0.0,0.0,0.0,0.0,0.0,0.0,0.0,0.0,0.0,0.0,0.0,0.0,0.0,0.0,0.0,0.0,0.0,0.0,0.0,0.0,0.0,0.0,0.0,0.0,0.0,0.0,0.0,0.0,0.0,0.0,0.0,0.0,0.0,0.0,0.0,0.0,0.0,0.0,0.0,0.0,0.0,0.0,0.0,0.0,0.0,0.0,-3.8581,-3.861,-3.9609,-4.1692,-4.2222,-4.2654,-4.2957,-4.2152,-4.0614,0.0,0.0,0.0,0.0,0.0,0.0,0.0,0.0,0.0,0.0,0.0,0.0,0.0,0.0,0.0,0.0,0.0,0.0,0.0,0.0,0.0,0.0,0.0,0.0,0.0,0.0,0.0,0.0,0.0,0.0,0.0,0.0,0.0,0.0,0.0,0.0,0.0,0.0,0.0,0.0,-4.7547,-4.8466,-5.0094,0.0,0.0,0.0,0.0,0.0,0.0,-4.402,-4.3222,0.0,0.0,0.0,0.0,0.0,0.0,0.0,0.0,0.0,0.0,0.0,0.0,0.0,0.0,0.0,0.0,0.0,0.0,0.0,0.0,0.0,0.0,0.0,0.0,0.0,0.0,0.0,0.0,0.0,0.0,0.0,0.0,0.0,0.0,0.0,0.0,0.0,0.0,0.0,0.0,0.0,0.0,0.0,0.0,0.0,0.0,0.0,0.0,0.0,0.0,0.0,0.0,0.0,0.0,0.0,-3.8043,-3.8951,-4.0273,-4.203,-4.1909,-4.2114,-4.2748,-4.1313,-3.9711,0.0,0.0,0.0,0.0,0.0,0.0,0.0,0.0,0.0,0.0,0.0,0.0,0.0,0.0,0.0,0.0,0.0,0.0,0.0,0.0,0.0,0.0,0.0,0.0,0.0,0.0,0.0,0.0,0.0,0.0,0.0,0.0,0.0,0.0,0.0,0.0,0.0,0.0,0.0,0.0,0.0,-4.9525,-5.1223,-4.9529,0.0,0.0,0.0,0.0,-4.5463,-4.554,0.0,0.0,0.0,0.0,0.0,0.0,0.0,0.0,0.0,0.0,0.0,0.0,0.0,0.0,0.0,0.0,0.0,0.0,0.0,0.0,0.0,0.0,0.0,0.0,0.0,0.0,0.0,0.0,0.0,0.0,0.0,0.0,0.0,0.0,0.0,0.0,0.0,0.0,0.0,0.0,0.0,0.0,0.0,0.0,0.0,0.0,0.0,0.0,0.0,0.0,0.0,0.0,0.0,0.0,0.0,0.0,-3.7982,-3.7778,-3.8808,-4.1093,-4.11,-4.1361,-4.2086,-4.1673,-4.0453,0.0,0.0,0.0,0.0,0.0,0.0,0.0,0.0,0.0,0.0,0.0,0.0,0.0,0.0,0.0,0.0,0.0,0.0,0.0,0.0,0.0,0.0,0.0,0.0,0.0,0.0,0.0,0.0,0.0,0.0,0.0,0.0,0.0,0.0,0.0,0.0,0.0,0.0,0.0,0.0,0.0,-5.2947,-4.9581,-4.9991,-4.9801,0.0,0.0,-4.765,-4.8092,-4.8522,0.0,0.0,0.0,0.0,0.0,0.0,0.0,0.0,0.0,0.0,0.0,0.0,0.0,0.0,0.0,0.0,0.0,0.0,0.0,0.0,0.0,0.0,0.0,0.0,0.0,0.0,0.0,0.0,0.0,0.0,0.0,0.0,0.0,0.0,0.0,0.0,0.0,0.0,0.0,0.0,0.0,0.0,0.0,0.0,0.0,0.0,0.0,0.0,0.0,0.0,0.0,0.0,0.0,0.0,0.0,-3.6103,-3.7347,-3.8261,-3.9253,-4.0391,-4.0759,-4.1078,-4.1365,-4.0726,-3.9637,0.0,0.0,0.0,0.0,0.0,0.0,0.0,0.0,0.0,0.0,0.0,0.0,0.0,0.0,0.0,0.0,0.0,0.0,0.0,0.0,0.0,0.0,0.0,0.0,0.0,0.0,0.0,0.0,0.0,0.0,0.0,0.0,0.0,0.0,0.0,0.0,0.0,0.0,0.0,0.0,0.0,0.0,-5.0893,-5.0572,0.0,0.0,0.0,-4.8766,-4.828,0.0,0.0,0.0,0.0,0.0,0.0,0.0,0.0,0.0,0.0,0.0,0.0,0.0,0.0,0.0,0.0,0.0,0.0,0.0,0.0,0.0,0.0,0.0,0.0,0.0,0.0,0.0,0.0,0.0,0.0,0.0,0.0,0.0,0.0,0.0,0.0,0.0,0.0,0.0,0.0,0.0,0.0,0.0,0.0,0.0,0.0,0.0,0.0,0.0,0.0,0.0,0.0,0.0,0.0,0.0,0.0,0.0,-3.6797,-3.8567,-3.9615,-3.9881,-4.0426,-4.0798,-4.092,-4.0198,0.0,0.0,0.0,0.0,0.0,0.0,0.0,0.0,0.0,0.0,0.0,0.0,0.0,0.0,0.0,0.0,0.0,0.0,0.0,0.0,0.0,0.0,0.0,0.0,0.0,0.0,0.0,-3.6492,0.0,0.0,0.0,0.0,0.0,0.0,0.0,0.0,0.0,0.0,0.0,0.0,0.0,0.0,-4.9622,-5.1317,-5.1113,-5.083,0.0,0.0,-4.9856,-4.8712,-4.9736,-4.9366,0.0,0.0,0.0,0.0,0.0,0.0,0.0,0.0,0.0,0.0,0.0,0.0,0.0,0.0,0.0,0.0,0.0,0.0,0.0,0.0,0.0,0.0,0.0,0.0,0.0,0.0,0.0,0.0,0.0,0.0,0.0,0.0,0.0,0.0,0.0,0.0,0.0,0.0,0.0,0.0,0.0,0.0,0.0,0.0,0.0,0.0,0.0,0.0,0.0,0.0,0.0,0.0,0.0,0.0,0.0,-3.6704,-3.7935,-3.9002,-3.9768,-3.9918,-4.0292,-4.096,-4.0855,-3.9941,0.0,0.0,0.0,0.0,0.0,0.0,0.0,0.0,0.0,0.0,0.0,0.0,0.0,0.0,0.0,0.0,0.0,0.0,0.0,0.0,0.0,0.0,0.0,0.0,0.0,0.0,0.0,0.0,0.0,0.0,0.0,0.0,0.0,0.0,0.0,0.0,0.0,0.0,0.0,0.0,0.0,-4.9669,-4.9045,-5.1526,-5.2871,0.0,0.0,-5.1412,-5.0471,-5.1493,-5.1006,-4.6843,0.0,0.0,0.0,0.0,0.0,0.0,0.0,0.0,0.0,0.0,0.0,0.0,0.0,0.0,0.0,0.0,0.0,0.0,0.0,0.0,0.0,0.0,0.0,0.0,0.0,0.0,0.0,0.0,0.0,0.0,0.0,0.0,0.0,0.0,0.0,0.0,0.0,0.0,0.0,0.0,0.0,0.0,0.0,0.0,0.0,0.0,0.0,0.0,0.0,0.0,0.0,0.0,0.0,-3.601,-3.5921,-3.8153,-3.8963,-3.8318,-3.9283,-3.9741,-3.9512,-4.0454,-3.9878,0.0,0.0,0.0,0.0,0.0,0.0,0.0,0.0,0.0,0.0,0.0,0.0,0.0,0.0,0.0,0.0,0.0,0.0,0.0,0.0,0.0,0.0,0.0,0.0,0.0,0.0,0.0,0.0,-3.8552,-3.876,-3.9276,0.0,0.0,0.0,0.0,0.0,0.0,0.0,0.0,0.0,0.0,-4.9318,-4.9538,-5.1086,0.0,0.0,-5.1347,-5.1332,-5.0937,-5.074,-4.9738,-4.7097,-4.5792,0.0,0.0,0.0,0.0,0.0,0.0,0.0,0.0,0.0,0.0,0.0,0.0,0.0,0.0,0.0,0.0,0.0,0.0,0.0,0.0,0.0,0.0,0.0,0.0,0.0,0.0,0.0,0.0,0.0,0.0,0.0,0.0,0.0,0.0,0.0,0.0,0.0,0.0,0.0,0.0,0.0,0.0,0.0,0.0,0.0,0.0,0.0,0.0,0.0,0.0,0.0,0.0,-3.5958,-3.5415,-3.7797,-3.8439,-3.731,-3.8427,-3.9,-3.8989,-4.0039,-3.9626,0.0,0.0,0.0,0.0,0.0,0.0,0.0,0.0,0.0,0.0,0.0,0.0,0.0,0.0,0.0,0.0,0.0,0.0,0.0,0.0,0.0,0.0,0.0,0.0,0.0,0.0,0.0,0.0,-3.9178,-3.8964,-3.9312,0.0,0.0,0.0,0.0,0.0,0.0,0.0,0.0,0.0,0.0,-4.846,-4.955,-5.0401,-5.0809,-5.0515,-5.0675,-5.0728,-5.0427,-4.9717,-4.8706,-4.7287,0.0,0.0,0.0,0.0,0.0,0.0,0.0,0.0,0.0,0.0,0.0,0.0,0.0,0.0,0.0,0.0,0.0,0.0,0.0,0.0,0.0,0.0,0.0,0.0,0.0,0.0,0.0,0.0,0.0,0.0,-3.372,0.0,0.0,0.0,0.0,0.0,0.0,0.0,0.0,0.0,0.0,0.0,0.0,0.0,0.0,0.0,0.0,0.0,0.0,0.0,0.0,0.0,0.0,-3.5367,-3.5424,-3.6674,-3.7235,-3.7184,-3.7232,-3.8057,-3.9598,-3.9755,-3.9315,-3.8376,0.0,0.0,0.0,0.0,0.0,0.0,0.0,0.0,0.0,0.0,0.0,0.0,0.0,0.0,0.0,0.0,0.0,0.0,0.0,0.0,0.0,0.0,0.0,0.0,0.0,0.0,-4.2045,-4.0524,-3.9089,0.0,0.0,0.0,0.0,0.0,0.0,0.0,0.0,0.0,0.0,-4.5789,-4.6969,-4.8608,-4.9586,-4.9819,-4.8939,-4.95,-4.9746,-4.8922,-4.8734,-4.8418,0.0,0.0,0.0,0.0,0.0,0.0,0.0,0.0,0.0,0.0,0.0,0.0,0.0,0.0,0.0,0.0,0.0,0.0,0.0,0.0,0.0,0.0,0.0,0.0,0.0,0.0,0.0,-3.8002,-3.5688,0.0,0.0,0.0,0.0,0.0,0.0,0.0,0.0,0.0,0.0,0.0,-3.8291,-3.9719,0.0,0.0,0.0,0.0,0.0,0.0,0.0,0.0,0.0,0.0,0.0,0.0,-3.5288,-3.5462,-3.6488,-3.6823,-3.6377,-3.6891,-3.723,-3.7312,-3.889,-3.9366,-3.8487,0.0,0.0,0.0,0.0,0.0,0.0,0.0,0.0,0.0,0.0,0.0,0.0,0.0,0.0,0.0,0.0,0.0,0.0,0.0,0.0,0.0,0.0,0.0,0.0,0.0,-3.9416,0.0,0.0,0.0,0.0,0.0,0.0,0.0,0.0,0.0,0.0,0.0,-4.3824,-4.5623,-4.6614,-4.7585,-4.8712,-4.9056,-4.91,0.0,0.0,0.0,0.0,0.0,0.0,0.0,0.0,0.0,0.0,0.0,0.0,0.0,0.0,-4.7307,-4.4751,-4.3976,-4.3594,-4.3338,0.0,0.0,0.0,0.0,0.0,0.0,0.0,0.0,0.0,0.0,0.0,0.0,0.0,0.0,-3.8396,0.0,-3.7442,0.0,0.0,0.0,0.0,0.0,0.0,0.0,0.0,-3.9229,-3.9932,-3.9297,-4.0793,-4.0969,0.0,-4.0038,-3.9578,0.0,0.0,0.0,0.0,0.0,0.0,0.0,0.0,-3.52,-3.5366,-3.6054,-3.6217,-3.5776,-3.6345,-3.6534,-3.6369,-3.8237,-3.9026,-3.848,-3.7361,-3.6216,0.0,0.0,0.0,0.0,0.0,0.0,0.0,0.0,0.0,0.0,0.0,0.0,0.0,0.0,0.0,0.0,0.0,0.0,0.0,0.0,0.0,0.0,0.0,-3.8592,0.0,0.0,0.0,0.0,0.0,0.0,0.0,0.0,0.0,-4.2185,-4.3273,-4.4483,-4.5683,-4.6598,-4.7358,-4.7924,0.0,0.0,0.0,0.0,0.0,0.0,0.0,-4.7017,-4.7017,-4.6585,-4.6234,-4.6234,-4.6718,-4.7084,-4.7084,0.0,0.0,-4.5718,-4.5082,-4.4783,-4.4783,-4.4515,-4.4278,-4.4217,-4.4142,-4.3563,0.0,0.0,0.0,0.0,0.0,0.0,0.0,0.0,-3.8172,-3.811,0.0,-3.8099,0.0,0.0,0.0,0.0,0.0,-3.6985,0.0,0.0,-4.0081,-4.1108,-4.0502,-4.146,-4.2149,-4.2456,-4.1942,-4.1088,-3.9773,-3.8041,0.0,0.0,0.0,0.0,0.0,0.0,-3.5092,-3.5246,-3.5417,-3.5431,-3.5469,-3.5549,-3.6037,-3.6924,-3.7826,-3.8372,-3.8434,-3.8326,-3.7548,-3.5893,-3.5785,0.0,0.0,0.0,0.0,0.0,0.0,0.0,0.0,0.0,0.0,0.0,0.0,0.0,0.0,0.0,0.0,0.0,0.0,0.0,0.0,-3.9505,0.0,0.0,0.0,0.0,0.0,0.0,0.0,0.0,0.0,0.0,-4.2179,-4.3694,-4.4855,-4.5038,0.0,0.0,0.0,0.0,-4.6302,-4.634,-4.6321,-4.6321,-4.6321,-4.6316,-4.6312,-4.6312,0.0,0.0,-4.6302,-4.6308,-4.6332,-4.6293,-4.6356,-4.6806,-4.8314,-4.7727,-4.7219,-4.7216,-4.6456,-4.6002,-4.5867,-4.5473,-4.4946,-4.0901,0.0,0.0,0.0,0.0,-3.8316,-3.8595,-3.9425,-3.9162,-3.8594,-3.7876,-3.8084,0.0,0.0,0.0,0.0,0.0,0.0,-3.8266,-3.8634,-3.9547,-4.0147,-4.0463,-4.0222,-4.0132,-4.0258,-4.0367,-3.9893,-3.8888,-3.798,-3.6867,-3.5533,0.0,0.0,0.0,0.0,-3.5693,-3.5961,-3.5971,-3.6078,-3.6312,-3.577,-3.6228,-3.7804,-3.8132,-3.8573,-3.909,-3.7967,-3.7065,-3.6449,-3.4773,0.0,0.0,0.0,0.0,0.0,0.0,0.0,0.0,0.0,0.0,0.0,0.0,0.0,0.0,0.0,0.0,0.0,0.0,0.0,-3.8477,-3.7475,-3.7021,0.0,0.0,0.0,0.0,0.0,0.0,0.0,0.0,0.0,-4.2147,-4.361,-4.4998,0.0,0.0,-4.6213,-4.6288,-4.6289,-4.6288,-4.6306,0.0,0.0,0.0,-4.6301,-4.63,-4.63,-4.6299,-4.6297,-4.6297,-4.6299,-4.63,-4.628,-4.6301,-4.6476,-4.6864,-4.6818,-4.6614,-4.655,-4.5927,-4.5342,-4.5204,-4.4289,-4.3,-4.1432,-4.0642,-3.9241,-3.8748,-3.8848,-3.8363,-3.8714,-3.9604,-3.9412,-3.9071,-3.864,-3.8877,-3.7832,-3.5912,-3.5225,0.0,0.0,0.0,-3.7982,-3.8597,-3.8889,-3.9294,-3.9696,-3.9367,-3.9182,-3.9203,-3.9141,-3.8856,-3.8321,-3.7826,-3.6777,-3.529,0.0,0.0,-3.489,-3.512,-3.5523,-3.6073,-3.6054,-3.615,-3.643,-3.6316,-3.6974,-3.8406,-3.8524,-3.8865,-3.9557,-3.8654,-3.7814,-3.7126,-3.5698,-3.4487,0.0,0.0,0.0,0.0,0.0,0.0,0.0,0.0,0.0,0.0,0.0,-3.5675,-3.6157,0.0,0.0,0.0,-3.5765,-3.6642,-3.7237,-3.6399,0.0,0.0,0.0,0.0,0.0,0.0,0.0,-4.0964,-4.1844,-4.2266,-4.1947,-4.315,-4.4427,-4.5416,-4.582,-4.6061,-4.6191,0.0,-4.6245,-4.6289,-4.6289,-4.6288,-4.6306,-4.6305,-4.6206,-4.5833,-4.6087,-4.5989,-4.5364,-4.5541,-4.5659,-4.5366,-4.527,-4.5271,-4.5271,-4.5271,-4.5387,-4.5674,-4.5088,-4.4425,-4.4051,-4.3047,-4.1944,-4.1551,-4.1371,-4.018,-3.9222,-3.8489,-3.8424,-3.8492,-3.8616,-3.9125,-3.9401,-3.9516,-3.9952,-3.9353,-3.7855,-3.6173,0.0,-3.6711,-3.6853,-3.7115,-3.7442,-3.8136,-3.8469,-3.8469,-3.8682,-3.8773,-3.8773,-3.8213,-3.791,-3.7825,-3.7434,-3.6397,-3.4889,-3.4749,-3.4879,-3.5182,-3.4698,-3.4902,-3.5852,-3.5882,-3.5942,-3.6109,-3.7043,-3.7985,-3.8842,-3.887,-3.9185,-3.984,-3.9795,-3.9126,-3.7742,-3.7544,-3.6423,-3.4192,0.0,0.0,0.0,0.0,0.0,0.0,0.0,0.0,0.0,0.0,0.0,0.0,0.0,0.0,0.0,-3.3619,0.0,-3.6037,-3.6008,0.0,0.0,0.0,-3.7473,-3.8477,-3.8422,-3.8723,-3.9772,0.0,0.0,-4.1458,0.0,-4.3327,-4.4327,-4.52,-4.5784,-4.5858,-4.5794,-4.5896,-4.5951,-4.6052,-4.6073,-4.5898,-4.5937,-4.5702,-4.5036,-4.5562,-4.5427,-4.4176,-4.4218,-4.4394,-4.3788,-4.3574,-4.3496,-4.3496,-4.3418,-4.3633,-4.4332,-4.3959,-4.3236,-4.2395,-4.1887,-4.1137,-4.1135,-4.033,-3.9779,-3.9418,-3.9185,-3.8634,-3.8436,-3.8448,-3.8572,-3.8639,-3.8711,-3.8816,-3.8335,-3.739,-3.6183,-3.5744,-3.5991,-3.6857,-3.7057,-3.6702,-3.7098,-3.7302,-3.7308,-3.7047,-3.692,-3.692,-3.6811,-3.6451,-3.5896,-3.5786,-3.5018,-3.3702,-3.3757,-3.4101,-3.4677,-3.4756,-3.5296,-3.6309,-3.6534,-3.6686,-3.6784,-3.7103,-3.7719,-3.8565,-3.8707,-3.9058,-3.97,-3.8565,-3.773,-3.7227,-3.5514,-3.3957,-3.275,-3.2603,0.0,0.0,0.0,0.0,0.0,0.0,0.0,0.0,0.0,-3.5656,-3.5029,0.0,-3.5913,0.0,-3.2893,-3.3715,-3.6698,-3.5228,0.0,0.0,-3.7001,-3.7047,-3.9094,-3.8761,-3.8482,-3.8745,-3.9545,-3.9937,-3.9528,-4.0778,-4.1904,-4.2375,-4.353,-4.4284,-4.4093,-4.3708,-4.369,-4.4144,-4.4341,-4.4312,-4.4332,-4.4314,-4.4236,-4.4041,-4.4151,-4.4088,-4.3749,-4.3204,-4.2817,-4.2674,-4.2143,-4.1788,-4.1698,-4.1229,-4.0897,-4.1113,-4.1445,-4.1542,-4.0662,-3.9467,-3.8346,-4.0816,-4.0196,-3.939,-3.9068,-3.9015,-3.8264,-3.8033,-3.816,-3.8177,-3.8177,-3.816,-3.8033,-3.7809,-3.7484,-3.6174,-3.5737,-3.6013,-3.6009,-3.59,-3.5726,-3.5996,-3.6151,-3.6157,-3.6103,-3.6088,-3.6071,-3.5893,-3.5594,-3.5197,-3.4869,-3.4135,-3.3091,-3.317,-3.3477,-3.3906,-3.4029,-3.4692,-3.5985,-3.6426,-3.7035,-3.784,-3.7768,-3.8048,-3.8804,-3.8577,-3.8584,-3.8882,-3.8025,-3.7225,-3.6447,-3.5165,-3.3893,-3.2718,-3.2402,-3.1853,0.0,0.0,0.0,0.0,0.0,0.0,0.0,0.0,0.0,0.0,0.0,-3.5147,0.0,-3.3203,-3.3653,-3.6665,-3.5322,-3.5138,-3.7305,-3.6701,-3.6658,-3.8022,-3.7754,-3.7511,-3.7633,-3.8056,-3.8297,-3.81,-3.8884,-3.9546,-3.9794,-4.0523,-4.1475,-4.2493,-4.2529,-4.2513,-4.2864,-4.329,-4.3407,-4.3082,-4.2676,-4.2327,-4.1993,-4.2169,-4.2183,-4.1447,-4.1181,-4.097,-4.061,-3.9911,-3.9364,-3.9341,-3.8724,-3.8082,-3.7732,-3.7948,-3.8222,-3.8164,-3.7109,-3.6053,-4.0387,-4.0134,-3.8919,-3.8337,-3.8195,-3.7566,-3.7506,-3.7828,-3.7857,-3.778,-3.7684,-3.7313,-3.7343,-3.7588,-3.5994,-3.5628,-3.6161,-3.4906,-3.4423,-3.4633,-3.4887,-3.5062,-3.5108,-3.5498,-3.5649,-3.5591,-3.524,-3.4974,-3.4809,-3.4209,-3.3522,-3.2783,-3.2766,-3.2912,-3.3133,-3.2957,-3.3635,-3.5218,-3.5875,-3.7006,-3.8633,-3.8378,-3.845,-3.8891,-3.8276,-3.7827,-3.7659,-3.7566,-3.6909,-3.5652,-3.5447,-3.4743,-3.337,-3.266,-3.2248,0.0,-3.1594,0.0,0.0,0.0,0.0,0.0,0.0,0.0,0.0,-3.3601,-3.3862,-3.544,-3.3957,-3.3806,-3.5955,-3.5531,-3.5444,-3.62,-3.615,-3.6127,-3.6348,-3.6254,-3.6233,-3.6467,-3.6489,-3.6572,-3.6863,-3.6944,-3.707,-3.7518,-3.7557,-3.8322,-4.0383,-4.1106,-4.1366,-4.1567,-4.2138,-4.1864,-4.1333,-4.0772,-4.0117,-3.9546,-3.9863,-3.9847,-3.853,-3.8571,-3.8641,-3.793,-3.718,-3.6699,-3.669,-3.6133,-3.5461,-3.4859,-3.4586,-3.4685,-3.5429,-3.5176,-3.4316,-3.9239,-3.8451,-3.7918,-3.7374,-3.6879,-3.6724,-3.6983,-3.7506,-3.749,-3.7173,-3.6648,-3.6039,-3.6131,-3.654,-3.5138,-3.4908,-3.5554,-3.4695,-3.4022,-3.3601,-3.3926,-3.4202,-3.4497,-3.484,-3.4827,-3.451,-3.4425,-3.3867,-3.2926,-3.279,-3.2481,-3.2024,-3.2007,-3.2319,-3.2891,0.0,0.0,0.0,-3.5169,-3.6043,-3.7031,-3.757,-3.7586,-3.7132,-3.6969,0.0,-3.6344,-3.5736,-3.5372,-3.5332,-3.4685,0.0,0.0,0.0,0.0,0.0,0.0,0.0,0.0,0.0,0.0,0.0,-3.3438,-3.3155,-3.3981,-3.3876,-3.4195,-3.5203,-3.4284,-3.3818,-3.4313,-3.4218,-3.4417,-3.5152,-3.4697,-3.4807,-3.6074,-3.5679,-3.5271,-3.5326,-3.5317,-3.542,-3.5603,-3.5739,-3.6052,-3.6723,-3.6513,-3.6157,-3.6231,-3.7774,-3.8756,-3.8822,-3.8685,-3.8237,-3.7996,-3.7856,-3.7658,-3.7526,-3.754,-3.7516,-3.7168,-3.5999,-3.5359,-3.5219,-3.4469,-3.396,-3.405,-3.3895,-3.3748,-3.3658,-3.2568,-3.2083,-3.3532,-3.3767,-3.3591,-3.7585,0.0,-3.6821,-3.6563,0.0,-3.6492,-3.6662,-3.6952,-3.7119,-3.6817,-3.6111,-3.5308,-3.5227,-3.5577,-3.4401,-3.4163,-3.4616,-3.3928,-3.3426,-3.3139,-3.3408,-3.3668,-3.3838,-3.4161,-3.4014,-3.3531,-3.3427,-3.2937,-3.2034,-3.1749,-3.1594,-3.1559,-3.1542,-3.1823,-3.2334,-3.199,-3.2439,-3.3702,-3.4246,-3.5114,-3.6325,-3.6121,-3.617,-3.6547,0.0,0.0,0.0,0.0,0.0,0.0,0.0,0.0,0.0,0.0,0.0,-3.3166,-3.3166,-3.3133,-3.3121,-3.327,-3.3165,-3.2672,-3.1962,-3.2006,-3.3211,-3.3647,-3.3887,-3.395,-3.3498,-3.3067,-3.2702,-3.2621,-3.2779,-3.3146,-3.2852,-3.3091,-3.4032,-3.4018,-3.3775,-3.367,-3.3725,-3.3732,-3.3456,-3.3432,-3.3685,-3.4285,-3.4109,-3.3784,-3.3734,-3.5244,-3.6546,-3.6696,-3.6086,-3.559,-3.5519,-3.5157,-3.4949,-3.4914,-3.4907,-3.4882,-3.4916,-3.4139,-3.3537,-3.3581,-3.2967,-3.2435,-3.2462,-3.2214,-3.1863,-3.1473,-3.0761,-3.0217,-3.0798,-3.1174,-3.152,-3.6093,-3.6343,-3.5817,-3.5816,-3.6226,-3.6226,-3.6289,-3.6383,0.0,0.0,0.0,-3.4623,-3.4421,-3.4574,-3.3651,-3.3432,-3.3761,-3.3096,-3.2816,-3.2827,-3.3043,-3.3082,-3.3024,-3.3316,-3.3056,-3.2353,-3.2229,-3.1852,-3.1252,-3.0846,-3.0825,-3.1123,-3.1181,-3.1353,-3.1615,-3.1671,-3.2076,-3.285,-3.3282,-3.4182,-3.5526,-3.4689,-3.4735,-3.5914,-3.4664,-3.3945,-3.385,-3.3866,-3.3577,-3.2983,-3.2983,-3.297,-3.284,-3.2811,-3.2693,-3.2471,-3.2471,-3.2385,-3.2212,-3.2243,-3.1957,-3.1253,-3.0647,-3.0858,-3.2208,-3.2902,-3.3043,-3.2405,-3.2381,-3.2118,-3.147,-3.1403,-3.1384,-3.139,-3.1365,-3.1528,-3.1934,-3.209,-3.2168,-3.2039,-3.2216,-3.2091,-3.1574,-3.1513,-3.1458,-3.1679,-3.1941,-3.1697,-3.2018,-3.343,-3.468,-3.4848,-3.4241,-3.3676,-3.3566,-3.3184,-3.2626,-3.2756,-3.2685,-3.2588,-3.2588,-3.2453,-3.2319,-3.2007,-3.1608,-3.1196,-3.0993,-3.0513,-2.9912,-2.9269,-2.9023,-2.8771,-2.832,-2.8591,-2.9161,-3.5592,-3.5141,-3.5052,-3.5055,-3.5106,-3.5106,-3.5382,-3.5817,-3.5738,-3.4995,-3.3748,-3.3627,-3.3581,-3.3563,-3.2857,-3.2887,-3.3409,-3.2761,-3.2468,0.0,-3.2508,-3.2334,-3.2029,-3.2066,-3.1546,-3.0608,-3.0545,-3.0309,-2.995,-3.0044,-3.0288,-3.0584,-3.0767,-3.0905,-3.0965,-3.1237,-3.1423,-3.1581,-3.2504,-3.3123,-3.3367,-3.3857,-3.3876,-3.3425,-3.3235,-3.2911,-3.2596,-3.2578,-3.2627,-3.275,-3.3012,-3.2998,-3.2584,-3.2404,-3.2022,-3.1235,-3.1165,-3.0886,-3.0289,-3.049,-3.0592,-3.0485,-3.0346,-3.0558,-3.1088,-3.1238,-3.1352,-3.1453,-3.1517,-3.1544,-3.1403,-3.1304,-3.1224,-3.1228,-3.1117,-3.107,-3.1007,-3.0876,-3.0812,-3.1012,-3.1139,-3.1206,-3.1154,-3.1174,-3.115,-3.1304,-3.1152,-3.1151,-3.0889,-3.194,-3.2844,-3.3019,-3.2483,-3.2025,-3.1999,-3.189,-3.1749,-3.1756,-3.1749,-3.1711,-3.1654,-3.1148,-3.0516,-2.9723,-2.9589,-2.9258,-2.8733,-2.8367,-2.8335,-2.8187,-2.7732,-2.7364,-2.7701,-2.754,-2.7443,-3.4495,-3.4457,-3.4491,-3.4658,-3.4924,-3.4924,-3.4815,-3.4703,-3.4312,-3.4106,-3.3937,-3.3183,-3.2859,-3.2829,-3.2536,-3.2552,-3.2829,-3.2536,-3.2398,-3.2398,-3.2398,-3.2125,-3.1615,-3.1568,-3.0949,-2.9831,-2.9915,-2.9493,-2.8722,-2.9217,-2.949,-2.9531,-3.0116,-3.0423,-3.0444,-3.0588,-3.0633,-3.067,-3.1735,-3.2507,-3.2886,-3.2794,-3.2792,-3.2827,-3.2408,-3.2051,-3.1856,-3.1477,-3.1341,-3.1446,-3.148,-3.1288,-3.0785,-3.0924,-3.0715,-3.0093,-3.0024,-2.9851,-2.9438,-2.9125,-2.8983,-2.9015,-2.8616,-2.8516,-2.893,-2.9964,-3.0442,-3.0156,-3.0139,-2.9972,-2.9562,-2.9507,-2.9494,-2.9454,-2.9358,-2.9293,-2.923,-2.9525,-2.9529,-2.9244,-2.9587,-2.9871,-2.9694,-2.9665,-2.9748,-2.9885,-2.9941,-2.9593,-2.8685,-2.9351,-3.0329,-3.0988,-3.0906,-3.0767,-3.0793,-3.084,-3.0833,-3.0833,-3.084,-3.0642,-3.029,-2.9729,-2.9238,-2.8498,-2.8307,-2.8165,-2.7786,-2.7797,-2.7642,-2.7181,-2.6935,-2.6718,-2.6515,-2.6159,-2.6338,-3.3556,-3.3914,-3.3928,-3.4153,-3.4558,-3.4677,-3.4416,-3.3903,-3.3282,-3.3424,-3.3907,-3.2686,-3.2148,-3.2216,-3.2216,-3.2299,-3.2398,-3.2398,-3.2321,-3.2167,-3.2167,-3.1763,-3.1012,-3.0936,-3.032,-2.9304,-2.9379,-2.8839,-2.7836,-2.8403,-2.8684,-2.8591,-2.9405,-2.9876,-2.9892,-2.994,-2.9983,-3.0031,-3.0948,-3.1684,-3.2212,-3.1606,-3.1538,-3.201,-3.1455,-3.1045,-3.0986,-3.0459,-3.0133,-3.0116,-3.0001,-2.971,-2.9278,-2.9192,-2.9107,-2.897,-2.897,-2.8765,-2.832,-2.7707,-2.7266,-2.7199,-2.6605,-2.6347,-2.6749,-2.8074,-2.8996,-2.8818,-2.8855,-2.8592,-2.8149,-2.7979,-2.7826,-2.7671,-2.7575,-2.7448,-2.7259,-2.771,-2.7862,-2.7195,-2.7842,-2.828,-2.8058,-2.8103,-2.8349,-2.859,-2.8481,-2.7934,-2.7079,-2.7293,-2.803,-2.8809,-2.9255,-2.9322,-2.9508,-2.9577,-2.9572,-2.9598,-2.9579,-2.9292,-2.8808,-2.8617,-2.828,-2.7625,-2.7402,-2.7262,-2.7191,-2.7088,-2.6812,-2.6329,-2.6148,-2.5965,-2.5485,-2.539,-2.5557,-3.3312,-3.3382,-3.3382,-3.3396,-3.3528,-3.3982,-3.4129,-3.3931,-3.3299,-3.3022,-3.2982,-3.1708,-3.1379,-3.1739,-3.1796,-3.2035,-3.2398,-3.2398,-3.2117,-3.1567,-3.1474,-3.0828,-2.974,-2.9643,-2.9212,-2.8581,-2.8583,-2.8213,-2.7496,-2.7705,-2.7955,-2.8218,-2.8842,-2.9213,-2.922,-2.9489,-2.9613,-2.9651,-3.0048,-3.0276,-3.0363,-3.0293,-3.0162,-2.9956,-2.9906,-2.9743,-2.9568,-2.9434,-2.9347,-2.9241,-2.9293,-2.924,-2.8909,-2.7759,-2.7286,-2.7858,-2.7927,-2.7368,-2.6116,-2.5845,-2.5558,-2.4897,-2.4862,-2.481,-2.4839,-2.5004,-2.5924,-2.7321,-2.7925,-2.7837,-2.7915,-2.7798,-2.7406,-2.6767,-2.6556,-2.6179,-2.5605,-2.5136,-2.5092,-2.5429,-2.6124,-2.6557,-2.6911,-2.7458,-2.7809,-2.7609,-2.7503,-2.7167,-2.6664,-2.655,-2.653,-2.695,-2.7275,-2.7552,-2.7698,-2.7747,-2.8025,-2.797,-2.7901,-2.787,-2.7795,-2.7675,-2.7452,-2.674,-2.6511,-2.6301,-2.5816,-2.544,-2.5541,-2.5591,-2.5476,-2.5337,-2.5208,-2.5241,-2.5449,-3.3276,-3.3276,-3.3276,-3.3115,-3.2882,-3.3372,-3.3419,-3.3027,-3.2401,-3.2098,-3.194,-3.0733,-3.0732,-3.1695,-3.1979,-3.2231,-3.2382,-3.2398,-3.2259,-3.1951,-3.1582,-3.0905,-3.0017,-2.9556,-2.9058,-2.8458,-2.8411,-2.8033,-2.7527,-2.7473,-2.7791,-2.8249,-2.8568,-2.8668,-2.8692,-2.8803,-2.8897,-2.8865,-2.8633,-2.8519,-2.857,-2.9092,-2.9149,-2.8705,-2.8813,-2.8887,-2.8757,-2.8535,-2.8387,-2.8301,-2.7979,-2.7725,-2.7656,-2.7044,-2.6639,-2.6505,-2.6082,-2.5608,-2.4982,-2.4949,-2.4829,-2.4508,-2.4508,-2.4508,-2.4508,-2.4508,-2.4931,-2.5635,-2.5863,-2.5895,-2.5927,-2.591,-2.5742,-2.5454,-2.5313,-2.5199,-2.5195,-2.4791,-2.4528,-2.4447,-2.4853,-2.5517,-2.6263,-2.7148,-2.7091,-2.6292,-2.6211,-2.6317,-2.5131,-2.504,-2.5172,-2.494,-2.5149,-2.5937,-2.6756,-2.7167,-2.7274,-2.7381,-2.7422,-2.7369,-2.6915,-2.6834,-2.6555,-2.5787,-2.5711,-2.5602,-2.5303,-2.5156,-2.5156,-2.5168,-2.5168,-2.5162,-2.5205,-2.5184,-2.5259,-3.3276,-3.3276,-3.3276,-3.3038,-3.2679,-3.2932,-3.282,-3.2328,-3.1569,-3.1232,-3.112,-3.0192,-3.0342,-3.1263,-3.168,-3.186,-3.1943,-3.1928,-3.1796,-3.154,-3.1074,-3.0505,-2.9833,-2.9356,-2.8889,-2.8473,-2.8411,-2.8073,-2.7457,-2.7396,-2.7657,-2.8088,-2.8304,-2.8411,-2.8411,-2.8411,-2.8411,-2.8334,-2.775,-2.7319,-2.7218,-2.7628,-2.7727,-2.7401,-2.7568,-2.7695,-2.7616,-2.7326,-2.7153,-2.7153,-2.6719,-2.6351,-2.6117,-2.6199,-2.5965,-2.533,-2.4626,-2.4124,-2.3956,-2.3907,-2.3839,-2.3654,-2.367,-2.367,-2.3638,-2.367,-2.3733,-2.3776,-2.3777,-2.3892,-2.4474,-2.4508,-2.4423,-2.4254,-2.4203,-2.435,-2.4613,-2.4248,-2.3818,-2.3742,-2.4034,-2.4652,-2.5731,-2.6359,-2.6147,-2.524,-2.5342,-2.538,-2.3806,-2.3871,-2.4023,-2.3582,-2.38,-2.4527,-2.5885,-2.6139,-2.6395,-2.667,-2.6645,-2.629,-2.6057,-2.6015,-2.5771,-2.5147,-2.5009,-2.5012,-2.5025,-2.5025,-2.5088,-2.5138,-2.5132,-2.5095,-2.5163,-2.5132,-2.5149,-3.3276,-3.3276,-3.3276,-3.3206,-3.3178,-3.2665,-3.2426,-3.2188,-3.1106,-3.0554,-3.0562,-3.0321,-3.0296,-3.0372,-3.0448,-3.0587,-3.0797,-3.0878,-3.0509,-2.9863,-2.9633,-2.9156,-2.8519,-2.8458,-2.8418,-2.8363,-2.8348,-2.8049,-2.7473,-2.7426,-2.7396,-2.7519,-2.8119,-2.8411,-2.8411,-2.8411,-2.8396,-2.8273,-2.7657,-2.7042,-2.638,-2.5815,-2.5732,-2.5993,-2.6034,-2.5975,-2.5743,-2.5656,-2.5661,-2.5626,-2.5817,-2.5542,-2.4819,-2.4989,-2.4972,-2.4494,-2.3895,-2.321,-2.2639,-2.2541,-2.228,-2.171,-2.1869,-2.1725,-2.1789,-2.1886,-2.2011,-2.1947,-2.2109,-2.2695,-2.3995,-2.4189,-2.4036,-2.3528,-2.3444,-2.3492,-2.3492,-2.3001,-2.2786,-2.3226,-2.3545,-2.4083,-2.5335,-2.5014,-2.5125,-2.495,-2.4553,-2.3867,-2.368,-2.3371,-2.3305,-2.3413,-2.3508,-2.3711,-2.4205,-2.4903,-2.5217,-2.5689,-2.5864,-2.5054,-2.511,-2.5145,-2.4823,-2.4618,-2.4708,-2.479,-2.4851,-2.4926,-2.5012,-2.5063,-2.5063,-2.5063,-2.5107,-2.5095,-2.5114,-3.3276,-3.3248,-3.2904,-3.2525,-3.2145,-3.1907,-3.1583,-3.1162,-3.0694,-3.0484,-3.0403,-3.0058,-2.9851,-2.9851,-2.9837,-3.0227,-3.0863,-3.0773,-3.0588,-3.0336,-2.9729,-2.9353,-2.9163,-2.843,-2.8014,-2.8014,-2.8014,-2.803,-2.8049,-2.8057,-2.8042,-2.8073,-2.8273,-2.8411,-2.8411,-2.8411,-2.8211,-2.7734,-2.7088,-2.6411,-2.5696,-2.5004,-2.4719,-2.487,-2.512,-2.5215,-2.5134,-2.537,-2.5519,-2.5519,-2.5183,-2.5039,-2.5068,-2.4398,-2.3753,-2.3189,-2.2492,-2.1972,-2.1729,-2.1713,-2.16,-2.1356,-2.1372,-2.1373,-2.1324,-2.1356,-2.1434,-2.1479,-2.1478,-2.1898,-2.2315,-2.2834,-2.2987,-2.2784,-2.2702,-2.2704,-2.2651,-2.2448,-2.2415,-2.2767,-2.3424,-2.4051,-2.3834,-2.4443,-2.4712,-2.3714,-2.3498,-2.3349,-2.2965,-2.2823,-2.2884,-2.2985,-2.3151,-2.3466,-2.4106,-2.4574,-2.5037,-2.5635,-2.5843,-2.5551,-2.5495,-2.4892,-2.4509,-2.4444,-2.4508,-2.4572,-2.4639,-2.4685,-2.4801,-2.4891,-2.4898,-2.4938,-2.5057,-2.4999,-2.5037,-3.2918,-3.2679,-3.2286,-3.1864,-3.1485,-3.126,-3.0923,-3.0484,-3.0273,-3.0235,-3.0136,-2.9785,-2.9602,-2.9602,-2.9602,-2.9898,-3.048,-3.0322,-3.0081,-2.9715,-2.9203,-2.8943,-2.8738,-2.7979,-2.756,-2.7575,-2.7575,-2.7775,-2.8137,-2.8048,-2.8122,-2.8372,-2.8275,-2.829,-2.8372,-2.8411,-2.8073,-2.7419,-2.6757,-2.6041,-2.5312,-2.4656,-2.4281,-2.4343,-2.4574,-2.4684,-2.4719,-2.4981,-2.5102,-2.5038,-2.4659,-2.455,-2.4643,-2.3273,-2.2299,-2.1997,-2.1373,-2.0974,-2.0974,-2.0974,-2.0974,-2.0974,-2.099,-2.0974,-2.0991,-2.0974,-2.1023,-2.1103,-2.1135,-2.115,-2.1354,-2.1754,-2.1976,-2.1991,-2.1976,-2.2076,-2.2276,-2.2231,-2.22,-2.2417,-2.3071,-2.3257,-2.2972,-2.3816,-2.3799,-2.2719,-2.2936,-2.2769,-2.2457,-2.2432,-2.2605,-2.2733,-2.3124,-2.3587,-2.4166,-2.4694,-2.5439,-2.6077,-2.6315,-2.6054,-2.5535,-2.4855,-2.4395,-2.4312,-2.4275,-2.4346,-2.4398,-2.4449,-2.454,-2.4662,-2.467,-2.467,-2.4779,-2.4877,-2.4884,-3.2075,-3.1597,-3.1499,-3.1457,-3.1316,-3.0736,-3.0484,-3.0329,-2.9883,-2.9715,-2.9715,-2.9574,-2.9532,-2.9602,-2.9532,-2.9577,-2.9605,-2.9514,-2.8856,-2.7832,-2.8036,-2.79,-2.7465,-2.7229,-2.7111,-2.7097,-2.7097,-2.7342,-2.7725,-2.7444,-2.7595,-2.8152,-2.794,-2.7925,-2.8348,-2.8183,-2.7924,-2.721,-2.652,-2.5882,-2.5296,-2.4541,-2.4198,-2.4261,-2.4302,-2.4323,-2.4338,-2.4364,-2.4405,-2.4369,-2.4287,-2.3968,-2.3188,-2.1706,-2.074,-2.118,-2.0709,-2.04,-2.0339,-2.0375,-2.0409,-2.0392,-2.0356,-2.0407,-2.0441,-2.0407,-2.051,-2.0745,-2.0795,-2.0893,-2.115,-2.1261,-2.1371,-2.1356,-2.1547,-2.1791,-2.2149,-2.2027,-2.1915,-2.2185,-2.2509,-2.2654,-2.2972,-2.303,-2.2847,-2.2962,-2.2693,-2.2386,-2.2347,-2.2437,-2.25,-2.2712,-2.315,-2.3667,-2.4264,-2.491,-2.5791,-2.6511,-2.6598,-2.647,-2.5743,-2.5055,-2.4501,-2.432,-2.4078,-2.4126,-2.4201,-2.4256,-2.431,-2.4398,-2.4389,-2.4432,-2.4559,-2.4654,-2.467,-3.2047,-3.1443,-3.1007,-3.0825,-3.074,-3.015,-2.9883,-2.9883,-2.9673,-2.9602,-2.9532,-2.9167,-2.9195,-2.9434,-2.9181,-2.8984,-2.9029,-2.932,-2.9243,-2.8783,-2.8327,-2.8057,-2.7797,-2.7086,-2.6695,-2.668,-2.668,-2.6904,-2.7199,-2.7148,-2.7276,-2.7418,-2.7393,-2.7393,-2.7504,-2.7086,-2.6542,-2.5899,-2.5279,-2.4635,-2.3984,-2.3729,-2.3711,-2.3925,-2.3967,-2.4051,-2.4281,-2.4281,-2.4281,-2.4302,-2.3871,-2.3102,-2.2101,-2.1781,-2.1368,-2.0718,-2.0888,-2.0751,-2.0349,-2.0287,-2.0287,-2.0287,-2.0304,-2.0287,-2.0287,-2.0302,-2.0371,-2.0458,-2.0458,-2.0526,-2.0595,-2.0613,-2.0985,-2.1892,-2.1989,-2.1956,-2.2118,-2.1793,-2.1543,-2.1682,-2.2242,-2.2486,-2.2214,-2.2129,-2.2527,-2.2326,-2.2109,-2.2051,-2.229,-2.2651,-2.2767,-2.2623,-2.3161,-2.3508,-2.3763,-2.4116,-2.477,-2.5728,-2.6198,-2.6189,-2.5595,-2.5203,-2.4675,-2.4244,-2.4016,-2.3939,-2.4001,-2.405,-2.4117,-2.4155,-2.4183,-2.4265,-2.4372,-2.4424,-2.4458,-3.1569,-3.0769,-3.0347,-3.0178,-3.0119,-2.9757,-2.9602,-2.9602,-2.9602,-2.9602,-2.9518,-2.9209,-2.9237,-2.9476,-2.9195,-2.904,-2.9083,-2.9448,-2.9476,-2.9186,-2.8412,-2.7951,-2.7726,-2.6771,-2.627,-2.6285,-2.6285,-2.6484,-2.6837,-2.6747,-2.6785,-2.7045,-2.6967,-2.6967,-2.7041,-2.671,-2.6194,-2.556,-2.4964,-2.43,-2.374,-2.3415,-2.3392,-2.3581,-2.361,-2.3717,-2.3925,-2.4051,-2.4193,-2.4107,-2.344,-2.2394,-2.1442,-2.1442,-2.1165,-2.0626,-2.0626,-2.0703,-2.0366,-2.0287,-2.0287,-2.0335,-2.0535,-2.0533,-2.0443,-2.0458,-2.0595,-2.0349,-2.0304,-2.0287,-2.0304,-2.0304,-2.0822,-2.1795,-2.1607,-2.1628,-2.1631,-2.1392,-2.123,-2.1404,-2.1885,-2.1869,-2.1708,-2.174,-2.2125,-2.1697,-2.1721,-2.1842,-2.2176,-2.2594,-2.2521,-2.2584,-2.3047,-2.3163,-2.3047,-2.3346,-2.3727,-2.4667,-2.5566,-2.5382,-2.5008,-2.4944,-2.4635,-2.4162,-2.3847,-2.3847,-2.3909,-2.3888,-2.3901,-2.3949,-2.4009,-2.403,-2.4117,-2.4229,-2.4275,-3.0797,-2.9715,-2.9617,-2.9659,-2.9659,-2.9617,-2.9602,-2.9602,-2.9602,-2.956,-2.9518,-2.9406,-2.9462,-2.9518,-2.9364,-2.9392,-2.9588,-2.9434,-2.9209,-2.8689,-2.802,-2.7427,-2.6792,-2.6229,-2.5989,-2.5975,-2.5948,-2.6123,-2.6431,-2.6163,-2.6285,-2.6823,-2.6642,-2.6628,-2.6834,-2.6949,-2.6414,-2.5691,-2.5209,-2.4549,-2.3934,-2.3458,-2.3231,-2.3253,-2.326,-2.3282,-2.3429,-2.3646,-2.3946,-2.4102,-2.3163,-2.2224,-2.1442,-2.0767,-2.0626,-2.0379,-2.035,-2.0412,-2.0333,-2.0287,-2.0349,-2.0489,-2.0888,-2.1057,-2.0595,-2.0872,-2.0903,-2.0397,-2.0379,-2.0379,-2.035,-2.0428,-2.0756,-2.1106,-2.1029,-2.0807,-2.0838,-2.0857,-2.0877,-2.1103,-2.1261,-2.1245,-2.1182,-2.1278,-2.1325,-2.1356,-2.1509,-2.1616,-2.1847,-2.2113,-2.2267,-2.25,-2.2761,-2.2803,-2.2656,-2.2813,-2.3161,-2.3487,-2.434,-2.4335,-2.4284,-2.4342,-2.4343,-2.3925,-2.371,-2.3732,-2.3771,-2.3721,-2.3764,-2.3847,-2.3858,-2.3806,-2.3878,-2.4011,-2.4079,-3.1021,-3.0249,-2.9768,-2.9602,-2.9602,-2.9602,-2.9602,-2.9602,-2.9602,-2.9378,-2.904,-2.8942,-2.8956,-2.8928,-2.8956,-2.9167,-2.9406,-2.9139,-2.8886,-2.8535,-2.7537,-2.675,-2.6231,-2.5992,-2.5893,-2.5893,-2.5921,-2.5934,-2.6042,-2.5975,-2.6056,-2.6177,-2.6192,-2.6123,-2.6188,-2.5871,-2.526,-2.4622,-2.4006,-2.3421,-2.2889,-2.266,-2.2609,-2.2844,-2.2867,-2.3001,-2.3238,-2.3385,-2.3717,-2.4194,-2.3517,-2.2752,-2.2028,-2.172,-2.1165,-2.0505,-2.0703,-2.0764,-2.0428,-2.0318,-2.0535,-2.0965,-2.1288,-2.1211,-2.1073,-2.1196,-2.0965,-2.0566,-2.0687,-2.0841,-2.0518,-2.0734,-2.1103,-2.1227,-2.1052,-2.0983,-2.1027,-2.0736,-2.0477,-2.0578,-2.0795,-2.0811,-2.0729,-2.0795,-2.0926,-2.0958,-2.1055,-2.1198,-2.1466,-2.1867,-2.2133,-2.2019,-2.2152,-2.2255,-2.2325,-2.2433,-2.253,-2.2522,-2.2894,-2.3086,-2.3189,-2.3393,-2.3399,-2.3277,-2.3365,-2.3422,-2.352,-2.3571,-2.3653,-2.37,-2.3721,-2.3689,-2.3764,-2.386,-2.3881,-3.1345,-3.0469,-3.0136,-2.9841,-2.9617,-2.9602,-2.9602,-2.9602,-2.9602,-2.9265,-2.8802,-2.8689,-2.8549,-2.8382,-2.8577,-2.8872,-2.9139,-2.8858,-2.8549,-2.8129,-2.7003,-2.6273,-2.595,-2.5893,-2.5893,-2.5893,-2.5893,-2.5921,-2.5921,-2.5893,-2.5893,-2.5948,-2.5893,-2.5893,-2.5934,-2.5583,-2.5077,-2.45,-2.3853,-2.322,-2.2644,-2.2334,-2.2301,-2.2457,-2.2518,-2.264,-2.283,-2.2994,-2.3252,-2.344,-2.301,-2.2412,-2.1916,-2.1596,-2.1088,-2.0335,-2.0672,-2.0798,-2.0782,-2.0736,-2.1026,-2.1627,-2.1935,-2.1947,-2.1874,-2.1935,-2.1858,-2.1365,-2.155,-2.1488,-2.1257,-2.1273,-2.1354,-2.1457,-2.1255,-2.1158,-2.1285,-2.0705,-2.0366,-2.0339,-2.0458,-2.0543,-2.0321,-2.0477,-2.0544,-2.0611,-2.0745,-2.0909,-2.1119,-2.1601,-2.1875,-2.168,-2.163,-2.1737,-2.1797,-2.1898,-2.2091,-2.2082,-2.2194,-2.2276,-2.2521,-2.2782,-2.2935,-2.3035,-2.3072,-2.3133,-2.3253,-2.3354,-2.3359,-2.3393,-2.3484,-2.3562,-2.3624,-2.3639,-2.366,-3.171,-3.0596,-3.0526,-3.0164,-2.9659,-2.9602,-2.9602,-2.9602,-2.9602,-2.9195,-2.8675,-2.8647,-2.831,-2.7763,-2.8396,-2.8703,-2.8731,-2.8717,-2.8226,-2.7523,-2.6568,-2.5921,-2.5921,-2.5893,-2.5893,-2.5893,-2.5893,-2.5893,-2.5893,-2.5893,-2.5893,-2.5893,-2.5893,-2.5893,-2.5837,-2.5753,-2.5471,-2.4767,-2.4078,-2.3445,-2.2855,-2.2419,-2.2231,-2.2231,-2.2194,-2.2203,-2.2305,-2.2415,-2.2613,-2.2739,-2.2179,-2.1898,-2.145,-2.0788,-2.0411,-2.0365,-2.0441,-2.0711,-2.118,-2.1322,-2.1689,-2.2317,-2.2917,-2.3055,-2.2628,-2.2798,-2.2778,-2.2105,-2.2351,-2.2366,-2.224,-2.1806,-2.1564,-2.1602,-2.1205,-2.0963,-2.1094,-2.0757,-2.036,-2.0362,-2.0347,-2.0304,-2.0287,-2.0287,-2.0304,-2.0441,-2.0544,-2.0645,-2.0761,-2.1003,-2.1181,-2.1151,-2.1167,-2.1262,-2.1293,-2.1323,-2.154,-2.1706,-2.1886,-2.2046,-2.2301,-2.2561,-2.276,-2.285,-2.2769,-2.2846,-2.3028,-2.3072,-2.3067,-2.3164,-2.3295,-2.3342,-2.3365,-2.3411,-2.3434,-3.1977,-3.1232,-3.0726,-3.0164,-2.9659,-2.9602,-2.9602,-2.9602,-2.9602,-2.9012,-2.8298,-2.8464,-2.8015,-2.7088,-2.8099,-2.8689,-2.8591,-2.8549,-2.8113,-2.6975,-2.6287,-2.5921,-2.5907,-2.5921,-2.5893,-2.5893,-2.5893,-2.5893,-2.5893,-2.5893,-2.5893,-2.5893,-2.5893,-2.5893,-2.5878,-2.5456,-2.4908,-2.4289,-2.3684,-2.308,-2.2587,-2.232,-2.2194,-2.2184,-2.202,-2.1888,-2.1864,-2.1732,-2.1842,-2.2144,-2.2387,-2.2184,-2.168,-2.1039,-2.0562,-2.0385,-2.0515,-2.0804,-2.1295,-2.1741,-2.2378,-2.2955,-2.32,-2.324,-2.3132,-2.3194,-2.3009,-2.2582,-2.2748,-2.3055,-2.3005,-2.2224,-2.1875,-2.1712,-2.1014,-2.0606,-2.1054,-2.0922,-2.0615,-2.064,-2.0436,-2.0302,-2.0302,-2.0302,-2.032,-2.0337,-2.0356,-2.0392,-2.0477,-2.0561,-2.0628,-2.0729,-2.0811,-2.0909,-2.0958,-2.1007,-2.1182,-2.1354,-2.1524,-2.1643,-2.1909,-2.2217,-2.2368,-2.2426,-2.2429,-2.2565,-2.2773,-2.2799,-2.2812,-2.2947,-2.306,-2.3096,-2.3103,-2.3152,-2.3071,-3.2483,-3.1864,-3.1232,-3.0614,-3.002,-2.9743,-2.9602,-2.9602,-2.9602,-2.8914,-2.8058,-2.8171,-2.7551,-2.654,-2.7636,-2.8113,-2.7945,-2.8127,-2.7748,-2.6919,-2.6455,-2.6343,-2.6231,-2.6034,-2.5893,-2.5893,-2.5893,-2.5893,-2.5893,-2.5893,-2.5893,-2.5893,-2.5893,-2.5893,-2.5809,-2.5288,-2.4725,-2.4106,-2.3435,-2.2802,-2.2306,-2.2194,-2.2194,-2.2147,-2.1949,-2.1759,-2.1616,-2.1496,-2.1471,-2.1592,-2.1837,-2.1953,-2.1592,-2.0824,-2.0258,-2.0079,-1.9969,-2.055,-2.1182,-2.1704,-2.2314,-2.3442,-2.3539,-2.3539,-2.358,-2.3662,-2.3625,-2.3394,-2.3548,-2.3763,-2.3712,-2.2935,-2.242,-2.1818,-2.0682,-2.0202,-2.0781,-2.0558,-2.0433,-2.0639,-2.0439,-2.0388,-2.037,-2.0321,-2.0302,-2.0304,-2.0304,-2.0356,-2.0356,-2.0407,-2.039,-2.0443,-2.0526,-2.0578,-2.0645,-2.0729,-2.0845,-2.1007,-2.115,-2.1212,-2.1319,-2.1627,-2.1945,-2.2063,-2.2206,-2.2321,-2.2501,-2.2515,-2.2525,-2.2592,-2.2681,-2.2786,-2.2841,-2.2862,-2.2685,-3.282,-3.2216,-3.1597,-3.0979,-3.0315,-2.9827,-2.9602,-2.9602,-2.9602,-2.8914,-2.8016,-2.789,-2.7397,-2.6568,-2.7298,-2.7453,-2.7425,-2.7495,-2.7495,-2.7102,-2.6624,-2.6483,-2.6385,-2.6104,-2.5893,-2.5893,-2.5893,-2.5893,-2.5893,-2.5893,-2.5893,-2.5893,-2.5893,-2.5795,-2.5626,-2.5135,-2.4472,-2.3839,-2.3206,-2.269,-2.2292,-2.2194,-2.2194,-2.2161,-2.1841,-2.164,-2.1447,-2.1302,-2.1193,-2.0997,-2.0959,-2.1114,-2.1009,-2.0415,-1.9646,-1.966,-1.9666,-2.0239,-2.1059,-2.1536,-2.2247,-2.3601,-2.3638,-2.3644,-2.3715,-2.3897,-2.3941,-2.3971,-2.396,-2.396,-2.4069,-2.3309,-2.2682,-2.2027,-2.0457,-2.0029,-2.0398,-2.0043,-2.0099,-2.0625,-2.0256,-1.9896,-2.0159,-2.0256,-2.0275,-2.0287,-2.027,-2.0285,-2.03,-2.027,-2.027,-2.0287,-2.039,-2.0424,-2.046,-2.0462,-2.0597,-2.0554,-2.0701,-2.0798,-2.0815,-2.1101,-2.146,-2.1886,-2.2063,-2.2166,-2.2209,-2.2206,-2.2206,-2.2254,-2.2293,-2.2368,-2.2443,-2.2533,-2.2296,-3.2202,-3.1583,-3.0951,-3.0301,-2.9799,-2.9645,-2.9602,-2.9602,-2.9602,-2.8914,-2.7974,-2.8283,-2.7734,-2.7088,-2.7426,-2.7917,-2.7931,-2.7874,-2.7693,-2.7313,-2.6694,-2.6217,-2.6202,-2.6034,-2.5907,-2.5893,-2.5893,-2.5893,-2.5893,-2.5893,-2.5893,-2.5893,-2.5893,-2.5711,-2.5231,-2.457,-2.4134,-2.3642,-2.2953,-2.2461,-2.2348,-2.2175,-2.2147,-2.2114,-2.1698,-2.1458,-2.1326,-2.1046,-2.0812,-2.0762,-2.0762,-2.0795,-2.0775,-2.0341,-1.9949,-1.9798,-2.0003,-2.0352,-2.0854,-2.1643,-2.2358,-2.2928,-2.3046,-2.3157,-2.3348,-2.361,-2.3674,-2.3545,-2.348,-2.348,-2.3451,-2.3091,-2.252,-2.183,-2.1171,-2.0555,-2.0588,-2.0177,-1.9809,-2.0422,-1.9877,-1.9471,-1.9923,-2.0202,-2.0171,-2.016,-2.0139,-2.0215,-2.0294,-2.0255,-2.0202,-2.0252,-2.0304,-2.0321,-2.0321,-2.0325,-2.0314,-2.01,-2.0185,-2.0363,-2.0445,-2.0669,-2.0975,-2.1338,-2.1708,-2.1886,-2.1901,-2.1901,-2.2005,-2.2092,-2.2063,-2.1988,-2.211,-2.219,-2.1776,-3.1766,-3.1429,-3.0783,-3.0315,-3.0052,-2.9729,-2.9602,-2.9602,-2.9588,-2.8928,-2.8155,-2.8072,-2.772,-2.7088,-2.7088,-2.7467,-2.7621,-2.7876,-2.7594,-2.7172,-2.6666,-2.6371,-2.6259,-2.6062,-2.5921,-2.5893,-2.5893,-2.5893,-2.5893,-2.5893,-2.5893,-2.5893,-2.5893,-2.5739,-2.5402,-2.4922,-2.4388,-2.3881,-2.3126,-2.2644,-2.2578,-2.2286,-2.202,-2.1864,-2.152,-2.1229,-2.1131,-2.0923,-2.0699,-2.0699,-2.0699,-2.0699,-2.0645,-2.0498,-2.021,-1.9903,-1.9795,-2.0072,-2.04,-2.1038,-2.1296,-2.228,-2.2434,-2.248,-2.2663,-2.2867,-2.3046,-2.2957,-2.2889,-2.2957,-2.3083,-2.2863,-2.2448,-2.1711,-2.108,-2.0708,-2.0406,-1.9863,-1.9958,-2.021,-1.9991,-1.9853,-2.0009,-2.0157,-2.0086,-2.003,-2.0026,-2.014,-2.031,-2.0177,-2.0096,-2.0063,-2.0096,-2.0166,-2.0183,-2.0187,-2.0034,-1.9805,-1.9874,-2.0053,-2.0165,-2.0406,-2.0533,-2.0729,-2.1087,-2.1494,-2.1676,-2.1706,-2.1825,-2.1915,-2.1751,-2.166,-2.1818,-2.1773,-2.1272,-3.1302,-3.1246,-3.0582,-3.0315,-3.0217,-2.9827,-2.9602,-2.9588,-2.9462,-2.8802,-2.7904,-2.7791,-2.7453,-2.6989,-2.6947,-2.7017,-2.6891,-2.7411,-2.7242,-2.6919,-2.661,-2.6568,-2.6455,-2.6217,-2.5893,-2.5893,-2.5893,-2.5893,-2.5893,-2.5893,-2.5893,-2.5893,-2.5893,-2.5697,-2.5345,-2.4824,-2.4795,-2.4123,-2.3533,-2.2967,-2.2726,-2.2213,-2.1793,-2.1746,-2.1277,-2.1021,-2.1021,-2.0823,-2.0699,-2.0699,-2.0699,-2.0699,-2.0699,-2.0699,-2.0465,-1.9965,-1.9159,-1.9525,-1.9953,-2.0106,-2.052,-2.1635,-2.1779,-2.1817,-2.1935,-2.218,-2.2328,-2.2374,-2.2282,-2.2328,-2.2449,-2.2562,-2.2197,-2.1633,-2.0965,-2.0535,-2.0368,-2.0143,-2.0056,-2.016,-2.0121,-2.0207,-2.0295,-2.0309,-2.0258,-2.0528,-2.0533,-2.0251,-2.0344,-2.0068,-1.9945,-1.9852,-1.9851,-1.9973,-2.0025,-2.0048,-1.9834,-1.9529,-1.9803,-2.0124,-2.0139,-2.0203,-2.0297,-2.0443,-2.0646,-2.1039,-2.1276,-2.1462,-2.1478,-2.1447,-2.1323,-2.1354,-2.1535,-2.111,-2.0481,-3.0642,-3.0554,-2.9968,-2.9715,-2.9729,-2.9645,-2.9602,-2.9532,-2.9069,-2.8436,-2.7805,-2.7735,-2.7355,-2.7003,-2.7411,-2.7284,-2.6961,-2.6905,-2.6919,-2.6624,-2.6301,-2.6104,-2.6034,-2.5964,-2.5851,-2.5837,-2.5851,-2.5893,-2.5893,-2.5893,-2.5893,-2.5893,-2.5836,-2.5471,-2.4725,-2.457,-2.3614,-2.2798,-2.2475,-2.2353,-2.2278,-2.1981,-2.1807,-2.1616,-2.1277,-2.0972,-2.0947,-2.0799,-2.0699,-2.0699,-2.0686,-2.0686,-2.0699,-2.0699,-2.0699,-2.0463,-2.007,-1.9727,-1.9967,-1.9793,-2.0038,-2.0954,-2.118,-2.1253,-2.1423,-2.1506,-2.1698,-2.2044,-2.1769,-2.1626,-2.1698,-2.1616,-2.1489,-2.1373,-2.108,-2.089,-2.0733,-2.0437,-2.0338,-2.0377,-2.043,-2.0439,-2.048,-2.0472,-2.0491,-2.0828,-2.0984,-2.0685,-2.0392,-2.0133,-1.9874,-1.9786,-1.9644,-1.9723,-1.9777,-1.9818,-1.9738,-1.9375,-1.9697,-2.0129,-2.015,-2.015,-2.0243,-2.039,-2.0527,-2.0613,-2.086,-2.0991,-2.1055,-2.0959,-2.0751,-2.0958,-2.126,-2.0604,-1.9717,-3.001,-2.9968,-2.9729,-2.9602,-2.9602,-2.9602,-2.9602,-2.9476,-2.8956,-2.8382,-2.7805,-2.7355,-2.6877,-2.6596,-2.7298,-2.7229,-2.6554,-2.6624,-2.6582,-2.6357,-2.6034,-2.5893,-2.5809,-2.5584,-2.5513,-2.5781,-2.5612,-2.5598,-2.5739,-2.5893,-2.5893,-2.5893,-2.5865,-2.5528,-2.4556,-2.4585,-2.4106,-2.3487,-2.2929,-2.2464,-2.2047,-2.1736,-2.152,-2.1375,-2.1021,-2.0873,-2.0797,-2.0774,-2.0699,-2.0633,-2.0425,-2.0178,-2.0294,-2.0438,-2.0607,-2.0164,-1.9943,-1.9967,-2.019,-1.9666,-1.9937,-2.0537,-2.0823,-2.0898,-2.0997,-2.1046,-2.1071,-2.1229,-2.112,-2.1071,-2.1169,-2.118,-2.118,-2.1144,-2.1071,-2.0972,-2.0873,-2.0785,-2.0632,-2.0673,-2.0684,-2.0657,-2.0598,-2.0579,-2.0637,-2.0867,-2.0991,-2.0811,-2.0551,-2.0281,-2.0018,-1.9783,-1.9625,-1.9483,-1.9505,-1.9545,-1.9678,-1.9489,-1.9612,-1.9971,-2.0083,-2.0165,-2.0224,-2.0287,-2.039,-2.046,-2.0527,-2.0548,-2.0616,-2.0414,-2.0162,-2.0242,-2.0272,-1.9789,-1.8981,-2.9602,-2.9602,-2.9602,-2.9602,-2.9602,-2.9602,-2.9602,-2.9518,-2.8759,-2.8197,-2.7679,-2.6961,-2.6315,-2.6146,-2.675,-2.6736,-2.5992,-2.6385,-2.6287,-2.602,-2.5893,-2.5893,-2.5795,-2.5513,-2.5527,-2.5893,-2.5584,-2.557,-2.5767,-2.5893,-2.5893,-2.5893,-2.5893,-2.5402,-2.4936,-2.4585,-2.4177,-2.3319,-2.2925,-2.243,-2.19,-2.1568,-2.1277,-2.1033,-2.081,-2.0622,-2.0491,-2.0438,-2.0425,-2.0334,-2.0098,-1.9956,-2.0165,-2.0491,-2.0412,-1.9969,-1.9656,-1.9643,-1.963,-1.9392,-1.9496,-2.0072,-2.0648,-2.0724,-2.0724,-2.0699,-2.0699,-2.0823,-2.0774,-2.0823,-2.0873,-2.0923,-2.0947,-2.0947,-2.0909,-2.0823,-2.0762,-2.0699,-2.0699,-2.0699,-2.0699,-2.0749,-2.0724,-2.0694,-2.0785,-2.096,-2.0978,-2.0899,-2.0661,-2.0352,-1.9883,-1.9541,-1.915,-1.9012,-1.9097,-1.9176,-1.935,-1.95,-1.9609,-1.9719,-1.9801,-2.0006,-2.0152,-2.0218,-2.0185,-2.027,-2.0306,-2.0244,-2.0136,-1.996,-1.9731,-1.9295,-1.9045,-1.8635,-1.8232,-2.9602,-2.9602,-2.9602,-2.9588,-2.9574,-2.9602,-2.9588,-2.935,-2.834,-2.7776,-2.7468,-2.6582,-2.6006,-2.5978,-2.6062,-2.616,-2.5907,-2.5936,-2.595,-2.5936,-2.5893,-2.5893,-2.5808,-2.5711,-2.5683,-2.5851,-2.5514,-2.5542,-2.5879,-2.5865,-2.5879,-2.5907,-2.5766,-2.5119,-2.4458,-2.3994,-2.3516,-2.2798,-2.2433,-2.2225,-2.1811,-2.152,-2.1277,-2.1008,-2.0759,-2.0451,-1.9917,-1.9891,-2.0022,-2.0009,-1.9695,-1.9812,-2.0085,-2.0294,-2.0085,-1.9577,-1.929,-1.9224,-1.9094,-1.8819,-1.8911,-1.963,-2.0281,-2.062,-2.0699,-2.0699,-2.0699,-2.0699,-2.0699,-2.0699,-2.0724,-2.0737,-2.0774,-2.0774,-2.0785,-2.0774,-2.0724,-2.0699,-2.0699,-2.0699,-2.0724,-2.0749,-2.0774,-2.0722,-2.0836,-2.1019,-2.1256,-2.1199,-2.0669,-2.0273,-1.9613,-1.9114,-1.8615,-1.8456,-1.859,-1.8716,-1.8841,-1.9016,-1.9151,-1.9299,-1.9413,-1.966,-1.9818,-1.9854,-1.9767,-1.9942,-2.0045,-1.9914,-1.9763,-1.9585,-1.9286,-1.8763,-1.8207,-1.7767,-1.734,-2.9651,-2.9602,-2.9602,-2.9392,-2.904,-2.904,-2.883,-2.841,-2.7551,-2.6947,-2.6652,-2.6118,-2.5893,-2.5893,-2.5893,-2.5893,-2.5893,-2.5893,-2.5893,-2.5893,-2.5893,-2.5893,-2.5752,-2.54,-2.5119,-2.5542,-2.5261,-2.5036,-2.5317,-2.5598,-2.5556,-2.5458,-2.5358,-2.4556,-2.3839,-2.3248,-2.2686,-2.2447,-2.2161,-2.202,-2.1616,-2.1471,-2.1204,-2.0848,-2.0329,-2.0321,-2.0216,-1.9577,-1.9773,-1.9865,-1.9329,-1.9394,-1.9706,-1.9771,-1.946,-1.9028,-1.8832,-1.8898,-1.8793,-1.8479,-1.8636,-1.9525,-2.0022,-2.0308,-2.0633,-2.0699,-2.0699,-2.0699,-2.0699,-2.0699,-2.0699,-2.0699,-2.0699,-2.0699,-2.0699,-2.0699,-2.0699,-2.0699,-2.0699,-2.0699,-2.0699,-2.0699,-2.0724,-2.0761,-2.0908,-2.1077,-2.1334,-2.1394,-2.0858,-2.0216,-1.9552,-1.8951,-1.8447,-1.8125,-1.8216,-1.8288,-1.8352,-1.8514,-1.8679,-1.8812,-1.8945,-1.9001,-1.9132,-1.9225,-1.9299,-1.9317,-1.9372,-1.9464,-1.9325,-1.9029,-1.8616,-1.8145,-1.7561,-1.7033,-1.666,-2.9851,-2.9713,-2.9499,-2.9144,-2.8717,-2.8689,-2.8368,-2.7749,-2.7102,-2.6469,-2.5907,-2.5893,-2.5893,-2.5893,-2.5893,-2.5893,-2.5893,-2.5893,-2.5893,-2.5893,-2.5893,-2.5893,-2.5542,-2.5189,-2.495,-2.5261,-2.4795,-2.4444,-2.505,-2.5274,-2.5217,-2.4992,-2.4613,-2.3909,-2.3586,-2.263,-2.2175,-2.2114,-2.2137,-2.1841,-2.1399,-2.1337,-2.1142,-2.0772,-2.0347,-2.0177,-2.0151,-1.9708,-1.9682,-1.9784,-1.9496,-1.8989,-1.9133,-1.9198,-1.8898,-1.8597,-1.8532,-1.8819,-1.8623,-1.8649,-1.8689,-1.9355,-1.976,-2.0137,-2.0504,-2.0699,-2.0699,-2.0699,-2.0699,-2.0699,-2.0699,-2.0699,-2.0699,-2.0699,-2.0699,-2.0699,-2.0699,-2.0699,-2.0699,-2.0699,-2.0699,-2.0699,-2.0699,-2.0724,-2.0848,-2.0983,-2.1131,-2.121,-2.0968,-2.0294,-1.9561,-1.8981,-1.8415,-1.8119,-1.7902,-1.8037,-1.815,-1.8042,-1.8206,-1.8324,-1.8428,-1.8528,-1.8683,-1.885,-1.885,-1.8684,-1.8831,-1.9095,-1.8812,-1.8375,-1.7966,-1.7578,-1.7257,-1.6779,-1.6371,-3.0036,-2.9995,-2.9245,-2.8826,-2.8577,-2.8675,-2.8296,-2.7651,-2.7003,-2.6413,-2.5921,-2.5893,-2.5893,-2.5893,-2.5893,-2.5864,-2.578,-2.5808,-2.5766,-2.5653,-2.5696,-2.5822,-2.5528,-2.5133,-2.4711,-2.4781,-2.4345,-2.4205,-2.4824,-2.4599,-2.4585,-2.4444,-2.3898,-2.3502,-2.3853,-2.2812,-2.2095,-2.1888,-2.2077,-2.1722,-2.1264,-2.1264,-2.1131,-2.0759,-2.0451,-2.0242,-1.993,-1.9656,-1.963,-1.9747,-1.9616,-1.9368,-1.9473,-1.985,-1.9379,-1.8283,-1.8597,-1.8584,-1.8253,-1.861,-1.8924,-1.9146,-1.9564,-1.9943,-2.0478,-2.0699,-2.0699,-2.0699,-2.0699,-2.0699,-2.0699,-2.0699,-2.0699,-2.0699,-2.0699,-2.0699,-2.0699,-2.0699,-2.0699,-2.0699,-2.0699,-2.0699,-2.0699,-2.0724,-2.0785,-2.0885,-2.0972,-2.0955,-2.086,-2.0233,-1.9421,-1.9141,-1.8582,-1.8145,-1.7926,-1.7916,-1.7909,-1.7781,-1.7835,-1.8065,-1.8255,-1.8433,-1.8551,-1.8588,-1.8489,-1.8396,-1.8588,-1.8827,-1.8528,-1.8209,-1.7525,-1.7091,-1.6816,-1.6557,-1.6165,-2.9338,-2.929,-2.9002,-2.8331,-2.7565,-2.7917,-2.7734,-2.7102,-2.6497,-2.6076,-2.5921,-2.5893,-2.5893,-2.5893,-2.5851,-2.5711,-2.54,-2.5288,-2.5203,-2.4824,-2.5161,-2.4964,-2.4767,-2.4585,-2.4388,-2.4219,-2.3825,-2.3516,-2.3674,-2.3783,-2.3783,-2.3603,-2.3378,-2.3013,-2.2812,-2.2283,-2.2053,-2.1902,-2.1983,-2.1841,-2.1155,-2.1229,-2.118,-2.0711,-2.0386,-2.0111,-1.9865,-1.963,-1.959,-1.9773,-1.9669,-1.9368,-1.9237,-1.9444,-1.8829,-1.8166,-1.8362,-1.8296,-1.8257,-1.8584,-1.9094,-1.9303,-1.9394,-1.9773,-2.0478,-2.0673,-2.0699,-2.0699,-2.0699,-2.0699,-2.0699,-2.0699,-2.0699,-2.0699,-2.0699,-2.0699,-2.0699,-2.0699,-2.0699,-2.0699,-2.0699,-2.0699,-2.0699,-2.0699,-2.0774,-2.0785,-2.0848,-2.0771,-2.0665,-1.9903,-1.9117,-1.917,-1.8854,-1.8333,-1.8001,-1.7935,-1.7817,-1.7661,-1.779,-1.8054,-1.8249,-1.8451,-1.8405,-1.8424,-1.8286,-1.8156,-1.8241,-1.8313,-1.8421,-1.8127,-1.7471,-1.6908,-1.6622,-1.635,-1.6033,-2.8906,-2.8649,-2.8647,-2.8108,-2.73,-2.7383,-2.7074,-2.6483,-2.6062,-2.5893,-2.5893,-2.5893,-2.5893,-2.5893,-2.5851,-2.5767,-2.5303,-2.5289,-2.5006,-2.4528,-2.4795,-2.4669,-2.4289,-2.3867,-2.3755,-2.3586,-2.322,-2.2897,-2.3196,-2.3333,-2.3192,-2.2967,-2.2971,-2.276,-2.2461,-2.2198,-2.2053,-2.1935,-2.1959,-2.1831,-2.1326,-2.1169,-2.1169,-2.0731,-2.0399,-2.0164,-2.0009,-1.9826,-1.9666,-1.985,-1.9708,-1.9251,-1.8963,-1.878,-1.8323,-1.8061,-1.8218,-1.831,-1.8532,-1.895,-1.9433,-1.9695,-1.9381,-1.9721,-2.0451,-2.0673,-2.0699,-2.0699,-2.0699,-2.0699,-2.0699,-2.0699,-2.0699,-2.0699,-2.0699,-2.0699,-2.0699,-2.0699,-2.0699,-2.0699,-2.0699,-2.0699,-2.0699,-2.0699,-2.0724,-2.0699,-2.0699,-2.0582,-2.0438,-1.9695,-1.9068,-1.9054,-1.8894,-1.8297,-1.7983,-1.7965,-1.7794,-1.756,-1.7891,-1.8349,-1.8446,-1.8689,-1.8477,-1.8257,-1.8153,-1.8025,-1.7785,-1.7785,-1.8019,-1.7957,-1.7545,-1.7001,-1.6502,-1.6278,-1.6144,-2.8754,-2.8099,-2.8136,-2.804,-2.7768,-2.7046,-2.6469,-2.5964,-2.5921,-2.5893,-2.5893,-2.5893,-2.5893,-2.5893,-2.5893,-2.5739,-2.5555,-2.557,-2.505,-2.4767,-2.4514,-2.4247,-2.3867,-2.3431,-2.3238,-2.2929,-2.2648,-2.2601,-2.2943,-2.2698,-2.2376,-2.2334,-2.2612,-2.243,-2.2203,-2.2077,-2.1983,-2.1912,-2.1983,-2.1746,-2.1302,-2.1253,-2.1131,-2.0845,-2.0619,-2.0489,-2.0412,-2.0386,-2.0399,-2.0478,-2.0465,-1.9836,-1.9473,-1.9473,-1.8558,-1.8127,-1.844,-1.8558,-1.8754,-1.9185,-1.9486,-1.9616,-1.9812,-2.0177,-2.0465,-2.0699,-2.0699,-2.0699,-2.0699,-2.0699,-2.0699,-2.0699,-2.0699,-2.0699,-2.0699,-2.0699,-2.0699,-2.0699,-2.0699,-2.0699,-2.0699,-2.0699,-2.0699,-2.0699,-2.0686,-2.0608,-2.053,-2.0281,-2.0074,-1.9721,-1.9185,-1.9002,-1.8737,-1.8153,-1.8022,-1.8257,-1.8179,-1.8087,-1.8558,-1.8963,-1.8976,-1.8924,-1.878,-1.8571,-1.8192,-1.7907,-1.7606,-1.7599,-1.7769,-1.7612,-1.7543,-1.716,-1.6669,-1.669,-1.6628,-2.7192,-2.6746,-2.7187,-2.706,-2.6511,-2.6272,-2.6287,-2.6469,-2.6118,-2.5893,-2.5893,-2.5893,-2.5809,-2.5893,-2.5893,-2.5345,-2.4922,-2.4458,-2.3811,-2.36,-2.3713,-2.3262,-2.3037,-2.2939,-2.2774,-2.2536,-2.2334,-2.2269,-2.2371,-2.2067,-2.1935,-2.1971,-2.2018,-2.1945,-2.1948,-2.1912,-2.1841,-2.1902,-2.203,-2.1769,-2.1434,-2.135,-2.1142,-2.0934,-2.0762,-2.0581,-2.0347,-2.0504,-2.0451,-2.0203,-2.0111,-1.959,-1.9081,-1.9068,-1.8662,-1.8545,-1.8479,-1.8336,-1.8427,-1.8872,-1.9224,-1.9473,-1.9865,-2.0412,-2.066,-2.0699,-2.0699,-2.0699,-2.062,-2.0568,-2.0594,-2.062,-2.066,-2.0686,-2.0686,-2.0699,-2.0699,-2.0699,-2.0699,-2.0699,-2.0699,-2.0699,-2.0699,-2.0699,-2.0673,-2.0556,-2.0412,-2.0152,-1.9891,-1.9603,-1.929,-1.9107,-1.8989,-1.8558,-1.8702,-1.8937,-1.878,-1.8728,-1.9185,-1.9512,-1.9551,-1.946,-1.9211,-1.878,-1.8218,-1.7756,-1.7361,-1.7436,-1.7612,-1.7733,-1.7658,-1.7264,-1.6956,-1.6972,-1.6997,-2.6117,-2.5711,-2.6395,-2.64,-2.595,-2.5893,-2.6132,-2.6343,-2.6048,-2.5795,-2.5569,-2.5514,-2.5402,-2.5147,-2.5091,-2.4781,-2.423,-2.4177,-2.3684,-2.3126,-2.2915,-2.269,-2.2564,-2.2521,-2.2479,-2.2292,-2.2194,-2.2222,-2.2137,-2.1959,-2.1793,-2.1793,-2.1544,-2.152,-2.1616,-2.164,-2.1664,-2.1783,-2.1878,-2.1807,-2.1602,-2.1361,-2.1166,-2.0934,-2.0762,-2.0463,-2.019,-2.0438,-2.019,-1.9956,-1.9891,-1.9303,-1.8754,-1.8558,-1.8453,-1.8296,-1.831,-1.8179,-1.8283,-1.8914,-1.9005,-1.9185,-1.9771,-2.0308,-2.062,-2.0699,-2.0699,-2.0686,-2.0491,-2.0373,-2.0438,-2.0504,-2.0607,-2.0673,-2.0686,-2.0699,-2.0699,-2.0699,-2.0699,-2.0699,-2.0699,-2.0699,-2.0699,-2.0699,-2.0686,-2.0622,-2.0569,-2.0438,-2.019,-1.9891,-1.9512,-1.9198,-1.9224,-1.9146,-1.9329,-1.9368,-1.9224,-1.9237,-1.9745,-2.002,-2.0074,-1.9969,-1.9708,-1.8976,-1.8114,-1.773,-1.7398,-1.7384,-1.7489,-1.7578,-1.7618,-1.7309,-1.7161,-1.7268,-1.7296,-2.5351,-2.4822,-2.5706,-2.6022,-2.5908,-2.5893,-2.5879,-2.5823,-2.5781,-2.5541,-2.5105,-2.5035,-2.4767,-2.4458,-2.4359,-2.4219,-2.3909,-2.3839,-2.3487,-2.3027,-2.3041,-2.277,-2.2376,-2.2278,-2.2433,-2.2306,-2.2194,-2.2194,-2.2114,-2.1935,-2.1793,-2.1783,-2.1471,-2.1375,-2.1447,-2.1399,-2.1423,-2.1544,-2.1746,-2.1793,-2.1506,-2.1313,-2.118,-2.0848,-2.0724,-2.0633,-2.0491,-2.0321,-2.0035,-2.0046,-1.964,-1.8885,-1.8493,-1.7944,-1.7787,-1.7865,-1.7996,-1.7904,-1.81,-1.8715,-1.8963,-1.9107,-1.9381,-1.9941,-2.0255,-2.0412,-2.0399,-2.0608,-2.0504,-2.0478,-2.0568,-2.0491,-2.0517,-2.0633,-2.0686,-2.0699,-2.0699,-2.0699,-2.0699,-2.0699,-2.0699,-2.0699,-2.0699,-2.0699,-2.0699,-2.0661,-2.0635,-2.0594,-2.0451,-2.019,-1.9891,-1.9486,-1.9433,-1.9486,-1.946,-1.9499,-1.9525,-1.9708,-2.0098,-2.0411,-2.0386,-2.0321,-2.0229,-1.9002,-1.7748,-1.7748,-1.7573,-1.746,-1.7344,-1.7323,-1.7323,-1.7261,-1.7293,-1.7384,-1.7509,-2.43,-2.4302,-2.5464,-2.5923,-2.5907,-2.5893,-2.5626,-2.5231,-2.5205,-2.5121,-2.5006,-2.4936,-2.4599,-2.4019,-2.3935,-2.3755,-2.3417,-2.3333,-2.2943,-2.2798,-2.2841,-2.2798,-2.2419,-2.2521,-2.2536,-2.2306,-2.2194,-2.217,-2.2123,-2.1959,-2.1769,-2.1759,-2.1399,-2.1204,-2.1326,-2.1229,-2.118,-2.1302,-2.1423,-2.1554,-2.1375,-2.118,-2.0997,-2.0873,-2.0823,-2.0699,-2.0504,-2.0177,-1.9956,-1.9799,-1.8858,-1.8388,-1.8244,-1.7591,-1.7591,-1.7891,-1.78,-1.7664,-1.7787,-1.827,-1.8493,-1.861,-1.8845,-1.9394,-1.9773,-1.9917,-2.0113,-2.0399,-2.053,-2.053,-2.0568,-2.0465,-2.0465,-2.0594,-2.0699,-2.0699,-2.0699,-2.0699,-2.0699,-2.0699,-2.0699,-2.0699,-2.0699,-2.0699,-2.0699,-2.0699,-2.0699,-2.0673,-2.066,-2.0478,-2.0438,-2.0098,-1.9773,-1.9734,-1.9669,-1.9512,-1.946,-1.9616,-1.9928,-2.0268,-2.0594,-1.9956,-1.9306,-1.8296,-1.7395,-1.7499,-1.7525,-1.7337,-1.7233,-1.7212,-1.7212,-1.7212,-1.7212,-1.7293,-1.7524,-2.3885,-2.4551,-2.5495,-2.5893,-2.5893,-2.5893,-2.571,-2.5388,-2.5133,-2.4852,-2.4556,-2.4275,-2.3839,-2.3333,-2.3248,-2.3192,-2.277,-2.2704,-2.2536,-2.2447,-2.2545,-2.2648,-2.2676,-2.2746,-2.2704,-2.2493,-2.2264,-2.217,-2.2147,-2.1935,-2.1769,-2.1712,-2.1326,-2.1071,-2.1204,-2.1008,-2.0934,-2.1071,-2.112,-2.1106,-2.1131,-2.1021,-2.0923,-2.0848,-2.0774,-2.0699,-2.0491,-2.0203,-2.0074,-1.993,-1.9381,-1.8584,-1.8388,-1.8087,-1.8166,-1.8218,-1.8048,-1.7625,-1.7708,-1.7891,-1.8127,-1.8257,-1.831,-1.8858,-1.9172,-1.9316,-1.9486,-1.9732,-1.9669,-1.9679,-2.0072,-2.0111,-2.036,-2.0568,-2.066,-2.0699,-2.0699,-2.0699,-2.0699,-2.0699,-2.0699,-2.0699,-2.0699,-2.0699,-2.0699,-2.0699,-2.0699,-2.0699,-2.0699,-2.0674,-2.0674,-2.0491,-2.001,-1.9828,-1.9786,-1.9538,-1.9303,-1.9499,-1.9799,-1.9852,-1.9906,-1.9073,-1.8243,-1.8022,-1.7757,-1.7473,-1.7434,-1.7356,-1.7238,-1.7212,-1.7212,-1.7212,-1.7212,-1.7212,-1.7365,-2.37,-2.4774,-2.548,-2.5767,-2.5781,-2.5767,-2.5683,-2.5486,-2.5006,-2.4374,-2.3783,-2.3262,-2.2686,-2.2362,-2.2208,-2.2194,-2.2236,-2.2362,-2.2236,-2.2264,-2.239,-2.2662,-2.2802,-2.2788,-2.2887,-2.277,-2.2461,-2.2292,-2.217,-2.1983,-2.1841,-2.1712,-2.1399,-2.1033,-2.0934,-2.081,-2.0774,-2.0799,-2.0799,-2.0749,-2.0799,-2.0873,-2.0823,-2.0749,-2.0699,-2.0699,-2.0504,-2.0308,-2.0216,-2.002,-1.976,-1.9081,-1.8649,-1.8506,-1.8649,-1.8662,-1.8453,-1.8218,-1.8218,-1.8244,-1.8218,-1.8153,-1.8114,-1.8257,-1.8597,-1.8741,-1.8911,-1.8976,-1.8937,-1.9251,-1.9643,-2.0048,-2.036,-2.0555,-2.0633,-2.062,-2.0607,-2.0646,-2.0673,-2.0673,-2.066,-2.066,-2.0699,-2.0699,-2.0699,-2.0699,-2.0699,-2.0699,-2.0674,-2.0624,-2.0612,-2.0274,-1.9783,-1.9703,-1.988,-1.9721,-1.9423,-1.958,-1.9841,-1.9608,-1.9298,-1.8809,-1.8617,-1.8812,-1.852,-1.7787,-1.7596,-1.7583,-1.7439,-1.7316,-1.7212,-1.7212,-1.7212,-1.7212,-1.7212,-2.3247,-2.3554,-2.4686,-2.5163,-2.5203,-2.5189,-2.4908,-2.4388,-2.3786,-2.3112,-2.2784,-2.2545,-2.2264,-2.2194,-2.2194,-2.2194,-2.2194,-2.2194,-2.2194,-2.2222,-2.2507,-2.2845,-2.314,-2.3291,-2.3375,-2.3051,-2.2587,-2.2278,-2.2184,-2.21,-2.1983,-2.1769,-2.1496,-2.118,-2.0972,-2.0823,-2.0699,-2.0699,-2.0699,-2.0699,-2.0699,-2.0749,-2.0737,-2.0699,-2.0699,-2.0699,-2.053,-2.0124,-1.9943,-1.9747,-1.9575,-1.9159,-1.895,-1.8898,-1.8989,-1.8989,-1.878,-1.8662,-1.861,-1.861,-1.8532,-1.8127,-1.8087,-1.8074,-1.8244,-1.8192,-1.8349,-1.8466,-1.8649,-1.9303,-1.976,-2.0294,-2.0646,-2.0646,-2.0686,-2.0425,-2.0281,-2.0451,-2.0594,-2.053,-2.0491,-2.0581,-2.0699,-2.0699,-2.0699,-2.0699,-2.0699,-2.0699,-2.0662,-2.0612,-2.0562,-2.0096,-1.9583,-1.995,-2.0245,-1.9997,-1.9802,-1.9882,-1.9716,-1.9255,-1.8949,-1.8869,-1.883,-1.9014,-1.8497,-1.7704,-1.7657,-1.7822,-1.7718,-1.7574,-1.7308,-1.7212,-1.7212,-1.7212,-1.7212]},{"header":{"parameterUnit":"m.s-1","parameterCategory":1,"la1":31.0,"la2":29.5877,"lo1":-88.7671,"lo2":-86.6584,"dy":0.0162,"dx":0.0185,"nx":115,"ny":88,"refTime":"2023-05-03T12:00:00:Z","depth":0,"parameterNumber":3,"parameterNumberName":"V-component_of_WINDS"},"data":[0.0,0.0,0.0,0.0,0.0,0.0,0.0,0.0,0.0,0.0,0.0,0.0,0.0,0.0,0.0,0.0,0.0,0.0,0.0,0.0,0.0,0.0,0.0,0.0,0.0,0.0,0.0,0.0,0.0,0.0,0.0,0.0,0.0,0.0,0.0,0.0,0.0,0.0,0.0,0.0,0.0,0.0,0.0,0.0,0.0,0.0,0.0,0.0,0.0,0.0,0.0,0.0,0.0,0.0,0.0,0.0,0.0,0.0,0.0,0.0,0.0,0.0,0.0,0.0,0.0,0.0,0.0,0.0,0.0,0.0,0.0,0.0,0.0,0.0,0.0,0.0,0.0,0.0,0.0,0.0,0.0,0.0,0.0,0.0,0.0,0.0,0.0,0.0,0.0,0.0,0.0,0.0,0.0,0.0,0.0,0.0,0.0,0.0,0.0,0.0,0.0,0.0,0.0,0.0,0.0,0.0,0.0,0.0,0.0,0.0,0.0,0.0,0.0,0.0,0.0,0.0,0.0,0.0,0.0,0.0,0.0,0.0,0.0,0.0,0.0,0.0,0.0,0.0,0.0,0.0,0.0,0.0,0.0,0.0,0.0,0.0,0.0,0.0,0.0,0.0,0.0,0.0,0.0,0.0,0.0,0.0,0.0,0.0,0.0,0.0,0.0,0.0,0.0,0.0,0.0,0.0,0.0,0.0,0.0,0.0,0.0,0.0,0.0,0.0,0.0,0.0,0.0,0.0,0.0,0.0,0.0,0.0,0.0,0.0,0.0,0.0,0.0,0.0,0.0,0.0,0.0,0.0,0.0,0.0,0.0,0.0,0.0,0.0,0.0,0.0,0.0,0.0,0.0,0.0,0.0,0.0,0.0,0.0,0.0,0.0,0.0,0.0,0.0,0.0,0.0,0.0,0.0,0.0,0.0,0.0,0.0,0.0,0.0,0.0,0.0,0.0,0.0,0.0,0.0,0.0,0.0,0.0,0.0,0.0,0.0,0.0,0.0,0.0,0.0,0.0,0.0,0.0,0.0,0.0,0.0,0.0,0.0,0.0,0.0,0.0,0.0,0.0,0.0,0.0,0.0,0.0,0.0,0.0,0.0,0.0,0.0,0.0,0.0,0.0,0.0,0.0,0.0,0.0,0.0,0.0,0.0,0.0,0.0,0.0,0.0,0.0,0.0,0.0,0.0,0.0,0.0,0.0,0.0,0.0,0.0,0.0,0.0,0.0,0.0,0.0,0.0,0.0,0.0,0.0,0.0,0.0,0.0,0.0,0.0,0.0,0.0,0.0,0.0,0.0,0.0,0.0,0.0,0.0,0.0,0.0,0.0,0.0,0.0,0.0,0.0,0.0,0.0,0.0,0.0,0.0,0.0,0.0,0.0,0.0,0.0,0.0,0.0,0.0,0.0,0.0,0.0,0.0,0.0,0.0,0.0,0.0,0.0,0.0,0.0,0.0,0.0,0.0,0.0,0.0,0.0,0.0,0.0,0.0,0.0,0.0,0.0,0.0,0.0,0.0,0.0,0.0,0.0,0.0,0.0,0.0,0.0,0.0,0.0,0.0,0.0,0.0,0.0,0.0,0.0,0.0,0.0,0.0,0.0,0.0,0.0,0.0,0.0,0.0,0.0,0.0,0.0,0.0,0.0,0.0,0.0,0.0,0.0,0.0,0.0,0.0,0.0,0.0,0.0,0.0,0.0,0.0,0.0,0.0,0.0,0.0,0.0,0.0,0.0,0.0,0.0,0.0,0.0,0.0,0.0,0.0,0.0,0.0,0.0,0.0,0.0,0.0,0.0,0.0,0.0,0.0,0.0,0.0,0.0,0.0,0.0,0.0,0.0,0.0,0.0,0.0,0.0,0.0,0.0,0.0,0.0,0.0,0.0,0.0,0.0,0.0,0.0,0.0,0.0,0.0,0.0,0.0,0.0,0.0,0.0,0.0,0.0,0.0,0.0,0.0,0.0,0.0,0.0,0.0,0.0,0.0,0.0,0.0,0.0,0.0,0.0,0.0,0.0,0.0,0.0,0.0,0.0,0.0,0.0,0.0,0.0,0.0,0.0,0.0,0.0,0.0,0.0,0.0,0.0,0.0,0.0,0.0,0.0,0.0,0.0,0.0,0.0,0.0,0.0,0.0,0.0,0.0,0.0,0.0,0.0,0.0,0.0,0.0,0.0,0.0,0.0,0.0,0.0,0.0,0.0,0.0,0.0,0.0,0.0,0.0,0.0,0.0,0.0,0.0,0.0,0.0,0.0,0.0,0.0,0.0,0.0,0.0,0.0,0.0,0.0,0.0,0.0,0.0,0.0,0.0,0.0,0.0,0.0,0.0,0.0,0.0,0.0,0.0,0.0,0.0,0.0,0.0,0.0,0.0,0.0,0.0,0.0,0.0,0.0,0.0,0.0,0.0,0.0,0.0,0.0,0.0,0.0,0.0,0.0,0.0,0.0,0.0,0.0,0.0,0.0,0.0,0.0,0.0,0.0,0.0,0.0,0.0,0.0,0.0,0.0,0.0,0.0,0.0,0.0,0.0,0.0,0.0,0.0,0.0,0.0,0.0,0.0,0.0,0.0,0.0,0.0,0.0,0.0,0.0,0.0,0.0,0.0,0.0,0.0,0.0,0.0,0.0,0.0,0.0,0.0,0.0,0.0,0.0,0.0,0.0,0.0,0.0,0.0,0.0,0.0,0.0,0.0,0.0,0.0,0.0,0.0,0.0,0.0,0.0,0.0,0.0,0.0,0.0,0.0,0.0,0.0,0.0,0.0,0.0,0.0,0.0,0.0,0.0,0.0,0.0,0.0,0.0,0.0,0.0,0.0,0.0,0.0,0.0,0.0,0.0,0.0,0.0,0.0,0.0,0.0,0.0,0.0,0.0,0.0,0.0,0.0,0.0,0.0,0.0,0.0,0.0,0.0,0.0,0.0,0.0,0.0,0.0,0.0,0.0,0.0,0.0,0.0,0.0,0.0,0.0,0.0,0.0,0.0,0.0,0.0,0.0,0.0,0.0,0.0,0.0,0.0,0.0,0.0,0.0,0.0,0.0,0.0,0.0,0.0,0.0,0.0,0.0,0.0,0.0,0.0,0.0,0.0,0.0,0.0,0.0,0.0,0.0,0.0,0.0,0.0,0.0,0.0,0.0,0.0,0.0,0.0,0.0,0.0,0.0,0.0,0.0,0.0,0.0,0.0,0.0,0.0,0.0,0.0,0.0,0.0,0.0,0.0,0.0,0.0,0.0,0.0,0.0,0.0,0.0,0.0,0.0,0.0,0.0,0.0,0.0,0.0,0.0,0.0,0.0,0.0,0.0,0.0,0.0,0.0,0.0,0.0,0.0,0.0,0.0,0.0,0.0,0.0,0.0,0.0,0.0,0.0,0.0,0.0,0.0,0.0,0.0,0.0,0.0,0.0,0.0,0.0,0.0,0.0,0.0,0.0,0.0,0.0,0.0,0.0,0.0,0.0,0.0,0.0,0.0,0.0,0.0,0.0,0.0,0.0,0.0,0.0,0.0,0.0,0.0,0.0,0.0,0.0,0.0,0.0,0.0,0.0,0.0,0.0,0.0,0.0,0.0,0.0,0.0,0.0,0.0,0.0,0.0,0.0,0.0,0.0,0.0,0.0,0.0,0.0,0.0,0.0,0.0,0.0,0.0,0.0,0.0,0.0,0.0,0.0,0.0,0.0,0.0,0.0,0.0,0.0,0.0,0.0,0.0,0.0,0.0,0.0,0.0,0.0,0.0,0.0,0.0,0.0,0.0,0.0,0.0,0.0,0.0,0.0,0.0,0.0,0.0,0.0,0.0,0.0,0.0,0.0,0.0,0.0,0.0,0.0,0.0,0.0,0.0,0.0,0.0,0.0,0.0,0.0,0.0,0.0,0.0,0.0,0.0,0.0,0.0,0.0,0.0,0.0,0.0,0.0,0.0,0.0,0.0,0.0,0.0,0.0,0.0,0.0,0.0,0.0,0.0,0.0,0.0,0.0,0.0,0.0,0.0,0.0,0.0,0.0,0.0,0.0,0.0,0.0,0.0,0.0,0.0,0.0,0.0,0.0,0.0,0.0,0.0,0.0,0.0,0.0,0.0,0.0,0.0,0.0,0.0,0.0,0.0,0.0,0.0,0.0,0.0,0.0,0.0,0.0,0.0,0.0,0.0,0.0,0.0,0.0,0.0,0.0,0.0,0.0,0.0,0.0,0.0,0.0,0.0,0.0,0.0,0.0,0.0,0.0,0.0,0.0,0.0,0.0,0.0,0.0,0.0,-1.122,0.0,0.0,0.0,0.0,0.0,0.0,0.0,0.0,0.0,0.0,0.0,0.0,0.0,0.0,0.0,0.0,0.0,0.0,0.0,0.0,0.0,0.0,0.0,0.0,0.0,0.0,0.0,0.0,0.0,0.0,0.0,0.0,0.0,0.0,0.0,0.0,0.0,0.0,0.0,0.0,0.0,0.0,0.0,0.0,0.0,0.0,0.0,0.0,0.0,0.0,0.0,0.0,0.0,0.0,0.0,0.0,0.0,0.0,0.0,0.0,0.0,0.0,0.0,0.0,0.0,0.0,0.0,0.0,0.0,0.0,0.0,0.0,0.0,0.0,0.0,0.0,0.0,0.0,0.0,0.0,0.0,0.0,0.0,0.0,0.0,0.0,0.0,0.0,0.0,0.0,0.0,0.0,0.0,0.0,0.0,0.0,0.0,0.0,0.0,0.0,0.0,0.0,0.0,0.0,0.0,0.0,0.0,0.0,0.0,0.0,-0.9211,-0.8142,-0.9948,-1.0393,-0.9228,0.0,0.0,0.0,0.0,0.0,0.0,0.0,0.0,0.0,0.0,0.0,0.0,0.0,0.0,0.0,0.0,0.0,0.0,0.0,0.0,0.0,0.0,0.0,0.0,0.0,0.0,0.0,0.0,0.0,0.0,0.0,0.0,0.0,0.0,0.0,0.0,0.0,0.0,0.0,0.0,0.0,0.0,0.0,0.0,0.0,0.0,0.0,0.0,0.0,0.0,0.0,0.0,0.0,0.0,0.0,0.0,0.0,0.0,0.0,0.0,0.0,0.0,0.0,0.0,0.0,0.0,0.0,0.0,0.0,0.0,0.0,0.0,0.0,0.0,0.0,0.0,0.0,0.0,0.0,0.0,0.0,0.0,0.0,0.0,0.0,0.0,0.0,0.0,0.0,0.0,0.0,0.0,0.0,0.0,0.0,0.0,0.0,0.0,0.0,0.0,0.0,0.0,0.0,0.0,0.0,0.0,0.0,0.0,0.0,0.0,0.0,0.0,-0.7339,-0.8207,-0.8299,0.0,0.0,0.0,0.0,0.0,0.0,0.0,0.0,0.0,0.0,0.0,0.0,0.0,0.0,0.0,0.0,0.0,0.0,0.0,0.0,0.0,0.0,0.0,0.0,0.0,0.0,0.0,0.0,0.0,0.0,0.0,0.0,0.0,0.0,0.0,0.0,0.0,0.0,0.0,0.0,0.0,0.0,0.0,0.0,0.0,0.0,0.0,0.0,0.0,0.0,0.0,0.0,0.0,0.0,0.0,0.0,0.0,0.0,0.0,0.0,0.0,0.0,0.0,0.0,0.0,0.0,0.0,0.0,0.0,0.0,0.0,0.0,0.0,0.0,0.0,0.0,0.0,0.0,0.0,0.0,0.0,0.0,0.0,0.0,0.0,0.0,0.0,0.0,0.0,0.0,0.0,0.0,0.0,0.0,0.0,0.0,0.0,0.0,0.0,0.0,0.0,0.0,0.0,0.0,0.0,0.0,0.0,0.0,0.0,0.0,-0.3813,-0.489,-0.5871,0.0,-1.0215,0.0,0.0,0.0,0.0,0.0,0.0,0.0,0.0,0.0,0.0,0.0,0.0,0.0,0.0,0.0,0.0,0.0,0.0,0.0,0.0,0.0,0.0,0.0,0.0,0.0,0.0,0.0,0.0,0.0,0.0,0.0,0.0,0.0,0.0,0.0,0.0,0.0,0.0,0.0,0.0,0.0,0.0,0.0,0.0,0.0,0.0,0.0,0.0,0.0,0.0,0.0,0.0,0.0,0.0,0.0,0.0,0.0,0.0,0.0,0.0,0.0,0.0,0.0,0.0,0.0,0.0,0.0,0.0,0.0,0.0,0.0,0.0,0.0,0.0,0.0,0.0,0.0,0.0,0.0,0.0,0.0,0.0,0.0,0.0,0.0,0.0,0.0,0.0,0.0,0.0,0.0,0.0,0.0,0.0,0.0,0.0,0.0,0.0,0.0,0.0,0.0,0.0,0.0,0.0,0.0,0.0,0.0,0.0,0.0,0.0,-0.2611,-0.4234,-0.6454,-0.8466,0.0,0.0,0.0,0.0,0.0,0.0,0.0,0.0,0.0,0.0,0.0,0.0,0.0,0.0,0.0,0.0,0.0,0.0,0.0,0.0,0.0,0.0,0.0,0.0,0.0,0.0,0.0,0.0,0.0,0.0,0.0,0.0,0.0,0.0,0.0,0.0,0.0,0.0,0.0,0.0,0.0,0.0,0.0,0.0,0.0,0.0,0.0,0.0,0.0,0.0,0.0,0.0,0.0,0.0,0.0,0.0,0.0,0.0,0.0,0.0,0.0,0.0,0.0,0.0,0.0,0.0,0.0,0.0,0.0,0.0,0.0,0.0,0.0,0.0,0.0,0.0,0.0,0.0,0.0,0.0,0.0,0.0,0.0,0.0,0.0,0.0,0.0,0.0,0.0,0.0,0.0,0.0,0.0,0.0,0.0,0.0,0.0,0.0,0.0,0.0,0.0,0.0,0.0,0.0,0.0,0.0,0.0,0.0,0.0,0.0,-0.0221,-0.1865,-0.4482,-0.7598,-0.9632,-1.0319,0.0,0.0,0.0,0.0,0.0,0.0,0.0,0.0,0.0,0.0,0.0,0.0,0.0,0.0,0.0,0.0,0.0,0.0,0.0,0.0,0.0,0.0,0.0,0.0,0.0,0.0,0.0,0.0,0.0,0.0,0.0,0.0,0.0,0.0,0.0,0.0,0.0,0.0,0.0,0.0,0.0,0.0,0.0,0.0,0.0,0.0,0.0,0.0,0.0,0.0,0.0,0.0,0.0,0.0,0.0,0.0,0.0,0.0,0.0,0.0,0.0,0.0,0.0,0.0,0.0,0.0,0.0,0.0,0.0,0.0,0.0,0.0,0.0,0.0,0.0,0.0,0.0,0.0,0.0,0.0,0.0,0.0,0.0,0.0,0.0,0.0,0.0,0.0,0.0,0.0,0.0,0.0,0.0,0.0,0.0,0.0,0.0,0.0,0.0,0.0,0.0,0.0,0.0,0.0,0.0,0.0,0.0,0.0,0.2281,0.1262,-0.1396,-0.5803,-0.9046,-1.0791,0.0,0.0,0.0,0.0,0.0,0.0,0.0,0.0,0.0,0.0,0.0,0.0,0.0,0.0,0.0,0.0,0.0,0.0,0.0,0.0,0.0,0.0,0.0,0.0,0.0,0.0,0.0,0.0,0.0,0.0,0.0,0.0,0.0,0.0,0.0,0.0,0.0,0.0,0.0,0.0,0.0,0.0,0.0,0.0,0.0,0.0,0.0,0.0,0.0,0.0,0.0,0.0,0.0,0.0,0.0,0.0,0.0,0.0,0.0,0.0,0.0,0.0,0.0,0.0,0.0,0.0,0.0,0.0,0.0,0.0,0.0,0.0,0.0,0.0,0.0,0.0,0.0,0.0,0.0,0.0,0.0,0.0,0.0,0.0,0.0,0.0,0.0,0.0,0.0,0.0,0.0,0.0,0.0,0.0,0.0,0.0,0.0,0.0,0.0,0.0,0.0,0.0,0.0,0.0,0.0,0.0,0.0,0.0,0.0,0.3659,0.0512,-0.2401,-0.492,-0.8105,-1.005,0.0,0.0,0.0,0.0,0.0,0.0,0.0,0.0,0.0,0.0,0.0,0.0,0.0,0.0,0.0,0.0,0.0,0.0,0.0,0.0,0.0,0.0,0.0,0.0,0.0,0.0,0.0,0.0,0.0,0.0,0.0,0.0,0.0,0.0,0.0,0.0,0.0,0.0,0.0,0.0,0.0,0.0,0.0,0.0,0.0,0.0,0.0,0.0,0.0,0.0,0.0,0.0,0.0,0.0,0.0,0.0,0.0,0.0,0.0,0.0,0.0,0.0,0.0,0.0,0.0,0.0,0.0,0.0,0.0,0.0,0.0,0.0,0.0,0.0,0.0,0.0,0.0,0.0,0.0,0.0,0.0,0.0,0.0,0.0,0.0,0.0,0.0,0.0,0.0,0.0,0.0,0.0,0.0,0.0,0.0,0.0,0.0,0.0,0.0,0.0,0.0,0.0,0.0,0.0,0.0,0.0,0.0,0.0,0.0,0.3882,0.0,-0.3033,-0.468,-0.8053,-1.0135,0.0,0.0,0.0,0.0,0.0,0.0,0.0,0.0,0.0,0.0,0.0,0.0,0.0,0.0,0.0,0.0,0.0,0.0,0.0,0.0,0.0,0.0,0.0,0.0,0.0,0.0,0.0,0.0,0.0,0.0,0.0,0.0,0.0,0.0,0.0,0.0,0.0,0.0,0.0,0.0,0.0,0.0,0.0,0.0,0.0,0.0,0.0,0.0,0.0,0.0,0.0,0.0,0.0,0.0,0.0,0.0,0.0,0.0,0.0,0.0,0.0,0.0,0.0,0.0,0.0,0.0,0.0,0.0,0.0,0.0,0.0,0.0,0.0,0.0,0.0,0.0,0.0,0.0,0.0,0.0,0.0,0.0,0.0,0.0,0.0,0.0,0.0,0.0,0.0,0.0,0.0,0.0,0.0,0.0,0.0,0.0,0.0,0.0,0.0,0.0,0.0,0.0,0.0,0.0,0.0,0.0,0.0,0.0,0.5365,0.2735,-0.0397,-0.3139,-0.5391,-0.9155,-1.1249,0.0,0.0,0.0,0.0,0.0,0.0,0.0,0.0,0.0,0.0,0.0,0.0,0.0,0.0,0.0,0.0,0.0,0.0,0.0,0.0,0.0,0.0,0.0,0.0,0.0,0.0,0.0,0.0,0.0,0.0,0.0,0.0,0.0,0.0,0.0,0.0,0.0,0.0,0.0,0.0,0.0,0.0,0.0,0.0,0.0,0.0,0.0,0.0,0.0,0.0,0.0,0.0,0.0,0.0,0.0,0.0,0.0,0.0,0.0,0.0,0.0,0.0,0.0,0.0,0.0,0.0,0.0,0.0,0.0,0.0,0.0,0.0,0.0,0.0,0.0,0.0,0.0,0.0,0.0,0.0,0.0,0.0,0.0,0.0,0.0,0.0,0.0,0.0,0.0,0.0,0.0,0.0,0.0,0.0,0.0,0.0,0.0,0.0,0.0,0.0,0.0,0.0,0.0,0.0,0.0,0.0,0.0,0.0,0.0,0.2948,-0.0973,-0.3913,-0.5852,-0.9697,-1.2088,0.0,0.0,0.0,0.0,0.0,0.0,0.0,0.0,0.0,0.0,0.0,0.0,0.0,0.0,0.0,0.0,0.0,0.0,0.0,0.0,0.0,0.0,0.0,0.0,0.0,0.0,0.0,0.0,0.0,0.0,0.0,0.0,0.0,0.0,0.0,0.0,0.0,0.0,0.0,0.0,0.0,0.0,0.0,0.0,0.0,0.0,0.0,0.0,0.0,0.0,0.0,0.0,0.0,0.0,0.0,0.0,0.0,0.0,0.0,0.0,0.0,0.0,0.0,0.0,0.0,0.0,0.0,0.0,0.0,0.0,0.0,0.0,0.0,0.0,0.0,0.0,0.0,0.0,0.0,0.0,0.0,0.0,0.0,0.0,0.0,0.0,0.0,0.0,0.0,0.0,0.0,0.0,0.0,0.0,0.0,0.0,0.0,0.0,0.0,0.0,0.0,0.0,0.0,0.0,0.0,0.0,0.0,0.0,0.0,0.1583,-0.2094,-0.5027,-0.6985,-1.0496,-1.2811,-1.375,0.0,0.0,0.0,0.0,0.0,0.0,0.0,0.0,0.0,0.0,0.0,0.0,0.0,0.0,0.0,0.0,0.0,0.0,0.0,0.0,0.0,0.0,0.0,0.0,0.0,0.0,0.0,0.0,0.0,0.0,0.0,0.0,0.0,0.0,0.0,0.0,0.0,0.0,0.0,0.0,0.0,0.0,0.0,0.0,0.0,0.0,0.0,0.0,0.0,0.0,0.0,0.0,0.0,0.0,0.0,0.0,0.0,0.0,0.0,0.0,0.0,0.0,0.0,0.0,0.0,0.0,0.0,0.0,0.0,0.0,0.0,0.0,0.0,0.0,0.0,0.0,0.0,0.0,0.0,0.0,0.0,0.0,0.0,0.0,0.0,0.0,0.0,0.0,0.0,0.0,0.0,0.0,0.0,0.0,0.0,0.0,0.0,0.0,0.0,0.0,0.0,0.0,0.0,0.0,0.0,0.0,0.0,0.0,-0.0905,-0.3757,-0.6371,-0.8703,-1.1477,-1.3506,0.0,0.0,0.0,0.0,0.0,0.0,0.0,0.0,0.0,0.0,0.0,0.0,0.0,0.0,0.0,0.0,0.0,0.0,0.0,0.0,0.0,0.0,0.0,0.0,0.0,0.0,0.0,0.0,0.0,0.0,0.0,0.0,0.0,0.0,0.0,0.0,0.0,0.0,0.0,0.0,0.0,0.0,0.0,0.0,0.0,0.0,0.0,0.0,0.0,0.0,0.0,0.0,0.0,0.0,0.0,0.0,0.0,0.0,0.0,0.0,0.0,0.0,0.0,0.0,0.0,0.0,0.0,0.0,0.0,0.0,0.0,0.0,0.0,0.0,0.0,0.0,0.0,0.0,0.0,0.0,0.0,0.0,0.0,0.0,0.0,0.0,0.0,0.0,0.0,0.0,0.0,0.0,0.0,0.0,0.0,0.0,0.0,0.0,0.0,0.0,0.0,0.0,0.0,0.0,0.0,0.0,0.0,0.0,0.0,-0.2758,-0.5305,-0.754,-0.9574,-1.2096,-1.4147,0.0,0.0,0.0,0.0,0.0,0.0,0.0,0.0,0.0,0.0,0.0,0.0,0.0,0.0,0.0,0.0,0.0,0.0,0.0,0.0,0.0,0.0,0.0,0.0,0.0,0.0,0.0,0.0,0.0,0.0,0.0,0.0,0.0,0.0,0.0,0.0,0.0,0.0,0.0,0.0,0.0,0.0,0.0,0.0,0.0,0.0,0.0,0.0,0.0,0.0,0.0,0.0,0.0,0.0,0.0,0.0,0.0,0.0,0.0,0.0,0.0,0.0,0.0,0.0,0.0,0.0,0.0,0.0,0.0,0.0,0.0,0.0,0.0,0.0,0.0,0.0,0.0,0.0,0.0,0.0,0.0,0.0,0.0,0.0,0.0,0.0,0.0,0.0,0.0,0.0,0.0,0.0,0.0,0.0,0.0,0.0,0.0,0.0,0.0,0.0,0.0,0.0,0.0,0.0,0.0,0.0,0.0,0.0,0.0736,-0.3398,-0.5946,-0.8192,-1.0186,-1.259,-1.4599,0.0,0.0,0.0,0.0,0.0,0.0,0.0,0.0,0.0,0.0,0.0,0.0,0.0,0.0,0.0,0.0,0.0,0.0,0.0,0.0,0.0,0.0,0.0,0.0,0.0,0.0,0.0,0.0,0.0,0.0,0.0,0.0,0.0,0.0,0.0,0.0,0.0,0.0,0.0,0.0,0.0,0.0,0.0,0.0,0.0,0.0,0.0,0.0,0.0,0.0,0.0,0.0,0.0,0.0,0.0,0.0,0.0,0.0,0.0,0.0,0.0,0.0,0.0,0.0,0.0,0.0,0.0,0.0,0.0,0.0,0.0,0.0,0.0,0.0,0.0,0.0,0.0,0.0,0.0,0.0,0.0,0.0,0.0,0.0,0.0,0.0,0.0,0.0,0.0,0.0,0.0,0.0,0.0,0.0,0.0,0.0,0.0,0.0,0.0,0.0,0.0,0.0,0.0,0.0,0.0,0.0,0.0,0.0,0.0739,-0.3116,-0.6024,-0.8461,-1.0556,-1.2868,-1.4859,0.0,0.0,0.0,0.0,0.0,0.0,0.0,0.0,0.0,0.0,0.0,0.0,0.0,0.0,0.0,0.0,0.0,0.0,0.0,0.0,0.0,0.0,0.0,0.0,0.0,0.0,0.0,0.0,0.0,0.0,0.0,0.0,0.0,0.0,0.0,0.0,0.0,0.0,0.0,0.0,0.0,0.0,0.0,0.0,0.0,0.0,0.0,0.0,0.0,0.0,0.0,0.0,0.0,0.0,0.0,0.0,0.0,0.0,0.0,0.0,0.0,0.0,0.0,0.0,0.0,0.0,0.0,0.0,0.0,0.0,0.0,0.0,0.0,0.0,0.0,0.0,0.0,0.0,0.0,0.0,0.0,0.0,0.0,0.0,0.0,0.0,0.0,0.0,0.0,0.0,0.0,0.0,0.0,0.0,0.0,0.0,0.0,0.0,0.0,0.0,0.0,0.0,0.0,0.0,0.0,0.0,0.0,0.0,0.0692,-0.2458,-0.5767,-0.8213,-0.9632,-1.251,-1.4581,0.0,0.0,0.0,0.0,0.0,0.0,0.0,0.0,0.0,0.0,0.0,0.0,0.0,0.0,0.0,0.0,0.0,0.0,0.0,0.0,0.0,0.0,0.0,0.0,0.0,0.0,0.0,0.0,0.0,0.0,0.0,0.0,0.0,0.0,0.0,0.0,0.0,0.0,0.0,0.0,0.0,0.0,0.0,0.0,0.0,0.0,0.0,0.0,-1.3741,0.0,0.0,0.0,0.0,0.0,0.0,0.0,0.0,0.0,0.0,0.0,0.0,0.0,0.0,0.0,0.0,0.0,0.0,0.0,0.0,0.0,0.0,0.0,0.0,0.0,0.0,0.0,0.0,0.0,0.0,0.0,0.0,0.0,0.0,0.0,0.0,0.0,0.0,0.0,0.0,0.0,0.0,0.0,0.0,0.0,0.0,0.0,0.0,0.0,0.0,0.0,0.0,0.0,0.0,0.0,0.0,0.0,0.0,0.0,0.0395,-0.2292,-0.5375,-0.7684,-0.9325,-1.2015,-1.4091,0.0,0.0,0.0,0.0,0.0,0.0,0.0,0.0,0.0,0.0,0.0,0.0,0.0,0.0,0.0,0.0,0.0,0.0,0.0,0.0,0.0,0.0,0.0,0.0,0.0,0.0,0.0,0.0,0.0,0.0,0.0,0.0,0.0,0.0,0.0,0.0,0.0,0.0,0.0,0.0,0.0,0.0,0.0,0.0,0.0,0.0,0.0,0.0,0.0,0.0,0.0,0.0,0.0,0.0,0.0,0.0,0.0,0.0,0.0,0.0,0.0,0.0,0.0,0.0,0.0,0.0,0.0,0.0,0.0,0.0,0.0,0.0,0.0,0.0,0.0,0.0,0.0,0.0,0.0,0.0,0.0,0.0,0.0,0.0,0.0,0.0,0.0,0.0,0.0,0.0,0.0,0.0,0.0,0.0,0.0,0.0,0.0,0.0,0.0,0.0,0.0,0.0,0.0,0.0,0.0,0.0,0.0,0.2043,0.0089,-0.221,-0.4906,-0.7158,-0.8861,-1.1402,-1.3485,-1.4991,0.0,0.0,0.0,0.0,0.0,0.0,0.0,0.0,0.0,0.0,0.0,0.0,0.0,0.0,0.0,0.0,0.0,0.0,0.0,0.0,0.0,0.0,0.0,0.0,0.0,0.0,0.0,0.0,0.0,0.0,0.0,0.0,0.0,0.0,0.0,0.0,0.0,0.0,0.5056,0.428,0.0,0.0,0.0,0.0,0.0,0.0,0.0,0.0,-1.2478,0.0,0.0,0.0,0.0,0.0,0.0,0.0,0.0,0.0,0.0,0.0,0.0,0.0,0.0,0.0,0.0,0.0,0.0,0.0,0.0,0.0,0.0,0.0,0.0,0.0,0.0,0.0,0.0,0.0,0.0,0.0,0.0,0.0,0.0,0.0,0.0,0.0,0.0,0.0,0.0,0.0,0.0,0.0,0.0,0.0,0.0,0.0,0.0,0.0,0.0,0.0,0.0,0.0,0.0,0.0,0.0,0.3943,0.208,0.0254,-0.1583,-0.4701,-0.6697,-0.7434,-1.0523,-1.274,-1.3792,0.0,0.0,0.0,0.0,0.0,0.0,0.0,0.0,0.0,0.0,0.0,0.0,0.0,0.0,0.0,0.0,0.0,0.0,0.0,0.0,0.0,0.0,0.0,0.0,0.0,0.0,0.0,0.0,0.0,0.0,0.0,0.0,0.0,0.0,0.0,0.0,0.0,0.0,0.0,0.4704,0.2497,0.0,0.0,0.0,0.0,0.0,0.0,0.0,0.0,-1.4187,0.0,0.0,0.0,0.0,0.0,0.0,0.0,0.0,0.0,0.0,0.0,0.0,0.0,0.0,0.0,0.0,0.0,0.0,0.0,0.0,0.0,0.0,0.0,0.0,0.0,0.0,0.0,0.0,0.0,0.0,0.0,0.0,0.0,0.0,0.0,0.0,0.0,0.0,0.0,0.0,0.0,0.0,0.0,0.0,0.0,0.0,0.0,0.0,0.0,0.0,0.0,0.0,0.0,0.0,0.0,0.4012,0.1812,0.0,-0.1501,-0.4112,-0.5947,-0.6948,-0.92,-1.112,0.0,0.0,0.0,0.0,0.0,0.0,0.0,0.0,0.0,0.0,0.0,0.0,0.0,0.0,0.0,0.0,0.0,0.0,0.0,0.0,0.0,0.0,0.0,0.0,0.0,0.0,0.0,0.0,0.0,0.0,0.0,0.0,0.0,0.0,0.0,0.0,0.0,0.0,0.0,0.0,0.4003,0.1692,-0.0601,0.0,0.0,0.0,0.0,0.0,0.0,-1.1847,-1.3473,0.0,0.0,0.0,0.0,0.0,0.0,0.0,0.0,0.0,0.0,0.0,0.0,0.0,0.0,0.0,0.0,0.0,0.0,0.0,0.0,0.0,0.0,0.0,0.0,0.0,0.0,0.0,0.0,0.0,0.0,0.0,0.0,0.0,0.0,0.0,0.0,0.0,0.0,0.0,0.0,0.0,0.0,0.0,0.0,0.0,0.0,0.0,0.0,0.0,0.0,0.0,0.0,0.0,0.0,0.0,0.4082,0.1615,-0.022,-0.133,-0.3206,-0.4938,-0.6389,-0.7843,-0.9534,0.0,0.0,0.0,0.0,0.0,0.0,0.0,0.0,0.0,0.0,0.0,0.0,0.0,0.0,0.0,0.0,0.0,0.0,0.0,0.0,0.0,0.0,0.0,0.0,0.0,0.0,0.0,0.0,0.0,0.0,0.0,0.0,0.0,0.0,0.0,0.0,0.0,0.0,0.0,0.0,0.0,0.0756,-0.0838,-0.3138,0.0,0.0,0.0,0.0,-1.0758,-1.1671,0.0,0.0,0.0,0.0,0.0,0.0,0.0,0.0,0.0,0.0,0.0,0.0,0.0,0.0,0.0,0.0,0.0,0.0,0.0,0.0,0.0,0.0,0.0,0.0,0.0,0.0,0.0,0.0,0.0,0.0,0.0,0.0,0.0,0.0,0.0,0.0,0.0,0.0,0.0,0.0,0.0,0.0,0.0,0.0,0.0,0.0,0.0,0.0,0.0,0.0,0.0,0.0,0.0,0.0,0.0,0.0,0.4285,0.1608,0.0085,-0.0269,-0.2064,-0.3664,-0.4842,-0.6694,-0.846,0.0,0.0,0.0,0.0,0.0,0.0,0.0,0.0,0.0,0.0,0.0,0.0,0.0,0.0,0.0,0.0,0.0,0.0,0.0,0.0,0.0,0.0,0.0,0.0,0.0,0.0,0.0,0.0,0.0,0.0,0.0,0.0,0.0,0.0,0.0,0.0,0.0,0.0,0.0,0.0,0.0,0.0462,-0.1677,-0.3551,-0.507,0.0,0.0,-0.9532,-1.1269,-1.2775,0.0,0.0,0.0,0.0,0.0,0.0,0.0,0.0,0.0,0.0,0.0,0.0,0.0,0.0,0.0,0.0,0.0,0.0,0.0,0.0,0.0,0.0,0.0,0.0,0.0,0.0,0.0,0.0,0.0,0.0,0.0,0.0,0.0,0.0,0.0,0.0,0.0,0.0,0.0,0.0,0.0,0.0,0.0,0.0,0.0,0.0,0.0,0.0,0.0,0.0,0.0,0.0,0.0,0.0,0.0,0.5396,0.4503,0.2131,0.06,0.0,-0.1334,-0.2467,-0.3392,-0.5181,-0.6677,0.0,0.0,0.0,0.0,0.0,0.0,0.0,0.0,0.0,0.0,0.0,0.0,0.0,0.0,0.0,0.0,0.0,0.0,0.0,0.0,0.0,0.0,0.0,0.0,0.0,0.0,0.0,0.0,0.0,0.0,0.0,0.0,0.0,0.0,0.0,0.0,0.0,0.0,0.0,0.0,0.0,0.0,-0.2556,-0.4147,0.0,0.0,0.0,-0.8215,-0.9768,0.0,0.0,0.0,0.0,0.0,0.0,0.0,0.0,0.0,0.0,0.0,0.0,0.0,0.0,0.0,0.0,0.0,0.0,0.0,0.0,0.0,0.0,0.0,0.0,0.0,0.0,0.0,0.0,0.0,0.0,0.0,0.0,0.0,0.0,0.0,0.0,0.0,0.0,0.0,0.0,0.0,0.0,0.0,0.0,0.0,0.0,0.0,0.0,0.0,0.0,0.0,0.0,0.0,0.0,0.0,0.0,0.0,0.4804,0.257,0.1037,0.0348,-0.0529,-0.1336,-0.2145,-0.3738,0.0,0.0,0.0,0.0,0.0,0.0,0.0,0.0,0.0,0.0,0.0,0.0,0.0,0.0,0.0,0.0,0.0,0.0,0.0,0.0,0.0,0.0,0.0,0.0,0.0,0.0,0.0,-0.1514,0.0,0.0,0.0,0.0,0.0,0.0,0.0,0.0,0.0,0.0,0.0,0.0,0.0,0.0,-0.2546,-0.3026,-0.4472,-0.5735,0.0,0.0,-0.7451,-0.8644,-1.0345,-1.1567,0.0,0.0,0.0,0.0,0.0,0.0,0.0,0.0,0.0,0.0,0.0,0.0,0.0,0.0,0.0,0.0,0.0,0.0,0.0,0.0,0.0,0.0,0.0,0.0,0.0,0.0,0.0,0.0,0.0,0.0,0.0,0.0,0.0,0.0,0.0,0.0,0.0,0.0,0.0,0.0,0.0,0.0,0.0,0.0,0.0,0.0,0.0,0.0,0.0,0.0,0.0,0.0,0.0,0.0,0.0,0.5199,0.2653,0.1277,0.1172,0.0566,-0.0264,-0.1162,-0.2588,-0.3758,0.0,0.0,0.0,0.0,0.0,0.0,0.0,0.0,0.0,0.0,0.0,0.0,0.0,0.0,0.0,0.0,0.0,0.0,0.0,0.0,0.0,0.0,0.0,0.0,0.0,0.0,0.0,0.0,0.0,0.0,0.0,0.0,0.0,0.0,0.0,0.0,0.0,0.0,0.0,0.0,0.0,-0.1951,-0.2731,-0.4225,-0.5382,0.0,0.0,-0.8373,-0.8786,-1.1004,-1.2187,-1.0599,0.0,0.0,0.0,0.0,0.0,0.0,0.0,0.0,0.0,0.0,0.0,0.0,0.0,0.0,0.0,0.0,0.0,0.0,0.0,0.0,0.0,0.0,0.0,0.0,0.0,0.0,0.0,0.0,0.0,0.0,0.0,0.0,0.0,0.0,0.0,0.0,0.0,0.0,0.0,0.0,0.0,0.0,0.0,0.0,0.0,0.0,0.0,0.0,0.0,0.0,0.0,0.0,0.0,0.5865,0.5288,0.3128,0.1786,0.1296,0.1029,0.0607,-0.0043,-0.1103,-0.1872,0.0,0.0,0.0,0.0,0.0,0.0,0.0,0.0,0.0,0.0,0.0,0.0,0.0,0.0,0.0,0.0,0.0,0.0,0.0,0.0,0.0,0.0,0.0,0.0,0.0,0.0,0.0,0.0,-0.0463,-0.0846,0.03,0.0,0.0,0.0,0.0,0.0,0.0,0.0,0.0,0.0,0.0,-0.2369,-0.265,-0.3572,0.0,0.0,-0.585,-0.6473,-0.7215,-0.8605,-0.9331,-0.8463,-0.8435,0.0,0.0,0.0,0.0,0.0,0.0,0.0,0.0,0.0,0.0,0.0,0.0,0.0,0.0,0.0,0.0,0.0,0.0,0.0,0.0,0.0,0.0,0.0,0.0,0.0,0.0,0.0,0.0,0.0,0.0,0.0,0.0,0.0,0.0,0.0,0.0,0.0,0.0,0.0,0.0,0.0,0.0,0.0,0.0,0.0,0.0,0.0,0.0,0.0,0.0,0.0,0.0,0.5816,0.5372,0.339,0.2099,0.1588,0.151,0.1362,0.1064,0.0131,-0.0432,0.0,0.0,0.0,0.0,0.0,0.0,0.0,0.0,0.0,0.0,0.0,0.0,0.0,0.0,0.0,0.0,0.0,0.0,0.0,0.0,0.0,0.0,0.0,0.0,0.0,0.0,0.0,0.0,0.0299,0.0298,0.1845,0.0,0.0,0.0,0.0,0.0,0.0,0.0,0.0,0.0,0.0,-0.2328,-0.2434,-0.2972,-0.3609,-0.4364,-0.4545,-0.4829,-0.5467,-0.616,-0.652,-0.6225,0.0,0.0,0.0,0.0,0.0,0.0,0.0,0.0,0.0,0.0,0.0,0.0,0.0,0.0,0.0,0.0,0.0,0.0,0.0,0.0,0.0,0.0,0.0,0.0,0.0,0.0,0.0,0.0,0.0,0.0,1.2315,0.0,0.0,0.0,0.0,0.0,0.0,0.0,0.0,0.0,0.0,0.0,0.0,0.0,0.0,0.0,0.0,0.0,0.0,0.0,0.0,0.0,0.0,0.58,0.5571,0.3451,0.2277,0.2152,0.1992,0.1911,0.1989,0.0911,0.0343,0.0461,0.0,0.0,0.0,0.0,0.0,0.0,0.0,0.0,0.0,0.0,0.0,0.0,0.0,0.0,0.0,0.0,0.0,0.0,0.0,0.0,0.0,0.0,0.0,0.0,0.0,0.0,0.1468,0.1371,0.2006,0.0,0.0,0.0,0.0,0.0,0.0,0.0,0.0,0.0,0.0,-0.1049,-0.1486,-0.2069,-0.249,-0.2883,-0.3476,-0.357,-0.3697,-0.3958,-0.4103,-0.413,0.0,0.0,0.0,0.0,0.0,0.0,0.0,0.0,0.0,0.0,0.0,0.0,0.0,0.0,0.0,0.0,0.0,0.0,0.0,0.0,0.0,0.0,0.0,0.0,0.0,0.0,0.0,1.2485,1.2376,0.0,0.0,0.0,0.0,0.0,0.0,0.0,0.0,0.0,0.0,0.0,1.3513,1.3628,0.0,0.0,0.0,0.0,0.0,0.0,0.0,0.0,0.0,0.0,0.0,0.0,0.6262,0.5577,0.4278,0.31,0.2225,0.2135,0.2033,0.1955,0.1655,0.1504,0.147,0.0,0.0,0.0,0.0,0.0,0.0,0.0,0.0,0.0,0.0,0.0,0.0,0.0,0.0,0.0,0.0,0.0,0.0,0.0,0.0,0.0,0.0,0.0,0.0,0.0,0.2109,0.0,0.0,0.0,0.0,0.0,0.0,0.0,0.0,0.0,0.0,0.0,0.0621,-0.0398,-0.0814,-0.109,-0.1329,-0.1606,-0.1983,0.0,0.0,0.0,0.0,0.0,0.0,0.0,0.0,0.0,0.0,0.0,0.0,0.0,0.0,-0.3567,-0.3915,-0.4622,-0.5063,-0.489,0.0,0.0,0.0,0.0,0.0,0.0,0.0,0.0,0.0,0.0,0.0,0.0,0.0,0.0,1.4643,0.0,1.3906,0.0,0.0,0.0,0.0,0.0,0.0,0.0,0.0,1.6601,1.6541,1.5877,1.5864,1.5624,0.0,1.408,1.21,0.0,0.0,0.0,0.0,0.0,0.0,0.0,0.0,0.6842,0.6157,0.5187,0.4246,0.3405,0.318,0.3036,0.2902,0.28,0.2729,0.2691,0.1754,0.1027,0.0,0.0,0.0,0.0,0.0,0.0,0.0,0.0,0.0,0.0,0.0,0.0,0.0,0.0,0.0,0.0,0.0,0.0,0.0,0.0,0.0,0.0,0.0,0.3037,0.0,0.0,0.0,0.0,0.0,0.0,0.0,0.0,0.0,0.3181,0.2031,0.0922,-0.0149,-0.0559,-0.0723,-0.0732,0.0,0.0,0.0,0.0,0.0,0.0,0.0,-0.2618,-0.2618,-0.2645,-0.2625,-0.2625,-0.2346,-0.2056,-0.2056,0.0,0.0,-0.2396,-0.3202,-0.377,-0.377,-0.4139,-0.4556,-0.494,-0.5567,-0.6074,0.0,0.0,0.0,0.0,0.0,0.0,0.0,0.0,1.8054,1.7068,0.0,1.5296,0.0,0.0,0.0,0.0,0.0,1.8089,0.0,0.0,1.9495,2.0105,1.97,1.9278,1.8656,1.7695,1.6574,1.5311,1.3889,1.1313,0.0,0.0,0.0,0.0,0.0,0.0,0.7659,0.7211,0.6205,0.5651,0.5538,0.4996,0.4744,0.4738,0.4268,0.3948,0.3912,0.3395,0.2584,0.1332,0.1054,0.0,0.0,0.0,0.0,0.0,0.0,0.0,0.0,0.0,0.0,0.0,0.0,0.0,0.0,0.0,0.0,0.0,0.0,0.0,0.0,0.3804,0.0,0.0,0.0,0.0,0.0,0.0,0.0,0.0,0.0,0.0,0.3505,0.2577,0.1566,0.0246,0.0,0.0,0.0,0.0,-0.0758,-0.0809,-0.0809,-0.0809,-0.0809,-0.1061,-0.1213,-0.1213,0.0,0.0,-0.1566,-0.1364,-0.1213,-0.1212,-0.1011,-0.097,-0.1582,-0.2501,-0.3147,-0.3198,-0.3147,-0.3469,-0.4366,-0.4579,-0.4922,2.4153,0.0,0.0,0.0,0.0,2.1239,2.1339,2.1573,2.0659,2.0144,1.9875,1.93,0.0,0.0,0.0,0.0,0.0,0.0,1.8715,1.8895,1.9342,1.9581,1.9735,1.9293,1.8981,1.8666,1.7762,1.7037,1.6407,1.4961,1.3146,1.1033,0.0,0.0,0.0,0.0,0.9024,0.789,0.7564,0.6931,0.5832,0.5506,0.5213,0.4935,0.4345,0.4267,0.4886,0.4578,0.4387,0.4274,0.3004,0.0,0.0,0.0,0.0,0.0,0.0,0.0,0.0,0.0,0.0,0.0,0.0,0.0,0.0,0.0,0.0,0.0,0.0,0.0,0.5493,0.4892,0.4751,0.0,0.0,0.0,0.0,0.0,0.0,0.0,0.0,0.0,0.4988,0.3959,0.2999,0.0,0.0,0.1261,0.0303,-0.005,-0.0303,-0.0505,0.0,0.0,0.0,-0.0859,-0.0909,-0.0909,-0.096,-0.101,-0.101,-0.096,-0.0909,-0.0909,-0.0859,-0.0862,-0.1023,-0.1277,-0.1577,-0.1727,-0.1654,-0.1633,-0.2122,-0.2757,-0.3526,2.6459,2.4662,2.3695,2.334,2.34,2.3222,2.3319,2.3621,2.2869,2.2444,2.2253,2.1716,2.1024,2.0215,2.0082,0.0,0.0,0.0,1.9457,1.9454,1.9655,1.9806,2.0008,1.9574,1.9376,1.9333,1.8564,1.8067,1.7921,1.6891,1.5328,1.3194,0.0,0.0,1.0667,1.0445,0.9893,0.9036,0.9031,0.8471,0.737,0.6936,0.6603,0.6341,0.5972,0.6069,0.6797,0.6512,0.6328,0.6296,0.5057,0.4234,0.0,0.0,0.0,0.0,0.0,0.0,0.0,0.0,0.0,0.0,0.0,0.561,0.6172,0.0,0.0,0.0,0.6588,0.6791,0.7112,0.6705,0.0,0.0,0.0,0.0,0.0,0.0,0.0,0.8102,0.8181,0.7738,0.6456,0.5777,0.4817,0.3176,0.3003,0.2565,0.1361,0.0,0.0706,0.0,-0.0202,-0.0353,-0.0455,-0.0556,-0.0655,-0.08,-0.0804,-0.0803,-0.0792,-0.0745,-0.0648,-0.0643,-0.0543,-0.0494,-0.0494,-0.0494,-0.0594,-0.0947,-0.0935,-0.0872,-0.1009,-0.1832,-0.2703,2.8092,2.7905,2.6911,2.627,2.5961,2.5917,2.578,2.5559,2.4627,2.4145,2.392,2.3066,2.2265,2.1581,2.1095,0.0,2.1142,2.101,2.0626,2.0066,2.0384,2.0508,2.0508,1.9976,1.9756,1.9756,1.9,1.8644,1.8551,1.7605,1.6779,1.6038,1.4305,1.2954,1.1986,1.1149,1.0629,1.045,1.0416,1.0137,0.9675,0.8936,0.8508,0.8522,0.8484,0.8687,0.9244,0.8822,0.8316,0.7679,0.717,0.6463,0.5607,0.0,0.0,0.0,0.0,0.0,0.0,0.0,0.0,0.0,0.0,0.0,0.0,0.0,0.0,0.0,0.78,0.0,0.8693,0.8811,0.0,0.0,0.0,0.9866,1.004,1.025,1.0105,0.9365,0.0,0.0,0.7918,0.0,0.6862,0.4463,0.4153,0.3754,0.2704,0.245,0.1954,0.0752,0.0452,0.0352,0.01,-0.015,-0.0349,-0.054,-0.0646,-0.0496,-0.0578,-0.0241,-0.0145,-0.0334,-0.0095,0.0095,0.0047,0.0,-0.0095,-0.058,-0.0719,-0.0708,-0.0786,-0.1508,-0.2111,2.9004,2.8043,2.8113,2.7473,2.6431,2.6059,2.5864,2.5812,2.5591,2.5454,2.538,2.5147,2.4776,2.4223,2.2885,2.2335,2.2381,2.2201,2.1828,2.1351,2.0936,2.073,2.068,1.9854,1.9425,1.9425,1.9214,1.8975,1.8686,1.8431,1.7746,1.6666,1.5831,1.4783,1.3485,1.2779,1.2196,1.1754,1.1301,1.0867,1.0461,0.9812,0.9536,0.9615,0.9114,0.9242,0.999,0.9615,0.9495,0.9801,0.8855,0.8152,0.7825,0.7153,0.0,0.0,0.0,0.0,0.0,0.0,0.0,0.0,0.0,0.8519,0.8289,0.0,0.8788,0.0,0.8545,0.8719,0.9192,0.911,0.0,0.0,0.9741,0.9797,1.0384,1.0341,1.0176,1.002,1.0043,0.968,0.8673,0.8714,0.8383,0.7234,0.6166,0.5045,0.3809,0.2961,0.229,0.1783,0.1113,0.0628,0.058,0.0483,0.0434,0.0384,0.0915,0.1106,0.0239,0.1273,0.1729,0.0326,0.0644,0.0866,0.0364,0.036,0.0357,0.009,-0.009,-0.0272,-0.0444,-0.0689,-0.1004,2.9384,2.8606,2.8422,2.7867,2.7128,2.6668,2.6385,2.6166,2.6177,2.6177,2.6166,2.6385,2.6229,2.5702,2.4572,2.3822,2.3331,2.283,2.227,2.1732,2.1204,2.0977,2.0928,2.0115,1.9696,1.9687,1.9236,1.8926,1.8715,1.854,1.8007,1.718,1.6855,1.6237,1.5274,1.4052,1.3447,1.3454,1.2454,1.1855,1.1705,1.0785,1.0507,1.0852,1.0427,1.0474,1.1149,1.0949,1.0762,1.071,1.0083,0.9559,0.9189,0.8568,0.8275,0.0,0.0,0.0,0.0,0.0,0.0,0.0,0.0,0.0,0.0,0.0,0.9788,0.0,0.9835,1.0169,1.073,1.0589,1.0659,1.1183,1.1089,1.1164,1.1579,1.1588,1.1379,1.0969,1.0912,1.0486,0.9544,0.938,0.913,0.8368,0.7602,0.6569,0.5218,0.4376,0.3719,0.2997,0.2458,0.2085,0.1928,0.1817,0.1756,0.1788,0.221,0.2303,0.1764,0.2383,0.264,0.1684,0.1568,0.1547,0.1073,0.0718,0.054,0.0412,0.029,0.0125,-0.0167,-0.0162,-0.0354,2.9477,2.9226,2.8407,2.8045,2.7942,2.7544,2.7062,2.661,2.6569,2.6577,2.6509,2.6862,2.6821,2.6442,2.5853,2.5121,2.4277,2.3378,2.2622,2.201,2.1642,2.1433,2.1357,2.0702,2.0323,2.0188,1.9333,1.8841,1.8654,1.8285,1.7871,1.7431,1.7422,1.727,1.6928,1.5237,1.4581,1.4904,1.3636,1.3104,1.3302,1.2146,1.1847,1.2402,1.2206,1.22,1.2464,1.2433,1.1992,1.1113,1.1049,1.0746,1.0162,0.9674,0.9552,0.0,0.9284,0.0,0.0,0.0,0.0,0.0,0.0,0.0,0.0,1.0474,1.0555,1.1004,1.1279,1.1723,1.238,1.2234,1.2247,1.2509,1.2713,1.2837,1.2916,1.3061,1.2831,1.2025,1.1768,1.1312,1.0396,1.0029,0.963,0.8964,0.8714,0.8058,0.6713,0.6006,0.5262,0.4186,0.3965,0.3525,0.3298,0.3209,0.3069,0.3112,0.3312,0.3267,0.3075,0.329,0.3381,0.2985,0.2518,0.2084,0.1883,0.1183,0.0735,0.057,0.0528,0.0416,0.0155,0.0077,0.0075,2.9905,2.8778,2.8964,2.8807,2.8362,2.8307,2.7805,2.7062,2.7051,2.6822,2.6382,2.6124,2.613,2.6365,2.5471,2.5188,2.536,2.4748,2.4212,2.3692,2.3154,2.2745,2.2402,2.1718,2.103,2.0379,2.0177,1.9504,1.8392,1.8316,1.7866,1.7027,1.7018,1.7139,1.7351,0.0,0.0,0.0,1.4567,1.47,1.4915,1.4989,1.4948,1.4767,1.4702,0.0,1.3498,1.3228,1.2743,1.1908,1.169,0.0,0.0,0.0,0.0,0.0,0.0,0.0,0.0,0.0,0.0,0.0,1.1473,1.1335,1.1452,1.1582,1.1733,1.1864,1.2014,1.21,1.2109,1.2201,1.2399,1.2664,1.2543,1.2583,1.3041,1.2986,1.2794,1.264,1.255,1.2196,1.1268,1.1097,1.0807,1.0098,0.9826,0.9183,0.8115,0.6788,0.5749,0.5283,0.4493,0.3724,0.3575,0.3603,0.3626,0.3572,0.4194,0.4233,0.362,0.442,0.4498,0.3275,0.3319,0.3307,0.2194,0.1851,0.1658,0.0955,0.0817,0.0665,0.0476,0.0405,0.0403,3.0368,0.0,2.9354,2.9019,0.0,2.851,2.8259,2.7846,2.7655,2.7243,2.672,2.6426,2.6305,2.6325,2.5747,2.5511,2.5556,2.5106,2.4734,2.4465,2.3995,2.3629,2.342,2.2771,2.2142,2.1413,2.0736,1.9889,1.8964,1.8562,1.8012,1.7314,1.7304,1.7278,1.7193,1.7009,1.6484,1.5626,1.5517,1.5588,1.5842,1.5426,1.526,1.5372,0.0,0.0,0.0,0.0,0.0,0.0,0.0,0.0,0.0,0.0,0.0,1.3738,1.3738,1.3766,1.3846,1.3484,1.3273,1.3242,1.2914,1.2487,1.1883,1.1998,1.2083,1.2022,1.2068,1.1995,1.1741,1.1793,1.1931,1.2064,1.1957,1.2044,1.2429,1.2466,1.2335,1.2338,1.2358,1.2111,1.1479,1.143,1.1108,1.0441,1.0144,0.9727,0.8803,0.7693,0.6773,0.6264,0.5635,0.5121,0.5071,0.498,0.4912,0.5023,0.5334,0.5369,0.4868,0.5445,0.5612,0.4682,0.456,0.427,0.3555,0.3102,0.2648,0.2097,0.1915,0.1848,0.1614,0.1055,0.0481,3.0759,3.0159,2.9722,2.9263,2.8816,2.8816,2.8736,2.8618,0.0,0.0,0.0,2.6808,2.6591,2.6231,2.6055,2.5827,2.5557,2.511,2.4897,2.4849,2.4562,2.4312,2.4159,2.3654,2.3039,2.234,2.1231,2.0341,1.9719,1.9042,1.8476,1.7969,1.7867,1.7604,1.721,1.7107,1.7055,1.7009,1.6458,1.6304,1.6566,1.5581,1.5284,1.5756,1.5252,1.4848,1.4675,1.4638,1.4469,1.4171,1.4171,1.425,1.445,1.4565,1.4684,1.4798,1.4798,1.4844,1.4893,1.4779,1.4606,1.4408,1.4088,1.3377,1.2122,1.222,1.2231,1.1874,1.1826,1.169,1.1415,1.143,1.1423,1.1464,1.1532,1.171,1.2019,1.2158,1.2228,1.2019,1.2045,1.1879,1.1531,1.147,1.1217,1.0638,1.0533,1.0146,0.9295,0.8413,0.753,0.6813,0.6346,0.6394,0.6449,0.6263,0.6268,0.6108,0.6168,0.6261,0.6261,0.6235,0.6209,0.5968,0.5538,0.5046,0.4701,0.4051,0.3507,0.3109,0.3018,0.2992,0.2789,0.1874,0.105,3.0803,3.0279,3.0203,3.0139,3.005,3.005,2.9755,2.9199,2.8174,2.7157,2.6248,2.6213,2.6177,2.6104,2.5613,2.5637,2.5985,2.5481,2.5253,0.0,2.517,2.4755,2.4026,2.3945,2.3236,2.2035,2.1788,2.1174,2.0249,1.9791,1.9342,1.8834,1.8533,1.8341,1.824,1.7808,1.7598,1.7596,1.7374,1.7289,1.737,1.7484,1.7447,1.7215,1.7071,1.6589,1.5635,1.5583,1.5344,1.4796,1.4784,1.4864,1.5065,1.5674,1.5878,1.5573,1.5538,1.5399,1.5019,1.438,1.4022,1.3973,1.3949,1.3526,1.2679,1.2621,1.2389,1.1799,1.1627,1.1442,1.143,1.1471,1.1519,1.1676,1.2023,1.2357,1.2567,1.2987,1.3039,1.2451,1.2502,1.2332,1.1764,1.1655,1.1608,1.1471,1.1261,1.1031,0.9851,0.8633,0.7507,0.6793,0.6388,0.6189,0.622,0.6163,0.6171,0.6137,0.6171,0.6164,0.6153,0.609,0.5966,0.5744,0.5618,0.5258,0.4615,0.4303,0.3982,0.3461,0.3313,0.3269,0.3248,0.2925,0.2522,3.1333,3.0822,3.0784,3.0595,3.0292,3.0292,2.9999,2.9378,2.8537,2.7557,2.6514,2.5925,2.5673,2.5648,2.542,2.5432,2.5648,2.542,2.5312,2.5312,2.5312,2.493,2.4314,2.4278,2.3641,2.253,2.2288,2.1675,2.0677,2.0553,2.0126,1.9362,1.914,1.9056,1.9023,1.879,1.868,1.8657,1.7681,1.7284,1.7486,1.7575,1.762,1.7639,1.7551,1.7267,1.676,1.6473,1.6228,1.5936,1.5738,1.5642,1.5771,1.6055,1.616,1.6001,1.5964,1.5914,1.5776,1.5323,1.5047,1.4943,1.4778,1.4373,1.3567,1.3419,1.3158,1.2684,1.2522,1.2415,1.2283,1.226,1.2292,1.2389,1.2613,1.2813,1.3052,1.33,1.334,1.302,1.3018,1.2756,1.1959,1.1873,1.1718,1.1472,1.1381,1.0918,0.9737,0.9079,0.8304,0.7297,0.6958,0.668,0.637,0.6239,0.6273,0.6273,0.6239,0.6234,0.6197,0.6116,0.5982,0.5798,0.5759,0.557,0.5056,0.4995,0.475,0.4427,0.4236,0.4232,0.414,0.388,0.3292,3.1913,3.1418,3.1431,3.1158,3.0709,3.0545,3.0249,2.9798,2.8995,2.8108,2.7213,2.6175,2.5629,2.5511,2.5511,2.5406,2.5312,2.5312,2.5252,2.5131,2.5131,2.476,2.423,2.4169,2.3688,2.2895,2.2543,2.193,2.1119,2.1113,2.0697,1.9881,1.9834,1.9868,1.9879,1.977,1.9705,1.9596,1.823,1.7653,1.7948,1.7791,1.7753,1.7789,1.7661,1.7475,1.722,1.684,1.6703,1.6694,1.6417,1.6257,1.6313,1.6306,1.6259,1.6183,1.6183,1.6109,1.6023,1.5876,1.5703,1.5427,1.5206,1.4831,1.426,1.4035,1.3792,1.3438,1.3264,1.3181,1.2977,1.2972,1.2976,1.294,1.3005,1.3092,1.3258,1.3403,1.3402,1.3301,1.3354,1.3112,1.2419,1.2219,1.2143,1.1769,1.1363,1.0723,0.9889,0.9698,0.9108,0.8227,0.7634,0.7209,0.6677,0.6456,0.6387,0.6359,0.6355,0.6293,0.6222,0.6181,0.6076,0.5872,0.5793,0.5701,0.5563,0.548,0.5364,0.5088,0.4994,0.5018,0.4925,0.4477,0.3677,3.2169,3.2096,3.2096,3.2109,3.1886,3.1344,3.1068,3.0821,2.9331,2.8579,2.8356,2.7322,2.6564,2.6164,2.6094,2.5769,2.5312,2.5312,2.5036,2.4662,2.459,2.4085,2.3288,2.3159,2.2823,2.233,2.2231,2.1944,2.1338,2.1067,2.0733,2.0408,2.0811,2.1031,2.0987,2.0505,2.0257,2.0236,1.9607,1.9288,1.9297,1.9299,1.8847,1.7911,1.7881,1.7389,1.6474,1.6273,1.6309,1.6418,1.6405,1.6459,1.6607,1.6638,1.6476,1.6124,1.6083,1.5801,1.504,1.4922,1.4756,1.4338,1.4282,1.4216,1.4125,1.4111,1.3856,1.3399,1.3133,1.3092,1.3017,1.3036,1.2998,1.2839,1.3096,1.3195,1.3117,1.3506,1.3588,1.2817,1.3347,1.3313,1.2764,1.2841,1.2967,1.2655,1.203,1.1427,1.101,1.0458,0.9853,0.8952,0.8047,0.735,0.7099,0.6661,0.6502,0.6393,0.6345,0.6306,0.6194,0.6104,0.6023,0.5806,0.5665,0.562,0.5458,0.5349,0.5342,0.5294,0.527,0.527,0.5215,0.4849,0.4002,3.2205,3.2205,3.2205,3.1979,3.1685,3.1738,3.1575,3.1137,3.0148,2.9671,2.9525,2.8472,2.731,2.6186,2.5838,2.5523,2.53,2.5312,2.5204,2.4963,2.4675,2.4145,2.3505,2.3144,2.2702,2.2234,2.2197,2.1951,2.1458,2.1272,2.1276,2.1481,2.1674,2.18,2.1769,2.1557,2.1431,2.1408,2.0899,2.0625,2.052,1.9669,1.8839,1.8155,1.7873,1.7529,1.7024,1.6475,1.6183,1.6175,1.5951,1.5846,1.5927,1.593,1.577,1.5341,1.5059,1.4747,1.4387,1.4404,1.4299,1.4114,1.4114,1.4114,1.4114,1.4114,1.3962,1.3774,1.3679,1.366,1.3641,1.3632,1.3615,1.3534,1.3672,1.3718,1.3644,1.3812,1.3842,1.3586,1.3741,1.3747,1.3418,1.3351,1.3067,1.2611,1.2188,1.2098,1.1453,1.0888,1.0427,0.9855,0.8906,0.8085,0.7735,0.7502,0.7181,0.6922,0.6837,0.6729,0.6276,0.6103,0.6009,0.5776,0.5759,0.5705,0.5523,0.5462,0.5462,0.5407,0.5407,0.5434,0.5329,0.5238,0.4653,3.2205,3.2205,3.2205,3.1974,3.1558,3.1802,3.1694,3.1219,3.0486,3.0161,3.0052,2.8903,2.7743,2.6701,2.6173,2.58,2.5352,2.534,2.5066,2.4697,2.4278,2.3833,2.336,2.2987,2.257,2.2246,2.2197,2.1933,2.1452,2.1404,2.1608,2.1945,2.2113,2.2197,2.2197,2.2197,2.2197,2.2137,2.168,2.1344,2.1027,1.989,1.8967,1.8439,1.8117,1.7814,1.7466,1.6786,1.6396,1.6396,1.6055,1.5833,1.5693,1.582,1.5717,1.5257,1.476,1.4459,1.4359,1.4365,1.4288,1.4178,1.4152,1.4152,1.4168,1.4152,1.4085,1.3935,1.3971,1.3968,1.4094,1.4114,1.4065,1.3968,1.3938,1.3917,1.389,1.3859,1.3786,1.3915,1.3841,1.4019,1.4007,1.3868,1.343,1.293,1.2773,1.2654,1.174,1.129,1.0821,1.0468,0.9706,0.9018,0.8379,0.796,0.7787,0.7679,0.7483,0.7229,0.6739,0.6667,0.6515,0.6591,0.6264,0.6005,0.595,0.5864,0.5677,0.5544,0.5572,0.565,0.5521,0.5572,0.5403,3.2205,3.2205,3.2205,3.2137,3.211,3.1544,3.1314,3.1083,3.0038,2.957,2.9449,2.8398,2.7822,2.7709,2.7597,2.6824,2.5556,2.5397,2.4706,2.3542,2.3204,2.283,2.2282,2.2234,2.2252,2.2259,2.2247,2.1964,2.1464,2.1428,2.1404,2.15,2.1969,2.2197,2.2197,2.2197,2.2185,2.2089,2.1608,2.1127,2.061,2.0033,1.9434,1.8885,1.8828,1.8272,1.7405,1.7183,1.7106,1.7123,1.7047,1.6826,1.6467,1.6776,1.6765,1.6251,1.5741,1.5289,1.4949,1.4884,1.4712,1.437,1.427,1.4277,1.4286,1.4281,1.4124,1.3714,1.3748,1.384,1.4064,1.4001,1.3877,1.3584,1.3535,1.3529,1.3529,1.3246,1.3189,1.3443,1.3594,1.3834,1.4517,1.4369,1.4215,1.4008,1.3435,1.269,1.2459,1.178,1.1116,1.0701,1.0344,0.9973,0.899,0.8605,0.8346,0.8223,0.8186,0.7899,0.7917,0.7868,0.7589,0.7321,0.6939,0.6642,0.6485,0.6273,0.6005,0.5873,0.5873,0.5873,0.5681,0.5736,0.5654,3.2205,3.2178,3.1775,3.1409,3.1042,3.0812,3.05,3.0093,2.9706,2.9502,2.936,2.8648,2.8327,2.8327,2.8314,2.7637,2.6417,2.5707,2.544,2.5286,2.3806,2.3244,2.3668,2.3022,2.2635,2.2635,2.2635,2.2396,2.1964,2.1921,2.1909,2.1933,2.2089,2.2197,2.2197,2.2197,2.2041,2.1668,2.1163,2.0634,2.0121,1.9579,1.9183,1.8954,1.8588,1.8194,1.7804,1.7396,1.7213,1.7213,1.6907,1.677,1.6869,1.6534,1.6059,1.5531,1.5029,1.4716,1.4588,1.4542,1.4501,1.4337,1.4314,1.4348,1.4316,1.4303,1.4221,1.4082,1.4048,1.4119,1.4046,1.3686,1.3271,1.3154,1.314,1.3175,1.3111,1.2993,1.2974,1.3145,1.349,1.3851,1.3796,1.4148,1.4268,1.3691,1.3362,1.3109,1.2795,1.2199,1.166,1.146,1.1167,1.0911,1.0922,0.9929,0.933,0.9172,0.8993,0.8642,0.85,0.8208,0.7934,0.7883,0.7551,0.7337,0.7182,0.702,0.6674,0.6408,0.6381,0.6305,0.59,0.6059,0.5982,3.1789,3.1558,3.1178,3.0771,3.0405,3.0188,2.9862,2.9502,2.9298,2.9197,2.9102,2.8763,2.8587,2.8587,2.8587,2.8249,2.7445,2.6416,2.5919,2.5774,2.4234,2.3753,2.4061,2.3477,2.3125,2.3138,2.3138,2.2896,2.2482,2.2561,2.2469,2.2216,2.234,2.2352,2.2216,2.2197,2.1933,2.1374,2.0858,2.0346,1.982,1.9263,1.9013,1.8934,1.8602,1.839,1.8375,1.7984,1.7781,1.7736,1.7427,1.731,1.7416,1.641,1.5723,1.5474,1.507,1.4789,1.4789,1.4789,1.4789,1.4789,1.48,1.4789,1.4766,1.4789,1.472,1.4605,1.4559,1.4536,1.4235,1.3726,1.3368,1.3344,1.3368,1.3429,1.3551,1.3324,1.3109,1.3008,1.332,1.3428,1.3297,1.375,1.374,1.315,1.3242,1.3179,1.29,1.2627,1.2274,1.2119,1.1878,1.1696,1.1624,1.0995,1.07,1.0536,0.9871,0.9451,0.9105,0.8741,0.8459,0.8401,0.827,0.8057,0.7898,0.7738,0.7444,0.7101,0.7074,0.7074,0.6756,0.6463,0.6436,3.0975,3.0513,3.0418,3.0378,3.0242,2.9746,2.9502,2.9352,2.8858,2.8695,2.8695,2.856,2.8519,2.8587,2.8519,2.85,2.8217,2.7402,2.6096,2.4516,2.4372,2.42,2.3927,2.3722,2.3619,2.3607,2.3607,2.3352,2.2957,2.3233,2.3053,2.2494,2.2726,2.2714,2.2247,2.2267,2.1964,2.1451,2.0906,2.0358,1.9808,1.9347,1.9119,1.904,1.8987,1.896,1.8972,1.8907,1.8854,1.8869,1.8847,1.8684,1.7874,1.6693,1.6059,1.6288,1.6035,1.5796,1.5748,1.5669,1.5625,1.5647,1.5726,1.5659,1.5614,1.5659,1.5491,1.5176,1.5074,1.4937,1.4536,1.4374,1.428,1.4303,1.4228,1.4389,1.4591,1.4134,1.343,1.3133,1.316,1.3145,1.3297,1.3431,1.3357,1.3391,1.3234,1.3023,1.2935,1.2856,1.2665,1.2364,1.2374,1.2485,1.2263,1.2015,1.2026,1.1908,1.1017,1.0393,1.0108,0.9775,0.9313,0.9184,0.8883,0.8692,0.8481,0.8323,0.8164,0.7898,0.7925,0.7791,0.745,0.7128,0.7074,3.0948,3.0364,2.9944,2.9767,2.9686,2.9116,2.8858,2.8858,2.8655,2.8587,2.8519,2.8166,2.8193,2.8424,2.818,2.799,2.7972,2.8007,2.769,2.6782,2.5283,2.4822,2.5083,2.4442,2.4089,2.4076,2.4076,2.3855,2.3488,2.3547,2.3399,2.3263,2.3292,2.3292,2.313,2.2778,2.2272,2.1732,2.1164,2.0625,2.0125,1.9911,1.972,1.946,1.9408,1.9303,1.9013,1.9013,1.9013,1.8987,1.865,1.8049,1.7267,1.6979,1.662,1.6151,1.6283,1.614,1.5862,1.5814,1.5814,1.5814,1.5792,1.5814,1.5814,1.5826,1.5738,1.5592,1.5592,1.5503,1.5379,1.5322,1.5177,1.4906,1.4867,1.488,1.4954,1.4493,1.4091,1.3913,1.3831,1.3881,1.3948,1.3828,1.3703,1.3581,1.3449,1.3282,1.3032,1.3111,1.3145,1.2767,1.3004,1.3064,1.2802,1.2554,1.2519,1.2341,1.1698,1.1083,1.0832,1.0504,1.0095,0.9703,0.943,0.9249,0.9033,0.8902,0.8718,0.8613,0.8534,0.8296,0.7978,0.7818,0.7711,3.0486,2.9713,2.9306,2.9143,2.9149,2.8736,2.8587,2.8587,2.8587,2.8587,2.8505,2.8207,2.8234,2.8465,2.8193,2.8044,2.8085,2.8438,2.8465,2.8062,2.6379,2.5669,2.5912,2.5074,2.4551,2.4565,2.4565,2.4321,2.3901,2.4031,2.3959,2.3666,2.3754,2.3754,2.361,2.3218,2.277,2.2219,2.1653,2.1078,2.0591,2.031,2.0067,1.9875,1.9811,1.9682,1.946,1.9303,1.9158,1.8919,1.8313,1.7496,1.6715,1.6715,1.6499,1.6078,1.6078,1.6139,1.584,1.5814,1.5814,1.5816,1.5972,1.6006,1.59,1.5912,1.6054,1.5862,1.5792,1.5814,1.5792,1.5792,1.5726,1.569,1.5483,1.5285,1.5111,1.4805,1.4489,1.4336,1.4246,1.427,1.4266,1.4253,1.4163,1.3889,1.3705,1.3549,1.3226,1.3209,1.3101,1.3071,1.3206,1.3239,1.3206,1.3074,1.295,1.2636,1.2228,1.1701,1.1298,1.0814,1.0394,0.9854,0.9484,0.9484,0.9328,0.938,0.9295,0.9223,0.9066,0.8955,0.8718,0.8402,0.827,2.974,2.8695,2.86,2.8641,2.8641,2.86,2.8587,2.8587,2.8587,2.8546,2.8505,2.8397,2.8451,2.8505,2.8356,2.8383,2.8573,2.8424,2.8207,2.7705,2.6823,2.6256,2.5704,2.5163,2.4934,2.492,2.4948,2.4736,2.4379,2.4666,2.4565,2.3888,2.4147,2.4134,2.3846,2.3686,2.3318,2.278,2.2205,2.1624,2.1082,2.0617,2.0283,2.0258,2.022,2.0195,2.0054,1.9798,1.9434,1.8958,1.8097,1.7364,1.6715,1.6152,1.6078,1.5886,1.5828,1.5876,1.585,1.5814,1.5862,1.5936,1.6283,1.6415,1.6054,1.6271,1.6295,1.5864,1.5886,1.5886,1.5828,1.5888,1.6071,1.6416,1.61,1.5715,1.5279,1.5188,1.496,1.4605,1.4408,1.4398,1.449,1.4488,1.4384,1.4303,1.4035,1.3871,1.3652,1.3518,1.3149,1.3253,1.3541,1.3432,1.3412,1.3105,1.3004,1.2819,1.2502,1.2166,1.1648,1.1157,1.0775,1.0217,0.9821,0.9769,0.9725,0.9795,0.9692,0.9484,0.9458,0.9588,0.9406,0.9007,0.8823,2.9957,2.9211,2.8809,2.8587,2.8587,2.8587,2.8587,2.8587,2.8587,2.837,2.8044,2.7949,2.7963,2.7936,2.7963,2.8166,2.8397,2.8139,2.7895,2.7556,2.6592,2.5833,2.5331,2.51,2.5005,2.5005,2.4977,2.4935,2.4821,2.492,2.4835,2.4679,2.4692,2.4736,2.4582,2.4178,2.3659,2.3111,2.2484,2.1936,2.1391,2.1177,2.0945,2.066,2.0635,2.0485,2.0245,2.0105,1.9682,1.903,1.8374,1.7736,1.7171,1.6931,1.6499,1.5948,1.6139,1.6187,1.5888,1.5838,1.5972,1.6343,1.6595,1.6535,1.6427,1.6523,1.6343,1.5996,1.6126,1.6247,1.5994,1.6163,1.6451,1.6547,1.6485,1.632,1.6135,1.584,1.5536,1.5401,1.5074,1.5051,1.5164,1.5074,1.4892,1.488,1.4709,1.4501,1.4208,1.4167,1.3931,1.3893,1.4011,1.3772,1.3547,1.3214,1.3008,1.2905,1.2723,1.2535,1.2007,1.1473,1.1192,1.0854,1.0617,1.049,1.0318,1.0249,1.001,0.9847,0.9795,0.9873,0.9692,0.9399,0.9347,3.0269,2.9488,2.9102,2.8817,2.86,2.8587,2.8587,2.8587,2.8587,2.8261,2.7813,2.7705,2.7569,2.7348,2.7596,2.7881,2.8139,2.7868,2.7569,2.7104,2.6077,2.5371,2.5059,2.5005,2.5005,2.5005,2.5005,2.4977,2.4977,2.5005,2.5005,2.4948,2.5005,2.5005,2.4935,2.4651,2.4164,2.3608,2.2984,2.2375,2.1819,2.1521,2.1302,2.108,2.1044,2.0883,2.0646,2.0523,1.9991,1.9066,1.8385,1.7788,1.7123,1.6835,1.6439,1.5816,1.6114,1.6176,1.6164,1.6128,1.6391,1.6859,1.7099,1.7147,1.7051,1.7099,1.7039,1.6655,1.6799,1.6751,1.6571,1.6583,1.6796,1.7106,1.6983,1.6792,1.663,1.6104,1.584,1.5748,1.5592,1.548,1.577,1.5536,1.5446,1.5356,1.5142,1.4915,1.4719,1.4777,1.472,1.4521,1.435,1.4116,1.3987,1.3717,1.3405,1.3268,1.3041,1.2861,1.2387,1.1859,1.156,1.136,1.1284,1.1158,1.0905,1.0735,1.0676,1.0507,1.0303,1.0123,1.0028,0.9943,0.9891,3.0622,2.9611,2.9543,2.9129,2.8641,2.8587,2.8587,2.8587,2.8587,2.8193,2.7691,2.7664,2.7339,2.6752,2.7362,2.7718,2.7746,2.7732,2.7257,2.6579,2.5656,2.5032,2.5032,2.5005,2.5005,2.5005,2.5005,2.5005,2.5005,2.5005,2.5005,2.5005,2.5005,2.5005,2.4951,2.4869,2.4543,2.3865,2.3201,2.2591,2.2022,2.1602,2.1375,2.1375,2.1385,2.1348,2.1213,2.104,2.045,1.9207,1.8569,1.8051,1.7177,1.6536,1.6163,1.6126,1.6187,1.6254,1.6511,1.6584,1.6907,1.7436,1.7905,1.8013,1.7639,1.7772,1.7796,1.7231,1.7423,1.7435,1.7376,1.7075,1.7191,1.7611,1.748,1.7127,1.6779,1.6291,1.5943,1.5909,1.5897,1.5792,1.5814,1.5814,1.5792,1.5614,1.5446,1.5311,1.5153,1.512,1.5004,1.481,1.4616,1.4443,1.4362,1.4281,1.3988,1.3729,1.3478,1.3214,1.2779,1.2314,1.1943,1.1769,1.1884,1.1735,1.1418,1.1284,1.125,1.1049,1.077,1.0668,1.0617,1.0515,1.0464,3.088,3.0161,2.9672,2.9129,2.8641,2.8587,2.8587,2.8587,2.8587,2.8017,2.7267,2.7488,2.7054,2.6158,2.7135,2.7705,2.761,2.7569,2.7149,2.605,2.5385,2.5032,2.5018,2.5032,2.5005,2.5005,2.5005,2.5005,2.5005,2.5005,2.5005,2.5005,2.5005,2.5005,2.4936,2.4529,2.4001,2.3405,2.2822,2.2239,2.1765,2.1507,2.1385,2.1423,2.1592,2.1698,2.1722,2.1827,2.1605,2.1014,2.0379,1.967,1.8971,1.8369,1.7757,1.7181,1.6873,1.6734,1.6713,1.7062,1.7484,1.8015,1.8208,1.8157,1.8073,1.8121,1.7977,1.7603,1.7772,1.8013,1.8014,1.7836,1.7833,1.7938,1.7829,1.7795,1.7903,1.7362,1.6843,1.6751,1.6256,1.5826,1.5826,1.5826,1.5804,1.5782,1.5726,1.5647,1.5536,1.5424,1.5334,1.5164,1.5051,1.4915,1.4812,1.4743,1.449,1.4235,1.3978,1.3755,1.3328,1.2924,1.2623,1.2559,1.2593,1.2348,1.1918,1.1868,1.1843,1.1535,1.1309,1.1234,1.1175,1.1074,1.0789,3.1368,3.0771,3.0161,2.9564,2.9054,2.8722,2.8587,2.8587,2.8587,2.7922,2.7037,2.7145,2.6606,2.5629,2.6687,2.7149,2.6986,2.7162,2.6796,2.5995,2.5548,2.5439,2.5331,2.5141,2.5005,2.5005,2.5005,2.5005,2.5005,2.5005,2.5005,2.5005,2.5005,2.5005,2.4924,2.4367,2.3825,2.3228,2.2631,2.202,2.1494,2.1385,2.1385,2.1434,2.1664,2.1855,2.1996,2.2114,2.2137,2.202,2.1694,2.1015,2.0003,1.9165,1.8482,1.8039,1.7397,1.732,1.7384,1.7733,1.8191,1.8814,1.885,1.885,1.8798,1.8695,1.8458,1.8277,1.8398,1.8566,1.8568,1.8448,1.84,1.8511,1.8419,1.8716,1.9125,1.8148,1.7336,1.7395,1.6811,1.6473,1.6276,1.6056,1.5826,1.5792,1.5792,1.5726,1.5726,1.5659,1.5681,1.558,1.5503,1.5401,1.5311,1.5164,1.4971,1.4743,1.4502,1.4342,1.4111,1.3745,1.3382,1.3224,1.2983,1.2822,1.2505,1.248,1.2421,1.2298,1.2092,1.1893,1.1701,1.1617,1.1187,3.1694,3.111,3.0513,2.9916,2.9339,2.8804,2.8587,2.8587,2.8587,2.7922,2.6996,2.6874,2.6457,2.5656,2.6362,2.6511,2.6484,2.6552,2.6552,2.6172,2.571,2.5575,2.548,2.5208,2.5005,2.5005,2.5005,2.5005,2.5005,2.5005,2.5005,2.5005,2.5005,2.491,2.4747,2.4272,2.3581,2.2971,2.2361,2.1912,2.148,2.1385,2.1385,2.1447,2.1746,2.1973,2.2161,2.2301,2.2431,2.2615,2.2623,2.1912,2.0781,1.9628,1.8766,1.8779,1.8259,1.8183,1.8346,1.8721,1.9212,1.976,1.9747,1.9708,1.9593,1.9308,1.9129,1.9153,1.923,1.923,1.9188,1.9257,1.9244,1.9317,1.9329,1.9855,2.0177,1.8772,1.8337,1.8248,1.7454,1.6732,1.6507,1.6294,1.6019,1.5814,1.5836,1.5848,1.586,1.5836,1.5836,1.5814,1.5681,1.5637,1.5558,1.549,1.5311,1.5105,1.4903,1.4801,1.471,1.4435,1.4003,1.3478,1.3224,1.3089,1.3017,1.2983,1.2983,1.2978,1.2871,1.2623,1.2408,1.2203,1.1607,3.1097,3.05,2.9889,2.9325,2.8777,2.8627,2.8587,2.8587,2.8587,2.7922,2.6955,2.7253,2.6782,2.6158,2.6427,2.6959,2.6972,2.6918,2.6684,2.6318,2.5778,2.5317,2.5303,2.5141,2.5018,2.5005,2.5005,2.5005,2.5005,2.5005,2.5005,2.5005,2.5005,2.4829,2.4313,2.3676,2.3256,2.2781,2.2117,2.1643,2.1534,2.1461,2.1434,2.1496,2.1888,2.2123,2.2278,2.2569,2.2812,2.2857,2.2857,2.2694,2.2181,2.1435,2.0703,2.0059,1.9743,1.944,1.9277,1.9919,2.0353,2.0509,2.0434,2.0308,2.0118,1.9811,1.9734,1.9888,1.9965,1.9965,2.0029,2.0117,2.0144,2.0091,2.0223,2.06,2.0678,2.0177,1.9467,1.9423,1.8174,1.7076,1.7091,1.6914,1.6554,1.6289,1.6127,1.6188,1.6215,1.6076,1.5891,1.5859,1.5792,1.577,1.577,1.5702,1.5588,1.5354,1.5176,1.5068,1.4991,1.4948,1.4619,1.4224,1.3763,1.3478,1.3454,1.3454,1.332,1.3176,1.3224,1.331,1.2991,1.2619,1.204,3.0676,3.0351,2.9726,2.9339,2.9021,2.8709,2.8587,2.8587,2.8573,2.7936,2.7189,2.705,2.6769,2.6158,2.6158,2.6524,2.6674,2.686,2.6589,2.624,2.5751,2.5466,2.5358,2.5168,2.5032,2.5005,2.5005,2.5005,2.5005,2.5005,2.5005,2.5005,2.5005,2.4856,2.453,2.4014,2.3499,2.3012,2.2332,2.1819,2.1803,2.171,2.1592,2.1722,2.2091,2.237,2.2463,2.2684,2.2888,2.2888,2.2888,2.2888,2.2778,2.2517,2.1959,2.1204,2.0633,2.0337,2.0091,2.0584,2.0656,2.1097,2.1104,2.1055,2.0858,2.0635,2.0434,2.0535,2.061,2.0535,2.0422,2.0813,2.066,2.0334,2.0625,2.1027,2.1131,2.084,2.0667,2.0476,1.956,1.8717,1.8175,1.7834,1.7231,1.6845,1.6545,1.6529,1.6631,1.6485,1.6274,1.6066,1.6057,1.5969,1.5947,1.5879,1.5758,1.5543,1.5423,1.5318,1.5299,1.5272,1.5298,1.5164,1.4663,1.4059,1.3776,1.3729,1.3539,1.343,1.3658,1.3766,1.3403,1.2986,1.2374,3.0228,3.0174,2.9597,2.9339,2.9244,2.8804,2.8587,2.8573,2.8451,2.7813,2.6888,2.6779,2.6511,2.6063,2.6022,2.609,2.5968,2.6413,2.6307,2.5995,2.5697,2.5656,2.5548,2.5317,2.5005,2.5005,2.5005,2.5005,2.5005,2.5005,2.5005,2.5005,2.5005,2.4815,2.4476,2.392,2.3892,2.3295,2.2726,2.2131,2.2043,2.1924,2.1793,2.1841,2.2324,2.2592,2.2592,2.2775,2.2888,2.2888,2.2888,2.2888,2.2888,2.2888,2.2678,2.2077,2.0909,2.0756,2.0888,2.0958,2.1156,2.173,2.1779,2.1769,2.165,2.1372,2.1188,2.114,2.1237,2.1188,2.1118,2.1225,2.1156,2.0982,2.1102,2.1358,2.1652,2.1648,2.1649,2.1338,2.0836,2.012,1.9301,1.8773,1.8161,1.7766,1.746,1.7219,1.7261,1.7102,1.6885,1.651,1.6328,1.621,1.6144,1.6054,1.5883,1.5639,1.5577,1.5547,1.5558,1.5572,1.561,1.558,1.5277,1.4697,1.4351,1.4071,1.4048,1.4095,1.4281,1.4201,1.3852,1.3319,1.2705,2.9591,2.957,2.894,2.8695,2.8709,2.8627,2.8587,2.8519,2.8071,2.7461,2.6793,2.6725,2.6416,2.6077,2.647,2.6348,2.6036,2.5982,2.5995,2.5767,2.5398,2.5208,2.5141,2.5073,2.4964,2.4951,2.4964,2.5005,2.5005,2.5005,2.5005,2.5005,2.4895,2.4543,2.3825,2.3676,2.2754,2.1968,2.1656,2.1586,2.1607,2.1743,2.1807,2.1996,2.2324,2.2638,2.2661,2.2797,2.2888,2.2888,2.2873,2.2873,2.2888,2.2888,2.2888,2.2627,2.2193,2.1765,2.1838,2.16,2.1772,2.2227,2.2417,2.2347,2.2184,2.2077,2.1888,2.1568,2.1817,2.1959,2.1888,2.1996,2.2011,2.1988,2.1972,2.2207,2.238,2.2254,2.2292,2.2336,2.1861,2.0935,2.0038,1.9597,1.915,1.8754,1.8402,1.818,1.7922,1.7773,1.7506,1.7161,1.6667,1.6513,1.6448,1.6337,1.6127,1.583,1.5773,1.5762,1.5672,1.5672,1.5744,1.5681,1.5468,1.5322,1.4983,1.4766,1.4674,1.4573,1.453,1.4437,1.4306,1.367,1.2958,2.898,2.894,2.8709,2.8587,2.8587,2.8587,2.8587,2.8465,2.7963,2.7348,2.6793,2.6416,2.5955,2.5683,2.6362,2.6237,2.5643,2.571,2.567,2.5453,2.5141,2.5005,2.4924,2.4706,2.4584,2.4896,2.4734,2.472,2.4856,2.5005,2.5005,2.5005,2.4978,2.4652,2.3662,2.3689,2.3228,2.2632,2.2142,2.1836,2.176,2.1878,2.2091,2.2231,2.2592,2.2729,2.2746,2.282,2.2888,2.2815,2.2635,2.241,2.249,2.2649,2.2786,2.2345,2.2149,2.2127,2.2374,2.1794,2.1997,2.256,2.2775,2.2706,2.2615,2.2569,2.2546,2.237,2.25,2.2546,2.2454,2.2417,2.2417,2.2477,2.2546,2.2638,2.2729,2.2783,2.2764,2.2859,2.2822,2.1863,2.1052,2.0714,2.0324,1.9975,1.9617,1.9322,1.8914,1.8543,1.8223,1.7813,1.7286,1.6825,1.6769,1.6693,1.6475,1.6244,1.6095,1.5993,1.5726,1.5684,1.58,1.5814,1.5681,1.5558,1.5468,1.5344,1.5186,1.4934,1.4716,1.4538,1.4327,1.3792,1.3106,2.8587,2.8587,2.8587,2.8587,2.8587,2.8587,2.8587,2.8505,2.7773,2.723,2.6671,2.6036,2.5412,2.5249,2.5833,2.5763,2.51,2.548,2.5385,2.5127,2.5005,2.5005,2.491,2.4584,2.4597,2.5005,2.4706,2.4693,2.4883,2.5005,2.5005,2.5005,2.5005,2.453,2.4028,2.3689,2.3296,2.247,2.209,2.1899,2.1852,2.2044,2.2324,2.2555,2.276,2.2852,2.2707,2.2649,2.2635,2.2533,2.2272,2.2164,2.2396,2.2707,2.262,2.2178,2.183,2.1815,2.1801,2.1489,2.1605,2.2243,2.2881,2.2865,2.2865,2.2888,2.2888,2.2775,2.282,2.2775,2.2729,2.2684,2.2661,2.2661,2.2669,2.2775,2.2857,2.2888,2.2888,2.2888,2.2888,2.2843,2.2175,2.1855,2.1524,2.119,2.0841,2.0448,1.9908,1.9355,1.8827,1.8422,1.7897,1.7384,1.7233,1.7115,1.6858,1.6655,1.6527,1.6364,1.6142,1.5949,1.5923,1.5903,1.5913,1.5836,1.5758,1.571,1.5626,1.5247,1.4902,1.4573,1.4254,1.3726,1.3185,2.8587,2.8587,2.8587,2.8573,2.856,2.8587,2.8573,2.8343,2.7308,2.6823,2.6467,2.567,2.5113,2.5086,2.5168,2.5207,2.5018,2.5046,2.5059,2.5046,2.5005,2.5005,2.4868,2.4829,2.4801,2.4964,2.4639,2.4666,2.4991,2.4978,2.4991,2.4963,2.4828,2.4204,2.3567,2.312,2.2659,2.1968,2.1616,2.1745,2.1858,2.2091,2.2324,2.2578,2.2754,2.2664,2.212,2.2091,2.2236,2.2222,2.1873,2.2004,2.2258,2.249,2.2258,2.1743,2.1423,2.1351,2.1206,2.0901,2.1003,2.1801,2.2475,2.2801,2.2888,2.2888,2.2888,2.2888,2.2888,2.2888,2.2865,2.288,2.282,2.282,2.2783,2.282,2.2865,2.2888,2.2888,2.2888,2.2865,2.2843,2.282,2.2417,2.215,2.1814,2.1583,2.1199,2.0624,2.0053,1.9443,1.8948,1.8453,1.8057,1.7835,1.7645,1.7455,1.7235,1.7055,1.6888,1.6727,1.6497,1.6337,1.6293,1.6367,1.6185,1.6088,1.6126,1.6003,1.5475,1.5034,1.4561,1.4002,1.3419,1.2948,2.8509,2.8587,2.8587,2.8383,2.8044,2.8044,2.7841,2.7375,2.6606,2.6022,2.5681,2.5222,2.5005,2.5005,2.5005,2.5005,2.5005,2.5005,2.5005,2.5005,2.5005,2.5005,2.4814,2.4475,2.4204,2.4666,2.4394,2.4177,2.4449,2.472,2.4679,2.4584,2.4435,2.3662,2.2971,2.2402,2.186,2.1629,2.1447,2.1592,2.1996,2.2137,2.2394,2.2752,2.238,2.2519,2.2403,2.1743,2.196,2.2062,2.1467,2.154,2.1837,2.191,2.1612,2.1133,2.0915,2.0988,2.0872,2.0524,2.0698,2.1685,2.2236,2.2504,2.2815,2.2888,2.2888,2.2888,2.2888,2.2888,2.2888,2.2888,2.2888,2.2888,2.2888,2.2888,2.2888,2.2888,2.2888,2.2888,2.2888,2.2888,2.2865,2.2806,2.2618,2.2406,2.2189,2.1913,2.1318,2.0662,2.0027,1.9412,1.8895,1.8444,1.8216,1.8089,1.7996,1.7801,1.7571,1.7428,1.7284,1.7222,1.7076,1.6972,1.6888,1.6866,1.6803,1.6697,1.6288,1.5513,1.4874,1.4336,1.3751,1.3158,1.2842,2.8327,2.8444,2.83,2.8021,2.7732,2.7705,2.7335,2.6738,2.6172,2.5561,2.5018,2.5005,2.5005,2.5005,2.5005,2.5005,2.5005,2.5005,2.5005,2.5005,2.5005,2.5005,2.4666,2.4272,2.4042,2.4394,2.3892,2.3554,2.4191,2.4353,2.4299,2.4082,2.3716,2.3039,2.2727,2.1805,2.1461,2.1496,2.1471,2.1746,2.2208,2.224,2.2426,2.2768,2.2548,2.2359,2.233,2.1888,2.1859,2.1924,2.1605,2.109,2.1249,2.1322,2.0988,2.0654,2.0582,2.0901,2.0683,2.0712,2.0756,2.1496,2.1946,2.2316,2.2722,2.2888,2.2888,2.2888,2.2888,2.2888,2.2888,2.2888,2.2888,2.2888,2.2888,2.2888,2.2888,2.2888,2.2888,2.2888,2.2888,2.2888,2.2888,2.2865,2.2752,2.2601,2.2463,2.2253,2.1999,2.1292,2.0479,1.9872,1.9278,1.8886,1.8498,1.8394,1.8309,1.8279,1.8088,1.7968,1.7834,1.7814,1.7652,1.7387,1.7387,1.7537,1.7407,1.7118,1.6317,1.5384,1.4745,1.4076,1.3696,1.3198,1.3022,2.8131,2.8032,2.7632,2.7534,2.7596,2.7691,2.7325,2.6644,2.6077,2.5507,2.5032,2.5005,2.5005,2.5005,2.5005,2.4922,2.4841,2.4868,2.4828,2.4719,2.476,2.4882,2.4652,2.4218,2.3811,2.3879,2.3459,2.3323,2.392,2.3703,2.3689,2.3554,2.3078,2.2646,2.2984,2.1982,2.1571,2.1698,2.1506,2.1864,2.231,2.231,2.2463,2.2754,2.2664,2.2432,2.2135,2.183,2.1801,2.1931,2.1786,2.1511,2.1627,2.1997,2.1475,2.0306,2.0654,2.064,2.0228,2.0669,2.1017,2.1264,2.1728,2.2149,2.2693,2.2888,2.2888,2.2888,2.2888,2.2888,2.2888,2.2888,2.2888,2.2888,2.2888,2.2888,2.2888,2.2888,2.2888,2.2888,2.2888,2.2888,2.2888,2.2865,2.2783,2.2692,2.2638,2.2521,2.2369,2.1698,2.0826,2.0526,1.9926,1.9373,1.9015,1.8756,1.8627,1.8615,1.8671,1.8666,1.8617,1.8635,1.835,1.795,1.8051,1.8396,1.795,1.7441,1.6609,1.576,1.4543,1.384,1.3496,1.3258,1.309,2.827,2.7613,2.7462,2.7062,2.6619,2.6959,2.6782,2.6172,2.5588,2.5181,2.5032,2.5005,2.5005,2.5005,2.4964,2.4829,2.4475,2.4367,2.4286,2.392,2.4245,2.4055,2.3865,2.3689,2.3499,2.3337,2.2957,2.2659,2.2861,2.2917,2.2917,2.2793,2.2576,2.2224,2.1982,2.1518,2.153,2.1712,2.1602,2.1746,2.244,2.237,2.2417,2.2851,2.2591,2.2287,2.2062,2.1801,2.1757,2.196,2.1844,2.1511,2.1365,2.1547,2.0866,2.0175,2.0393,2.032,2.0277,2.064,2.1206,2.1438,2.154,2.196,2.2693,2.2859,2.2888,2.2888,2.2888,2.2888,2.2888,2.2888,2.2888,2.2888,2.2888,2.2888,2.2888,2.2888,2.2888,2.2888,2.2888,2.2888,2.2888,2.2888,2.282,2.2783,2.2752,2.2717,2.2602,2.1816,2.1,2.1058,2.0711,2.005,1.9559,1.9275,1.9064,1.9022,1.9329,1.9617,1.9569,1.9486,1.9395,1.9162,1.9185,1.9174,1.8522,1.784,1.7103,1.6179,1.512,1.4094,1.3611,1.3358,1.3129,2.8406,2.7606,2.7185,2.6674,2.6191,2.6386,2.6145,2.5575,2.5168,2.5005,2.5005,2.5005,2.5005,2.5005,2.4964,2.4883,2.4435,2.4422,2.4096,2.3635,2.3892,2.3771,2.3405,2.2998,2.289,2.2727,2.2375,2.2063,2.24,2.2483,2.2348,2.2131,2.2183,2.1979,2.1643,2.1437,2.153,2.165,2.1626,2.1783,2.2278,2.2454,2.2454,2.2674,2.2606,2.2345,2.2222,2.2019,2.1794,2.1997,2.1888,2.138,2.1061,2.0857,2.0349,2.0059,2.0233,2.0335,2.0582,2.1046,2.1583,2.1873,2.1525,2.1902,2.2664,2.2859,2.2888,2.2888,2.2888,2.2888,2.2888,2.2888,2.2888,2.2888,2.2888,2.2888,2.2888,2.2888,2.2888,2.2888,2.2888,2.2888,2.2888,2.2888,2.2865,2.2888,2.2888,2.2809,2.2649,2.1873,2.1177,2.1162,2.0938,2.0188,1.9841,1.9778,1.959,1.9459,1.987,2.0378,2.0396,2.0306,2.0341,2.0277,1.9897,1.9457,1.8906,1.8257,1.7554,1.6856,1.6007,1.4975,1.3939,1.375,1.3758,2.8504,2.7916,2.6758,2.6319,2.6351,2.6004,2.5561,2.5073,2.5032,2.5005,2.5005,2.5005,2.5005,2.5005,2.5005,2.4856,2.4624,2.4693,2.4191,2.3865,2.3621,2.3364,2.2998,2.2578,2.2441,2.2142,2.1871,2.1778,2.2156,2.2015,2.1703,2.1662,2.2076,2.1899,2.1629,2.1506,2.1602,2.1674,2.1602,2.1841,2.2301,2.2347,2.2463,2.2649,2.2749,2.2656,2.262,2.2591,2.2606,2.2693,2.2678,2.1982,2.1627,2.1627,2.0611,2.0132,2.048,2.0611,2.0828,2.1307,2.1641,2.1786,2.2004,2.2359,2.2678,2.2888,2.2888,2.2888,2.2888,2.2888,2.2888,2.2888,2.2888,2.2888,2.2888,2.2888,2.2888,2.2888,2.2888,2.2888,2.2888,2.2888,2.2888,2.2888,2.2873,2.2838,2.2751,2.2475,2.2294,2.1902,2.1307,2.1104,2.0764,2.0161,2.0016,2.0277,2.019,2.0088,2.0611,2.1061,2.1075,2.1017,2.0857,2.0625,2.0204,1.9671,1.9046,1.8545,1.8082,1.7383,1.6867,1.6107,1.5141,1.5061,1.5071,2.8343,2.6922,2.614,2.5679,2.5434,2.5315,2.5385,2.5561,2.5222,2.5005,2.5005,2.5005,2.4924,2.5005,2.5005,2.4476,2.4014,2.3567,2.2944,2.2741,2.2849,2.2415,2.2198,2.2104,2.1993,2.1762,2.1521,2.1505,2.1651,2.1544,2.165,2.178,2.2066,2.1945,2.1804,2.1674,2.1746,2.1712,2.1554,2.1817,2.2147,2.2254,2.2426,2.2646,2.2857,2.2757,2.2548,2.2722,2.2664,2.2388,2.2287,2.1757,2.1191,2.1177,2.0727,2.0596,2.0524,2.0364,2.0465,2.0959,2.1351,2.1627,2.2062,2.262,2.2844,2.2888,2.2888,2.2888,2.2801,2.2743,2.2772,2.2801,2.2844,2.2873,2.2873,2.2888,2.2888,2.2888,2.2888,2.2888,2.2888,2.2888,2.2888,2.2888,2.2859,2.278,2.262,2.2381,2.2091,2.1772,2.1423,2.122,2.109,2.0611,2.077,2.1032,2.0857,2.0799,2.1307,2.167,2.1714,2.1612,2.1336,2.0857,2.0233,1.9677,1.9113,1.8698,1.8398,1.8363,1.789,1.7152,1.6518,1.639,1.6165,2.8626,2.6975,2.6223,2.5605,2.5059,2.5005,2.5236,2.5439,2.5154,2.491,2.4638,2.4639,2.453,2.4231,2.4177,2.3879,2.3297,2.3296,2.2822,2.2332,2.2129,2.1912,2.1789,2.1749,2.1708,2.148,2.1385,2.1412,2.1471,2.1626,2.1793,2.1793,2.2067,2.2091,2.1996,2.1973,2.1949,2.1831,2.1736,2.1807,2.1983,2.2217,2.2402,2.2646,2.2857,2.2627,2.2374,2.2649,2.2374,2.2164,2.2091,2.1438,2.0828,2.0611,2.0494,2.032,2.0335,2.019,2.0306,2.1052,2.1154,2.1307,2.191,2.2504,2.2801,2.2888,2.2888,2.2873,2.2707,2.2577,2.2649,2.2722,2.2786,2.2859,2.2873,2.2888,2.2888,2.2888,2.2888,2.2888,2.2888,2.2888,2.2888,2.2888,2.2873,2.2852,2.2794,2.2649,2.2374,2.2091,2.167,2.1322,2.1351,2.1264,2.1467,2.1511,2.1351,2.1365,2.1881,2.2185,2.2294,2.2178,2.1888,2.1075,2.0117,1.9648,1.9237,1.9012,1.8755,1.8726,1.8688,1.82,1.7693,1.7534,1.7258,2.9099,2.7507,2.6736,2.5795,2.5074,2.5005,2.4991,2.4937,2.4896,2.4611,2.4191,2.4123,2.3865,2.3567,2.3472,2.3337,2.3039,2.2971,2.2632,2.2237,2.2251,2.1941,2.1562,2.1467,2.1616,2.1494,2.1385,2.1385,2.1496,2.165,2.1793,2.1831,2.2137,2.2231,2.2161,2.2208,2.2184,2.2067,2.1841,2.1793,2.2077,2.2263,2.2417,2.2752,2.2865,2.2815,2.2707,2.2519,2.2251,2.2214,2.1765,2.0973,2.0538,1.9928,1.9754,1.9841,1.9986,1.9885,2.0103,2.0785,2.1061,2.122,2.1525,2.2098,2.2446,2.262,2.2606,2.2838,2.2722,2.2693,2.2743,2.2707,2.2736,2.2815,2.2873,2.2888,2.2888,2.2888,2.2888,2.2888,2.2888,2.2888,2.2888,2.2888,2.2888,2.2896,2.2867,2.2772,2.2664,2.2374,2.2091,2.1641,2.1583,2.1641,2.1612,2.1656,2.1685,2.1888,2.2272,2.2569,2.2591,2.2519,2.2417,2.1104,1.9711,1.9711,1.9474,1.918,1.8969,1.8988,1.8988,1.9045,1.8831,1.848,1.8171,2.8201,2.6871,2.58,2.5198,2.5018,2.5005,2.4747,2.4313,2.434,2.4259,2.4096,2.4028,2.3703,2.3094,2.3013,2.289,2.2564,2.2483,2.2156,2.1968,2.2009,2.1968,2.1602,2.1749,2.1762,2.1494,2.1385,2.141,2.1458,2.1626,2.1817,2.1855,2.2208,2.2394,2.2278,2.237,2.2417,2.2301,2.2184,2.203,2.2231,2.2417,2.2615,2.2729,2.2775,2.2888,2.2722,2.2359,2.2164,2.1989,2.0944,2.0422,2.0262,1.9537,1.9537,1.987,1.9769,1.9575,1.9754,2.0291,2.0538,2.0669,2.093,2.154,2.196,2.212,2.2338,2.2606,2.2751,2.2751,2.2743,2.2678,2.2678,2.2772,2.2888,2.2888,2.2888,2.2888,2.2888,2.2888,2.2888,2.2888,2.2888,2.2888,2.2888,2.2888,2.2888,2.2859,2.2844,2.2693,2.2649,2.2272,2.196,2.1917,2.1844,2.167,2.1612,2.1786,2.2084,2.2461,2.2772,2.2164,2.1488,2.032,1.9319,1.9435,1.9464,1.9213,1.9097,1.9116,1.9116,1.9116,1.9116,1.8831,1.8669,2.7476,2.627,2.5384,2.5005,2.5005,2.5005,2.4773,2.4517,2.4218,2.3947,2.3662,2.3391,2.2971,2.2483,2.2402,2.2348,2.1941,2.1925,2.1762,2.1629,2.1724,2.1871,2.1898,2.1966,2.1925,2.1722,2.1453,2.141,2.1434,2.165,2.1817,2.1902,2.2278,2.2546,2.2394,2.2578,2.2646,2.2546,2.25,2.2486,2.2463,2.2592,2.2684,2.2752,2.282,2.2888,2.2707,2.2388,2.2294,2.2135,2.1525,2.064,2.0422,2.0088,2.0175,2.0233,2.0045,1.9532,1.9667,1.987,2.0132,2.0277,2.0335,2.0944,2.1293,2.1452,2.1641,2.1866,2.1844,2.1808,2.2243,2.2287,2.2562,2.2743,2.2844,2.2888,2.2888,2.2888,2.2888,2.2888,2.2888,2.2888,2.2888,2.2888,2.2888,2.2888,2.2888,2.2888,2.2888,2.291,2.291,2.2707,2.2273,2.2069,2.1975,2.1699,2.1438,2.1656,2.1989,2.2048,2.2156,2.1276,2.0395,2.0147,1.9808,1.9406,1.9362,1.9275,1.9145,1.9116,1.9116,1.9116,1.9116,1.9116,1.895,2.6729,2.5655,2.5093,2.4883,2.4896,2.4883,2.4801,2.4611,2.4096,2.3486,2.2917,2.2415,2.186,2.1548,2.1399,2.1385,2.1426,2.1548,2.1426,2.1453,2.1575,2.1884,2.202,2.2007,2.2101,2.1941,2.1643,2.148,2.141,2.1602,2.1746,2.1902,2.2208,2.2555,2.2646,2.276,2.282,2.2797,2.2797,2.2843,2.2797,2.2729,2.2775,2.2843,2.2888,2.2888,2.2722,2.2504,2.2403,2.2185,2.1946,2.1191,2.0712,2.0553,2.0712,2.0727,2.0494,2.0233,2.0233,2.0262,2.0233,2.0161,2.0117,2.0277,2.0654,2.0814,2.1003,2.1075,2.1032,2.138,2.1815,2.2265,2.2562,2.2728,2.2815,2.2801,2.2786,2.283,2.2859,2.2859,2.2844,2.2844,2.2888,2.2888,2.2888,2.2888,2.2888,2.2888,2.291,2.2955,2.2992,2.2666,2.2214,2.2076,2.2127,2.1902,2.1619,2.1793,2.2084,2.1873,2.1574,2.112,2.0951,2.117,2.075,1.9885,1.9585,1.957,1.941,1.9232,1.9116,1.9116,1.9116,1.9116,1.9116,2.5481,2.4444,2.4312,2.4299,2.4286,2.4272,2.4001,2.3499,2.297,2.2319,2.1955,2.1724,2.1453,2.1385,2.1385,2.1385,2.1385,2.1385,2.1385,2.1412,2.1735,2.2061,2.2346,2.2442,2.2524,2.2212,2.1765,2.1467,2.1423,2.1482,2.1602,2.1817,2.2114,2.2417,2.2638,2.2775,2.2888,2.2888,2.2888,2.2888,2.2888,2.2843,2.288,2.2888,2.2888,2.2888,2.2751,2.2301,2.2149,2.1931,2.1692,2.1278,2.1046,2.0988,2.109,2.109,2.0857,2.0727,2.0669,2.0669,2.0582,2.0132,2.0088,2.0074,2.0262,2.0204,2.0378,2.0509,2.0712,2.1438,2.1946,2.249,2.283,2.283,2.2873,2.2635,2.2475,2.2664,2.2772,2.2751,2.2707,2.2757,2.2888,2.2888,2.2888,2.2888,2.2888,2.2888,2.2947,2.2992,2.3037,2.2615,2.2183,2.2353,2.2534,2.2258,2.204,2.2178,2.209,2.1716,2.1465,2.1328,2.1284,2.1539,2.0953,2.0011,1.987,2.0011,1.9764,1.9604,1.9265,1.9116,1.9116,1.9116,1.9116]}]]